[[{"header":{"parameterUnit":"m.s-1","parameterCategory":1,"la1":30.6,"la2":28.766,"lo1":-90.7593,"lo2":-88.6598,"dy":0.0162,"dx":0.0183,"nx":116,"ny":114,"refTime":"2023-07-28T06:00:00:Z","depth":0,"parameterNumber":2,"parameterNumberName":"U-component_of_WINDS"},"data":[0.0,0.0,0.0,0.0,0.0,0.0,0.0,0.0,0.0,0.0,0.0,0.0,0.0,0.0,0.0,0.0,0.0,0.0,0.0,0.0,0.0,0.0,0.0,0.0,0.0,0.0,0.0,0.0,0.0,0.0,0.0,0.0,0.0,0.0,0.0,0.0,0.0,0.0,0.0,0.0,0.0,0.0,0.0,0.0,0.0,0.0,0.0,0.0,0.0,0.0,0.0,0.0,0.0,0.0,0.0,0.0,0.0,0.0,0.0,0.0,0.0,0.0,0.0,0.0,0.0,0.0,0.0,0.0,0.0,0.0,0.0,0.0,0.0,0.0,0.0,0.0,0.0,0.0,0.0,0.0,0.0,0.0,0.0,0.0,0.0,0.0,0.0,0.0,0.0,0.0,0.0,0.0,0.0,0.0,0.0,0.0,0.0,0.0,0.0,0.0,0.0,0.0,0.0,0.0,0.0,0.0,0.0,0.0,0.0,0.0,0.0,0.0,0.0,0.0,0.0,0.0,0.0,0.0,0.0,0.0,0.0,0.0,0.0,0.0,0.0,0.0,0.0,0.0,0.0,0.0,0.0,0.0,0.0,0.0,0.0,0.0,0.0,0.0,0.0,0.0,0.0,0.0,0.0,0.0,0.0,0.0,0.0,0.0,0.0,0.0,0.0,0.0,0.0,0.0,0.0,0.0,0.0,0.0,0.0,0.0,0.0,0.0,0.0,0.0,0.0,0.0,0.0,0.0,0.0,0.0,0.0,0.0,0.0,0.0,0.0,0.0,0.0,0.0,0.0,0.0,0.0,0.0,0.0,0.0,0.0,0.0,0.0,0.0,0.0,0.0,0.0,0.0,0.0,0.0,0.0,0.0,0.0,0.0,0.0,0.0,0.0,0.0,0.0,0.0,0.0,0.0,0.0,0.0,0.0,0.0,0.0,0.0,0.0,0.0,0.0,0.0,0.0,0.0,0.0,0.0,0.0,0.0,0.0,0.0,0.0,0.0,0.0,0.0,0.0,0.0,0.0,0.0,0.0,0.0,0.0,0.0,0.0,0.0,0.0,0.0,0.0,0.0,0.0,0.0,0.0,0.0,0.0,0.0,0.0,0.0,0.0,0.0,0.0,0.0,0.0,0.0,0.0,0.0,0.0,0.0,0.0,0.0,0.0,0.0,0.0,0.0,0.0,0.0,0.0,0.0,0.0,0.0,0.0,0.0,0.0,0.0,0.0,0.0,0.0,0.0,0.0,0.0,0.0,0.0,0.0,0.0,0.0,0.0,0.0,0.0,0.0,0.0,0.0,0.0,0.0,0.0,0.0,0.0,0.0,0.0,0.0,0.0,0.0,0.0,0.0,0.0,0.0,0.0,0.0,0.0,0.0,0.0,0.0,0.0,0.0,0.0,0.0,0.0,0.0,0.0,0.0,0.0,0.0,0.0,0.0,0.0,0.0,0.0,0.0,0.0,0.0,0.0,0.0,0.0,0.0,0.0,0.0,0.0,0.0,0.0,0.0,0.0,0.0,0.0,0.0,0.0,0.0,0.0,0.0,0.0,0.0,0.0,0.0,0.0,0.0,0.0,0.0,0.0,0.0,0.0,0.0,0.0,0.0,0.0,0.0,0.0,0.0,0.0,0.0,0.0,0.0,0.0,0.0,0.0,0.0,0.0,0.0,0.0,0.0,0.0,0.0,0.0,0.0,0.0,0.0,0.0,0.0,0.0,0.0,0.0,0.0,0.0,0.0,0.0,0.0,0.0,0.0,0.0,0.0,0.0,0.0,0.0,0.0,0.0,0.0,0.0,0.0,0.0,0.0,0.0,0.0,0.0,0.0,0.0,0.0,0.0,0.0,0.0,0.0,0.0,0.0,0.0,0.0,0.0,0.0,0.0,0.0,0.0,0.0,0.0,0.0,0.0,0.0,0.0,0.0,0.0,0.0,0.0,0.0,0.0,0.0,0.0,0.0,0.0,0.0,0.0,0.0,0.0,0.0,0.0,0.0,0.0,0.0,0.0,0.0,0.0,0.0,0.0,0.0,0.0,0.0,0.0,0.0,0.0,0.0,0.0,0.0,0.0,0.0,0.0,0.0,0.0,0.0,0.0,0.0,0.0,0.0,0.0,0.0,0.0,0.0,0.0,0.0,0.0,0.0,0.0,0.0,0.0,0.0,0.0,0.0,0.0,0.0,0.0,0.0,0.0,0.0,0.0,0.0,0.0,0.0,0.0,0.0,0.0,0.0,0.0,0.0,0.0,0.0,0.0,0.0,0.0,0.0,0.0,0.0,0.0,0.0,0.0,0.0,0.0,0.0,0.0,0.0,0.0,0.0,0.0,0.0,0.0,0.0,0.0,0.0,0.0,0.0,0.0,0.0,0.0,0.0,0.0,0.0,0.0,0.0,0.0,0.0,0.0,0.0,0.0,0.0,0.0,0.0,0.0,0.0,0.0,0.0,0.0,0.0,0.0,0.0,0.0,0.0,0.0,0.0,0.0,0.0,0.0,0.0,0.0,0.0,0.0,0.0,0.0,0.0,0.0,0.0,0.0,0.0,0.0,0.0,0.0,0.0,0.0,0.0,0.0,0.0,0.0,0.0,0.0,0.0,0.0,0.0,0.0,0.0,0.0,0.0,0.0,0.0,0.0,0.0,0.0,0.0,0.0,0.0,0.0,0.0,0.0,0.0,0.0,0.0,0.0,0.0,0.0,0.0,0.0,0.0,0.0,0.0,0.0,0.0,0.0,0.0,0.0,0.0,0.0,0.0,0.0,0.0,0.0,0.0,0.0,0.0,0.0,0.0,0.0,0.0,0.0,0.0,0.0,0.0,0.0,0.0,0.0,0.0,0.0,0.0,0.0,0.0,0.0,0.0,0.0,0.0,0.0,0.0,0.0,0.0,0.0,0.0,0.0,0.0,0.0,0.0,0.0,0.0,0.0,0.0,0.0,0.0,0.0,0.0,0.0,0.0,0.0,0.0,0.0,0.0,0.0,0.0,0.0,0.0,0.0,0.0,0.0,0.0,0.0,0.0,0.0,0.0,0.0,0.0,0.0,0.0,0.0,0.0,0.0,0.0,0.0,0.0,0.0,0.0,0.0,0.0,0.0,0.0,0.0,0.0,0.0,0.0,0.0,0.0,0.0,0.0,0.0,0.0,0.0,0.0,0.0,0.0,0.0,0.0,0.0,0.0,0.0,0.0,0.0,0.0,0.0,0.0,0.0,0.0,0.0,0.0,0.0,0.0,0.0,0.0,0.0,0.0,0.0,0.0,0.0,0.0,0.0,0.0,0.0,0.0,0.0,0.0,0.0,0.0,0.0,0.0,0.0,0.0,0.0,0.0,0.0,0.0,0.0,0.0,0.0,0.0,0.0,0.0,0.0,0.0,0.0,0.0,0.0,0.0,0.0,0.0,0.0,0.0,0.0,0.0,0.0,0.0,0.0,0.0,0.0,0.0,0.0,0.0,0.0,0.0,0.0,0.0,0.0,0.0,0.0,0.0,0.0,0.0,0.0,0.0,0.0,0.0,0.0,0.0,0.0,0.0,0.0,0.0,0.0,0.0,0.0,0.0,0.0,0.0,0.0,0.0,0.0,0.0,0.0,0.0,0.0,0.0,0.0,0.0,0.0,0.0,0.0,0.0,0.0,0.0,0.0,0.0,0.0,0.0,0.0,0.0,0.0,0.0,0.0,0.0,0.0,0.0,0.0,0.0,0.0,0.0,0.0,0.0,0.0,0.0,0.0,0.0,0.0,0.0,0.0,0.0,0.0,0.0,0.0,0.0,0.0,0.0,0.0,0.0,0.0,0.0,0.0,0.0,0.0,0.0,0.0,0.0,0.0,0.0,0.0,0.0,0.0,0.0,0.0,0.0,0.0,0.0,0.0,0.0,0.0,0.0,0.0,0.0,0.0,0.0,0.0,0.0,0.0,0.0,0.0,0.0,0.0,0.0,0.0,0.0,0.0,0.0,0.0,0.0,0.0,0.0,0.0,0.0,0.0,0.0,0.0,0.0,0.0,0.0,0.0,0.0,0.0,0.0,0.0,0.0,0.0,0.0,0.0,0.0,0.0,0.0,0.0,0.0,0.0,0.0,0.0,0.0,0.0,0.0,0.0,0.0,0.0,0.0,0.0,0.0,0.0,0.0,0.0,0.0,0.0,0.0,0.0,0.0,0.0,0.0,0.0,0.0,0.0,0.0,0.0,0.0,0.0,0.0,0.0,0.0,0.0,0.0,0.0,0.0,0.0,0.0,0.0,0.0,0.0,0.0,0.0,0.0,0.0,0.0,0.0,0.0,0.0,0.0,0.0,0.0,0.0,0.0,0.0,0.0,0.0,0.0,0.0,0.0,0.0,0.0,0.0,0.0,0.0,0.0,0.0,0.0,0.0,0.0,0.0,0.0,0.0,0.0,0.0,0.0,0.0,0.0,0.0,0.0,0.0,0.0,0.0,0.0,0.0,0.0,0.0,0.0,0.0,0.0,0.0,0.0,0.0,0.0,0.0,0.0,0.0,0.0,0.0,0.0,0.0,0.0,0.0,0.0,0.0,0.0,0.0,0.0,0.0,0.0,0.0,0.0,0.0,0.0,0.0,0.0,0.0,0.0,0.0,0.0,0.0,0.0,0.0,0.0,0.0,0.0,0.0,0.0,0.0,0.0,0.0,0.0,0.0,0.0,0.0,0.0,0.0,0.0,0.0,0.0,0.0,0.0,0.0,0.0,0.0,0.0,0.0,0.0,0.0,0.0,0.0,0.0,0.0,0.0,0.0,0.0,0.0,0.0,0.0,0.0,0.0,0.0,0.0,0.0,0.0,0.0,0.0,0.0,0.0,0.0,0.0,0.0,0.0,0.0,0.0,0.0,0.0,0.0,0.0,0.0,0.0,0.0,0.0,0.0,0.0,0.0,0.0,0.0,0.0,0.0,0.0,0.0,0.0,0.0,0.0,0.0,0.0,0.0,0.0,0.0,0.0,0.0,0.0,0.0,0.0,0.0,0.0,0.0,0.0,0.0,0.0,0.0,0.0,0.0,0.0,0.0,0.0,0.0,0.0,0.0,0.0,0.0,0.0,0.0,0.0,0.0,0.0,0.0,0.0,0.0,0.0,0.0,0.0,0.0,0.0,0.0,0.0,0.0,0.0,0.0,0.0,0.0,0.0,0.0,0.0,0.0,0.0,0.0,0.0,0.0,0.0,0.0,0.0,0.0,0.0,0.0,0.0,0.0,0.0,0.0,0.0,0.0,0.0,0.0,0.0,0.0,0.0,0.0,0.0,0.0,0.0,0.0,0.0,0.0,0.0,0.0,0.0,0.0,0.0,0.0,0.0,0.0,0.0,0.0,0.0,0.0,0.0,0.0,0.0,0.0,0.0,0.0,0.0,0.0,0.0,0.0,0.0,0.0,0.0,0.0,0.0,0.0,0.0,0.0,0.0,0.0,0.0,0.0,0.0,0.0,0.0,0.0,0.0,0.0,0.0,0.0,0.0,0.0,0.0,0.0,0.0,0.0,0.0,0.0,0.0,0.0,0.0,0.0,0.0,0.0,0.0,0.0,0.0,0.0,0.0,0.0,0.0,0.0,0.0,0.0,0.0,0.0,0.0,0.0,0.0,0.0,0.0,0.0,0.0,0.0,0.0,0.0,0.0,0.0,0.0,0.0,0.0,0.0,0.0,0.0,0.0,0.0,0.0,0.0,0.0,0.0,0.0,0.0,0.0,0.0,0.0,0.0,0.0,0.0,0.0,0.0,0.0,0.0,0.0,0.0,0.0,0.0,0.0,0.0,0.0,0.0,0.0,0.0,0.0,0.0,0.0,0.0,0.0,0.0,0.0,0.0,0.0,0.0,0.0,0.0,0.0,0.0,0.0,0.0,0.0,0.0,0.0,0.0,0.0,0.0,0.0,0.0,0.0,0.0,0.0,0.0,0.0,0.0,0.0,0.0,0.0,0.0,0.0,0.0,0.0,0.0,0.0,0.0,0.0,0.0,0.0,0.0,0.0,0.0,0.0,0.0,0.0,0.0,0.0,0.0,0.0,0.0,0.0,0.0,0.0,0.0,0.0,0.0,0.0,0.0,0.0,0.0,0.0,0.0,0.0,0.0,0.0,0.0,0.0,-3.8611,0.0,0.0,0.0,0.0,0.0,0.0,0.0,0.0,0.0,0.0,0.0,0.0,0.0,0.0,0.0,0.0,0.0,0.0,0.0,0.0,0.0,0.0,0.0,0.0,0.0,0.0,0.0,0.0,0.0,0.0,0.0,0.0,0.0,0.0,0.0,0.0,0.0,0.0,0.0,-2.6584,-2.6755,-2.7561,-2.624,-2.6316,-2.7653,0.0,0.0,0.0,0.0,0.0,0.0,0.0,0.0,0.0,0.0,0.0,0.0,0.0,0.0,0.0,0.0,0.0,0.0,0.0,0.0,0.0,0.0,0.0,0.0,0.0,0.0,0.0,0.0,0.0,0.0,0.0,0.0,0.0,0.0,0.0,0.0,0.0,0.0,0.0,0.0,0.0,0.0,0.0,0.0,0.0,0.0,0.0,0.0,0.0,0.0,0.0,0.0,0.0,0.0,0.0,0.0,0.0,0.0,0.0,0.0,0.0,0.0,0.0,0.0,0.0,0.0,0.0,0.0,0.0,0.0,0.0,-3.8133,0.0,0.0,0.0,0.0,0.0,0.0,0.0,0.0,0.0,0.0,0.0,0.0,0.0,0.0,0.0,0.0,0.0,0.0,0.0,0.0,0.0,0.0,0.0,0.0,0.0,0.0,0.0,0.0,0.0,0.0,0.0,0.0,0.0,0.0,0.0,0.0,0.0,-2.6788,-2.5864,-2.6077,-2.717,-2.4932,-2.5014,-2.712,-2.6974,0.0,0.0,0.0,0.0,0.0,0.0,0.0,0.0,0.0,0.0,0.0,0.0,0.0,0.0,0.0,0.0,0.0,0.0,0.0,0.0,0.0,0.0,0.0,0.0,0.0,0.0,0.0,0.0,0.0,0.0,0.0,0.0,0.0,0.0,0.0,0.0,0.0,0.0,0.0,0.0,0.0,0.0,0.0,0.0,0.0,0.0,0.0,0.0,0.0,0.0,0.0,0.0,0.0,0.0,0.0,0.0,0.0,0.0,0.0,0.0,0.0,0.0,0.0,0.0,0.0,-4.2427,-4.1974,-4.0918,-3.9526,-3.8634,-3.8033,-3.7761,0.0,0.0,0.0,0.0,0.0,0.0,0.0,0.0,0.0,0.0,0.0,0.0,0.0,0.0,0.0,0.0,0.0,0.0,0.0,0.0,0.0,0.0,0.0,0.0,0.0,0.0,0.0,0.0,0.0,0.0,0.0,0.0,0.0,0.0,-2.6517,-2.6005,-2.5447,-2.5528,-2.5664,-2.5864,-2.5763,-2.5554,-2.516,-2.4418,-2.4073,-2.4073,0.0,0.0,0.0,0.0,0.0,0.0,0.0,0.0,0.0,0.0,0.0,0.0,0.0,0.0,0.0,0.0,0.0,0.0,0.0,0.0,0.0,0.0,0.0,0.0,0.0,0.0,0.0,0.0,0.0,0.0,0.0,0.0,0.0,0.0,0.0,0.0,0.0,0.0,0.0,0.0,0.0,-3.2283,-3.1526,0.0,0.0,0.0,0.0,0.0,0.0,0.0,0.0,0.0,0.0,0.0,0.0,0.0,0.0,-3.9989,-4.116,-4.0829,-3.915,-4.1707,-4.4173,-4.6394,-4.3579,-4.1565,-4.0247,-4.0106,0.0,-3.7525,-3.8219,0.0,0.0,0.0,0.0,0.0,0.0,0.0,0.0,0.0,0.0,0.0,0.0,0.0,0.0,0.0,0.0,0.0,0.0,0.0,0.0,0.0,0.0,0.0,0.0,0.0,0.0,0.0,0.0,0.0,0.0,0.0,-2.7824,-2.6708,-2.6028,-2.5417,-2.4884,-2.5378,-2.5973,-2.6707,-2.6455,-2.6323,-2.6332,-2.5189,-2.4264,-2.3642,-2.4539,0.0,0.0,0.0,0.0,0.0,0.0,0.0,0.0,0.0,0.0,0.0,0.0,0.0,0.0,0.0,0.0,0.0,0.0,0.0,0.0,0.0,0.0,0.0,0.0,0.0,0.0,0.0,0.0,0.0,0.0,0.0,0.0,0.0,0.0,0.0,0.0,0.0,0.0,0.0,-3.3623,-3.3196,-3.1706,-3.2332,-3.2577,0.0,0.0,0.0,0.0,0.0,0.0,0.0,0.0,0.0,-3.8501,-3.9561,-4.0583,-4.1489,-4.1993,-4.2011,-4.1691,-4.3805,-4.5707,-4.7241,-4.5435,-4.3853,-4.2596,-4.2596,-4.1474,-3.9601,-3.8417,-3.7567,-3.696,0.0,0.0,0.0,0.0,0.0,0.0,0.0,0.0,0.0,0.0,0.0,0.0,0.0,0.0,0.0,0.0,0.0,0.0,0.0,0.0,0.0,-3.362,0.0,0.0,0.0,0.0,0.0,0.0,0.0,-2.7128,-2.6708,-2.5889,-2.5352,-2.5118,-2.5801,-2.6796,-2.8091,-2.7334,-2.7373,-2.8047,-2.6465,-2.505,-2.3876,-2.4426,-2.5021,-2.5546,0.0,0.0,0.0,0.0,0.0,0.0,0.0,0.0,0.0,0.0,0.0,0.0,0.0,0.0,0.0,0.0,0.0,0.0,0.0,0.0,0.0,0.0,0.0,0.0,0.0,0.0,0.0,0.0,0.0,0.0,0.0,0.0,0.0,0.0,0.0,0.0,0.0,-3.4064,-3.3969,-3.2034,-3.2895,-3.3102,0.0,0.0,0.0,0.0,0.0,0.0,-3.8722,-3.9265,-3.9819,-4.0382,-4.1698,-4.2701,-4.3359,-4.3403,-4.3686,-4.4377,-4.5704,-4.6701,-4.7273,-4.6776,-4.5843,-4.4571,-4.4571,-4.3539,-4.1683,-3.92,-3.7973,-3.7539,-3.6252,-3.5759,0.0,-3.5564,-3.5504,-3.5504,0.0,0.0,0.0,0.0,0.0,0.0,0.0,0.0,0.0,0.0,0.0,0.0,0.0,0.0,-3.4368,-3.4606,-3.3647,-3.2728,0.0,0.0,0.0,-2.7891,-2.6712,-2.6295,-2.6691,-2.6336,-2.6248,-2.6497,-2.7156,-2.8186,-2.9448,-2.8682,-2.8706,-2.9426,-2.7355,-2.5739,-2.4567,-2.4582,-2.4856,-2.5205,-2.5173,0.0,0.0,0.0,0.0,0.0,0.0,0.0,0.0,0.0,0.0,0.0,0.0,0.0,0.0,0.0,0.0,0.0,0.0,0.0,0.0,0.0,0.0,0.0,0.0,0.0,0.0,0.0,0.0,0.0,0.0,0.0,0.0,0.0,0.0,0.0,0.0,0.0,0.0,-3.2034,-3.3396,0.0,0.0,0.0,0.0,-3.7635,-3.9057,-4.0408,-4.1598,-4.2232,-4.2771,-4.306,-4.4407,-4.5424,-4.6112,-4.6756,-4.7085,-4.713,-4.7204,-4.7249,-4.7264,-4.7264,-4.6516,-4.5244,-4.5244,-4.4481,-4.3075,-4.1085,-3.9499,-3.8212,-3.6941,-3.6432,-3.6357,-3.5729,-3.5504,-3.5504,0.0,0.0,0.0,0.0,0.0,0.0,0.0,0.0,0.0,0.0,0.0,0.0,0.0,-3.4509,-3.4309,-3.4309,-3.3925,-3.3283,-3.2234,0.0,0.0,0.0,-2.7288,-2.6547,-2.6526,-2.6383,-2.6641,-2.7215,-2.7904,-2.8914,-3.0168,-2.9481,-2.9514,-3.0112,-2.8566,-2.7575,-2.6979,-2.5288,-2.5106,-2.5767,-2.4856,-2.4928,0.0,0.0,0.0,0.0,0.0,0.0,0.0,0.0,0.0,0.0,0.0,0.0,0.0,0.0,0.0,0.0,0.0,0.0,0.0,0.0,0.0,0.0,0.0,0.0,0.0,0.0,0.0,0.0,0.0,0.0,0.0,0.0,0.0,0.0,0.0,0.0,0.0,-3.5285,-3.6491,0.0,0.0,-3.7483,-3.8937,-3.9952,-4.1804,-4.3152,-4.3783,-4.4843,-4.5387,-4.5214,-4.6112,-4.6711,-4.695,-4.7189,-4.7309,-4.7309,-4.7309,-4.7309,-4.7294,-4.686,-4.6172,-4.5274,-4.484,-4.4152,-4.321,-4.1669,-4.0502,-3.9514,-3.7764,-3.7075,-3.7,-3.6372,-3.6133,-3.6073,0.0,0.0,0.0,0.0,0.0,0.0,0.0,0.0,0.0,0.0,0.0,-3.4829,-3.4827,-3.4706,-3.4604,-3.4616,-3.4157,-3.3419,-3.2364,0.0,0.0,-2.8619,-2.7701,-2.686,-2.6066,-2.6941,-2.7581,-2.7919,-2.8801,-2.9804,-3.0851,-3.0432,-3.0447,-3.0791,-2.9689,-2.9205,-2.902,-2.6811,-2.6103,-2.6428,-2.5476,-2.5372,-2.576,0.0,0.0,0.0,0.0,0.0,0.0,0.0,0.0,0.0,0.0,0.0,0.0,0.0,0.0,0.0,0.0,0.0,0.0,0.0,0.0,0.0,0.0,0.0,0.0,0.0,0.0,0.0,0.0,0.0,0.0,0.0,0.0,0.0,0.0,0.0,-3.7708,-3.7538,-3.8842,-3.9445,-3.8717,-3.9986,-4.1474,-4.298,-4.465,-4.5797,-4.6374,-4.7438,-4.7549,-4.6636,-4.7294,-4.7534,-4.7309,-4.7309,-4.7309,-4.7309,-4.7309,-4.7309,-4.7279,-4.6621,-4.5948,-4.5259,-4.4601,-4.3808,-4.291,-4.1833,-4.0995,-4.0217,-3.8437,-3.7599,-3.7345,-3.6716,-3.6357,-3.6022,0.0,0.0,0.0,0.0,0.0,0.0,0.0,0.0,0.0,0.0,-3.508,-3.5093,-3.5091,-3.5164,-3.5297,-3.5565,-3.4252,-3.3085,-3.2364,-3.0209,0.0,-2.7857,-2.7789,-2.7064,-2.5551,-2.7987,-2.9044,-2.8607,-2.9864,-3.0806,-3.1422,-3.1495,-3.1495,-3.1462,-3.086,-3.0556,-3.0437,-2.9082,-2.8013,-2.7184,-2.7135,-2.6758,-2.6358,0.0,0.0,0.0,0.0,0.0,0.0,0.0,0.0,0.0,0.0,0.0,0.0,0.0,0.0,0.0,0.0,0.0,0.0,0.0,0.0,0.0,0.0,0.0,0.0,0.0,0.0,0.0,0.0,0.0,0.0,0.0,0.0,0.0,-3.6413,-3.8098,-3.91,-3.8545,-4.0169,-4.1035,-4.0358,-4.1627,-4.3707,-4.6616,-4.7564,-4.8362,-4.924,-4.9812,-4.928,-4.7381,-4.7923,-4.7952,-4.7309,-4.7309,-4.7309,-4.7309,-4.7309,-4.7294,-4.7249,-4.6591,-4.5918,-4.5229,-4.4571,-4.3569,-4.2342,-4.1654,-4.101,-4.0292,-3.8945,-3.8018,-3.736,-3.6746,-3.6088,-3.5359,0.0,0.0,0.0,0.0,0.0,0.0,0.0,0.0,0.0,0.0,-3.4604,-3.4692,-3.441,-3.4882,-3.5082,-3.482,-3.3947,-3.3085,-3.2364,0.0,0.0,-2.8047,-2.7533,-2.738,-2.7643,-2.8358,-2.8673,-2.8607,-2.943,-2.9924,-3.0118,-3.1119,-3.1275,-3.0799,-3.1656,-3.1694,-3.1073,-3.074,-3.0071,-2.9156,-2.7699,-2.706,-2.7018,0.0,0.0,0.0,0.0,0.0,0.0,0.0,0.0,0.0,0.0,0.0,0.0,0.0,0.0,0.0,0.0,0.0,0.0,0.0,0.0,0.0,0.0,0.0,0.0,0.0,0.0,0.0,0.0,0.0,0.0,0.0,0.0,-3.8909,-3.8909,-3.9641,-4.0704,-4.2255,-4.3166,-4.3792,-4.4147,-4.5991,-4.7293,-4.7581,-4.9289,-4.9726,-4.8509,-4.9154,-4.8874,-4.7366,-4.7474,-4.7489,-4.7309,-4.7309,-4.7309,-4.7309,-4.7309,-4.7055,-4.6576,-4.5888,-4.5214,-4.4541,-4.3883,-4.3404,-4.2985,-4.1848,-4.1265,-4.098,-3.9649,-3.8721,-3.8048,-3.7389,-3.6447,-3.5439,0.0,0.0,0.0,0.0,0.0,0.0,0.0,0.0,0.0,0.0,-3.4624,-3.4787,-3.46,-3.4792,-3.4809,-3.4524,-3.3525,-3.2493,-3.1444,0.0,0.0,-2.801,-2.821,-2.8484,-2.8809,-2.9369,-2.9596,-2.9335,-3.0027,-3.0351,-3.0366,-3.115,-3.1479,-3.1369,-3.216,-3.2411,-3.2192,-3.1888,-3.1587,-3.1158,-2.9333,-2.8374,-2.7979,-2.7794,-2.8058,-2.8591,-2.9241,-3.0246,-3.122,-3.0992,0.0,0.0,0.0,0.0,0.0,0.0,0.0,0.0,0.0,0.0,0.0,0.0,0.0,0.0,0.0,0.0,0.0,0.0,0.0,0.0,0.0,0.0,0.0,0.0,-3.9827,-4.1754,-4.2782,-4.2372,-4.2847,-4.5223,-4.5216,-4.5585,-4.6955,-4.8257,-4.9086,-4.9289,-5.0777,-5.0927,-4.9289,-4.9539,-4.9206,-4.7988,-4.7538,-4.7309,-4.7309,-4.7309,-4.7309,-4.7309,-4.6894,-4.6565,-4.6292,-4.5319,-4.4676,0.0,-4.3614,-4.303,-4.2462,-4.1698,-4.1055,0.0,0.0,0.0,0.0,0.0,-3.6148,-3.5359,0.0,0.0,0.0,0.0,0.0,0.0,0.0,0.0,0.0,0.0,0.0,-3.5079,-3.5076,-3.4719,-3.443,-3.4261,-3.3051,-3.1681,0.0,0.0,0.0,-2.8043,-2.9465,-2.9962,-2.9321,-3.0547,-3.088,-3.0288,-3.0863,-3.1166,-3.1166,-3.1342,-3.1758,-3.24,-3.2567,-3.2987,-3.3553,-3.2892,-3.2792,-3.2939,-3.1498,-3.0269,-2.9355,-2.9325,-2.9737,-3.0507,-3.1452,-3.2027,-3.2373,-3.254,0.0,0.0,0.0,0.0,0.0,0.0,0.0,0.0,0.0,0.0,0.0,0.0,0.0,0.0,0.0,0.0,0.0,0.0,0.0,0.0,0.0,0.0,0.0,0.0,-4.2194,-4.458,-4.6836,-4.5612,-4.5315,-4.7462,-4.6682,-4.6752,-4.8798,-4.9086,-4.9678,-5.0997,-5.1775,-5.1732,-5.0702,0.0,0.0,0.0,0.0,-4.7309,-4.7309,-4.7309,-4.7249,-4.7028,-4.6371,-4.6043,-4.6052,-4.4855,-4.4272,-4.4167,-4.3509,-4.2566,-4.1474,-4.1324,-4.0442,-3.914,-3.8512,-3.7883,-3.7165,-3.5953,-3.5504,0.0,0.0,0.0,0.0,0.0,0.0,0.0,0.0,0.0,0.0,-3.5668,-3.5328,-3.4854,-3.4447,-3.4442,-3.4017,-3.2824,-3.2471,-3.1678,0.0,0.0,-3.0277,-2.9685,-3.0514,-3.0717,-3.0095,-3.0359,-3.019,-2.9598,-2.9697,-2.9761,-2.9822,-3.0884,-3.1495,-3.1691,-3.3328,-3.4067,-3.4094,-3.4542,-3.4286,-3.3476,-3.2592,-3.1898,-3.1355,-3.0772,-3.094,-3.1511,-3.1744,-3.2383,-3.311,-3.273,-3.3073,-3.354,-3.305,-3.2891,0.0,0.0,0.0,0.0,0.0,0.0,0.0,0.0,0.0,0.0,0.0,0.0,0.0,0.0,0.0,0.0,0.0,0.0,0.0,-4.1644,-4.3864,-4.5882,-4.7143,-4.754,-4.7913,-4.848,-4.7924,-4.7885,-4.89,-4.9543,-4.9999,-5.0287,-5.1014,-5.0994,-4.9977,-4.9685,0.0,-4.881,-4.7834,-4.7309,-4.7309,-4.7309,-4.6789,-4.5699,0.0,0.0,-4.4691,-4.4436,-4.4018,-4.3479,-4.2836,-4.2402,-4.2087,-4.1025,-3.9484,-3.7778,-3.7644,-3.7225,-3.6567,-3.5789,-3.5504,-3.5439,0.0,0.0,0.0,0.0,0.0,0.0,0.0,0.0,0.0,0.0,-3.533,-3.5294,-3.4326,-3.3835,-3.3262,-3.2374,-3.1638,0.0,0.0,-3.0886,-3.1038,-3.0666,-3.136,-3.1594,-3.1332,-3.0924,-3.0784,-3.0863,-3.0474,-3.0293,-3.0309,-3.1374,-3.2051,-3.2469,-3.4159,-3.5046,-3.533,-3.5553,-3.5472,-3.5144,-3.4591,-3.4113,-3.3605,-3.22,-3.198,-3.2496,-3.3201,-3.3525,-3.3652,-3.3941,-3.4308,-3.4668,-3.4768,-3.4795,-3.4718,0.0,0.0,0.0,0.0,0.0,0.0,0.0,0.0,0.0,0.0,0.0,0.0,0.0,0.0,-3.7257,0.0,0.0,-4.2231,-4.3846,-4.5792,-4.7441,-4.8352,-4.864,-4.8728,-4.8854,-4.8571,-4.8677,-4.9503,-5.0219,-5.0659,-5.0659,-5.1725,-5.1966,-5.1044,-5.0752,-5.0317,-4.9599,-4.88,-4.794,-4.7309,-4.6834,-4.6286,-4.5679,-4.5287,-4.4818,-4.4302,-4.3973,-4.3643,-4.3314,-4.2985,-4.2476,-4.1773,-4.0442,-3.911,-3.7868,-3.7539,-3.6836,-3.5953,-3.5624,-3.5504,-3.5439,0.0,0.0,0.0,0.0,0.0,0.0,0.0,0.0,0.0,0.0,-3.5314,-3.5691,-3.4481,-3.3444,-3.2608,0.0,0.0,0.0,0.0,-3.1094,-3.1404,-3.1421,-3.2121,-3.2517,-3.25,-3.1935,-3.1867,-3.2313,-3.185,-3.1546,-3.1427,-3.2154,-3.2899,-3.3685,-3.4812,-3.5856,-3.6777,-3.6498,-3.6646,-3.7015,-3.6399,-3.5872,-3.5293,-3.3395,-3.2864,-3.3285,-3.4242,-3.4168,-3.3792,-3.4875,-3.5257,-3.5391,-3.6219,-3.6469,-3.6353,-3.5699,-3.5493,0.0,0.0,0.0,0.0,0.0,0.0,0.0,0.0,0.0,-3.6119,-3.7441,-3.8102,-3.9019,-4.0983,-4.2378,-4.3883,-4.5828,-4.7352,-4.8561,-4.9307,-4.9153,-4.8937,-4.8887,-4.8803,-4.9073,-4.9994,-5.0642,-5.1065,-5.12,-5.2486,-5.2993,-5.2334,-5.2038,-5.1541,-5.0719,-4.9773,-4.8625,-4.7357,-4.6406,-4.5933,-4.5734,-4.4743,-4.4242,-4.4107,-4.3584,-4.3329,-4.3329,-4.306,-4.2282,-4.11,-3.9903,-3.9005,-3.8347,-3.7808,-3.6821,-3.5684,-3.5549,-3.5504,-3.5359,0.0,0.0,0.0,0.0,0.0,0.0,0.0,0.0,0.0,0.0,0.0,0.0,0.0,0.0,0.0,0.0,0.0,0.0,-3.063,-3.1614,-3.216,-3.2177,-3.2883,-3.3279,-3.3301,-3.3212,-3.2883,-3.2313,-3.2865,-3.2814,-3.2171,-3.2933,-3.3677,-3.4414,-3.5036,-3.6374,-3.8164,-3.7811,-3.8005,-3.8352,-3.6872,-3.5974,-3.5341,-3.3845,-3.3469,-3.3627,-3.3013,-3.2885,-3.3134,-3.4045,-3.4353,-3.4507,-3.5372,-3.5641,-3.5622,-3.5545,0.0,-3.5427,-3.5092,-3.466,-3.4409,-3.4805,-3.5542,-3.634,0.0,0.0,-3.834,-3.8524,-4.0267,-4.1846,-4.2121,-4.4599,-4.6673,-4.6929,-4.7737,-4.8407,-4.8659,-4.9167,-4.9325,-4.887,-4.8359,-4.8538,-4.9949,-5.0168,-5.049,-5.1166,-5.1978,-5.2401,-5.23,-5.2038,-5.1849,-5.176,-5.0149,-4.8702,-4.7272,-4.6412,-4.5647,-4.4816,-4.4474,-4.4003,-4.3449,-4.3359,-4.3329,-4.3269,-4.2102,-4.119,-4.0442,-3.9723,-3.9005,-3.8377,-3.8302,-3.7494,-3.6312,-3.5729,-3.5504,-3.5504,0.0,0.0,0.0,0.0,0.0,0.0,0.0,0.0,0.0,0.0,0.0,0.0,0.0,0.0,0.0,0.0,0.0,0.0,-3.1268,-3.2734,-3.3584,-3.3567,-3.4721,-3.536,-3.54,-3.4508,-3.4092,-3.4218,-3.3666,-3.324,-3.2949,-3.3998,-3.4675,-3.5031,-3.6272,-3.7553,-3.8797,-3.8985,-3.9191,-3.9362,-3.8836,-3.775,-3.6269,-3.4868,-3.3889,-3.3231,-3.2867,-3.2499,0.0,0.0,-3.3776,-3.4353,-3.5238,-3.5834,-3.6199,-3.6199,-3.5872,0.0,-3.4981,-3.5371,-3.5866,0.0,-3.6725,-3.79,-3.8707,-3.9148,-3.9662,-4.0598,-4.1974,-4.3277,-4.4213,-4.5883,-4.726,0.0,-4.8508,-4.9072,-4.9182,-4.8804,-4.8542,-4.8601,-4.7736,-4.7729,-4.922,-4.9399,-4.9949,-5.1133,-5.1894,-5.2503,-5.2976,-5.2925,-5.2491,-5.1635,-5.1688,-5.0806,-4.8828,-4.72,-4.6015,-4.5285,-4.4228,-4.3599,-4.3329,-4.3329,-4.3329,-4.3269,-4.1938,-4.122,-4.0891,-3.9843,-3.9245,-3.8945,-3.8542,-3.8063,-3.7464,-3.6447,-3.5833,-3.5504,0.0,0.0,0.0,0.0,0.0,0.0,0.0,0.0,0.0,0.0,0.0,0.0,0.0,0.0,0.0,0.0,0.0,0.0,0.0,-3.3051,-3.4081,-3.4483,-3.574,-3.6661,-3.7092,-3.5812,-3.527,-3.5622,-3.4686,-3.4131,-3.3956,-3.5241,-3.5832,-3.5899,-3.7288,-3.8342,-3.9137,-3.9447,-3.9698,-3.9877,-3.9713,-3.8471,-3.6575,-3.5191,-3.3804,-3.2545,-3.2295,-3.1833,0.0,0.0,-3.3141,-3.3987,-3.4872,-3.5718,-3.6372,-3.6372,-3.5844,-3.5286,-3.5341,-3.6107,-3.6932,-3.7237,-3.834,-3.957,-4.0377,-4.0726,-4.1222,-4.2396,-4.3259,-4.4176,-4.5351,-4.6416,-4.737,-4.8177,-4.9022,-4.9738,-5.0178,-4.8876,-4.8102,-4.8706,-4.708,-4.6516,-4.8013,-4.8833,-4.978,-5.1099,-5.1894,-5.2655,-5.3467,-5.3501,-5.3026,-5.1993,-5.299,-5.2534,-5.0529,-4.794,-4.633,-4.568,-4.4074,-4.3329,-4.3329,-4.3329,-4.3329,-4.3269,-4.1938,-4.1384,-4.128,-3.9963,-3.9424,-3.9364,-3.8871,-3.8556,-3.8257,-3.715,-3.6327,-3.5744,0.0,0.0,0.0,0.0,0.0,0.0,0.0,0.0,0.0,0.0,0.0,0.0,0.0,0.0,0.0,0.0,0.0,0.0,0.0,-3.1961,-3.3017,-3.4463,-3.5233,-3.6324,-3.7846,-3.7118,-3.6354,-3.5622,-3.6095,-3.5922,-3.5257,-3.6549,-3.7119,-3.7137,-3.7667,-3.833,-3.9083,-3.883,-3.9184,-3.9785,-3.8498,-3.713,-3.569,-3.4353,-3.2958,-3.1641,-3.0794,0.0,0.0,-3.1448,-3.2275,-3.3083,-3.3949,-3.4834,0.0,-3.5545,-3.5141,-3.5073,-3.6613,-3.667,-3.6883,-3.9203,-4.0414,-4.1258,-4.2047,-4.2818,-4.3387,-4.3442,-4.4103,-4.469,-4.4745,-4.6049,-4.737,-4.8177,-4.9022,-5.0123,-5.1701,-4.9808,-4.8598,-4.9481,-4.6367,-4.4792,0.0,-4.8607,-5.0292,-5.1163,-5.1894,-5.2655,-5.3467,-5.3501,-5.3501,-5.3416,-5.345,-5.3026,-5.1943,-4.8433,-4.6375,-4.568,-4.4074,-4.3329,-4.3329,-4.3329,-4.3329,-4.3269,-4.1938,-4.1384,-4.128,-3.9963,-3.9424,-3.9424,-3.9394,-3.8975,-3.8302,-3.7629,-3.6985,-3.6372,0.0,0.0,0.0,0.0,0.0,0.0,0.0,0.0,0.0,0.0,0.0,0.0,0.0,0.0,0.0,0.0,0.0,0.0,0.0,-3.236,-3.3262,-3.3751,-3.5471,-3.662,-3.7177,-3.7227,-3.7141,-3.6881,-3.6326,-3.6123,-3.6236,-3.6399,-3.6716,-3.7203,-3.7317,-3.7908,-3.878,-3.8169,-3.8766,-3.9981,-3.7875,-3.6681,-3.5951,-3.4333,-3.289,-3.166,0.0,0.0,0.0,-3.141,-3.2237,-3.3045,-3.393,-3.4795,-3.5479,-3.5289,-3.585,-3.6593,-3.6766,-3.7873,-3.9246,-4.0404,-4.1313,-4.2121,-4.291,-4.3296,-4.3332,-4.28,-4.2928,-4.2947,-4.2415,-4.3626,-4.4966,-4.5792,-4.7976,-4.9774,-5.0306,-5.024,-4.9573,-4.8121,-4.7409,0.0,0.0,0.0,0.0,-4.956,-4.9982,-5.0879,-5.2604,-5.2555,-5.2774,-5.3484,-5.3501,-5.2724,-5.1028,-4.9513,-4.7852,-4.6022,-4.4158,-4.3329,-4.3329,-4.2895,-4.2686,-4.2611,-4.1294,-4.0726,-4.0666,-3.9783,-3.9424,-3.9424,-3.9424,-3.899,-3.8317,-3.7659,-3.7015,-3.6387,0.0,0.0,0.0,0.0,0.0,0.0,0.0,0.0,0.0,0.0,0.0,0.0,0.0,0.0,0.0,0.0,0.0,0.0,0.0,0.0,-3.309,-3.3231,-3.488,-3.5825,-3.5785,-3.5948,-3.6007,-3.6022,-3.5261,-3.508,-3.541,-3.5747,-3.6135,-3.6573,-3.6131,-3.6526,-3.75,-3.657,-3.7285,-3.883,-3.6771,-3.5687,-3.5261,-3.4257,-3.2982,0.0,0.0,0.0,0.0,-3.1621,-3.2237,-3.3045,-3.393,-3.4795,-3.5561,-3.588,-3.6616,-3.7575,-3.8562,-3.9694,-4.088,-4.2062,-4.2561,-4.2855,-4.3369,-4.3277,-4.2837,-4.2047,-4.1644,-4.1203,-4.0396,-4.1313,-4.2561,-4.3663,-4.5847,-4.7921,-4.937,-4.9364,-4.9008,-4.8488,-4.8029,0.0,0.0,0.0,0.0,-4.8798,-4.9238,-5.0236,-5.2164,-5.2467,-5.2857,-5.3484,-5.3179,-5.2183,-5.0517,-4.9759,-4.8193,-4.569,-4.4158,-4.3389,-4.3299,-4.2417,-4.2132,-4.2374,-4.0965,-4.0262,-3.9993,-3.9334,-3.8916,-3.8706,-3.8706,-3.8437,-3.7958,-3.7315,-3.6821,-3.6387,0.0,0.0,0.0,0.0,0.0,0.0,0.0,0.0,0.0,0.0,0.0,0.0,0.0,0.0,0.0,0.0,0.0,0.0,0.0,0.0,0.0,-3.2913,-3.358,-3.3955,-3.3978,-3.363,-3.3442,-3.3475,-3.3202,-3.3094,-3.3087,-3.46,-3.5237,-3.5127,-3.4039,-3.4149,-3.5108,-3.4154,-3.4847,-3.6454,-3.5114,-3.4207,-3.3737,-3.4021,0.0,0.0,0.0,0.0,-3.2795,-3.2064,-3.2398,-3.3282,-3.4095,-3.4966,-3.5959,-3.7222,-3.7501,-3.815,-4.1704,-4.205,-4.1901,-4.4158,-4.4121,-4.3534,-4.3442,-4.2818,-4.2011,-4.1167,-4.0304,-3.946,0.0,0.0,-4.0359,-4.1974,-4.3039,-4.5057,-4.9022,-4.7627,-4.7333,0.0,0.0,0.0,0.0,0.0,0.0,-4.8944,0.0,-5.0625,-5.2145,-5.2921,-5.3362,-5.3433,-5.2436,-5.1442,-5.0483,-4.9261,-4.7373,-4.4946,-4.4262,-4.3698,-4.3304,-4.203,-4.1775,-4.2192,-4.0905,-3.9978,-3.932,-3.8661,-3.8003,-3.7404,-3.7404,-3.7389,-3.7285,-3.6701,-3.6462,-3.6357,0.0,0.0,0.0,0.0,0.0,0.0,0.0,0.0,0.0,0.0,0.0,0.0,0.0,0.0,0.0,0.0,0.0,0.0,0.0,0.0,0.0,0.0,0.0,0.0,-3.3687,-3.3944,-3.4067,-3.4049,-3.3158,-3.2621,-3.2444,-3.2426,-3.1824,-3.0646,-3.0355,-3.0392,-3.0782,-3.2279,-3.3666,-3.4787,0.0,-3.3165,-3.3726,0.0,0.0,0.0,0.0,0.0,-3.2968,-3.341,-3.4798,-3.6325,-3.6349,-3.7351,-3.8515,-3.8646,-3.9933,-4.1444,-4.2202,-4.3529,-4.469,-4.4709,-4.4562,-4.4085,-4.2873,-4.1992,-4.102,-3.9606,-3.8193,-3.6964,0.0,0.0,0.0,-4.1148,-4.4103,0.0,-4.926,-5.0086,0.0,-4.9939,0.0,-5.0013,-4.8555,-4.934,0.0,0.0,-4.8984,-4.9306,-5.1363,-5.1312,-5.1685,-5.2586,-5.1507,-5.0666,-5.019,-4.8678,-4.757,-4.69,-4.5997,-4.4887,-4.362,-4.2848,-4.1873,-4.0846,-4.0023,-3.9275,-3.8631,-3.8467,-3.8003,-3.7404,-3.7404,-3.7135,-3.6701,-3.6552,-3.6178,-3.5729,0.0,0.0,0.0,0.0,0.0,0.0,0.0,0.0,0.0,0.0,0.0,0.0,0.0,0.0,0.0,0.0,0.0,0.0,0.0,0.0,0.0,0.0,-3.2228,-3.2417,-3.2113,-3.2355,-3.2682,-3.3027,-3.1678,0.0,-3.1492,-3.0698,-3.0234,-3.005,-3.005,-3.0458,-3.1151,-3.181,0.0,0.0,0.0,0.0,0.0,0.0,0.0,0.0,0.0,-3.4606,-3.4504,0.0,0.0,-3.7484,-3.8384,-3.9293,-4.0253,-4.1408,-4.2705,-4.4003,-4.5182,-4.5957,-4.6324,-4.5883,-4.4966,-4.3754,-4.2139,-4.0891,-3.9588,-3.7973,-3.6615,0.0,-3.4633,-3.5999,0.0,0.0,0.0,0.0,-4.7355,-4.8944,-5.0067,0.0,-5.1801,0.0,-5.0417,-5.1409,-5.1679,0.0,-4.9526,-4.9684,-5.1595,-5.0815,-5.0951,-5.2247,-5.1011,-5.0105,-4.961,-4.8698,-4.8015,-4.7589,-4.6452,-4.5144,-4.3785,-4.2497,-4.1326,-4.0367,0.0,-3.9035,-3.8362,-3.8078,-3.7584,-3.6985,-3.6686,-3.6357,-3.6058,-3.6058,-3.5818,-3.5504,0.0,0.0,0.0,0.0,0.0,0.0,0.0,0.0,0.0,0.0,0.0,0.0,0.0,0.0,0.0,0.0,0.0,0.0,0.0,0.0,0.0,0.0,-3.2176,-3.1846,-3.0861,-3.0638,-3.0852,-3.1549,-2.9965,-2.9714,0.0,0.0,0.0,0.0,0.0,0.0,0.0,0.0,0.0,0.0,0.0,0.0,0.0,0.0,0.0,0.0,-3.5268,-3.5793,-3.616,-3.7046,-3.7502,-3.8042,-4.0221,-4.1132,-4.1894,-4.4568,-4.5449,-4.6141,-4.888,-4.8545,-4.7388,-4.7186,-4.5369,-4.3167,-4.1368,-3.9698,-3.8083,-3.6468,0.0,-3.4633,-3.3935,-3.4727,-3.584,-3.6764,0.0,-4.1579,-4.5178,-4.6543,-4.8508,-5.2052,-5.2834,-5.2936,-5.2614,-5.3112,-5.2892,-5.1569,-5.0811,-5.0929,-5.2111,-5.0873,-5.0674,-5.1826,-5.0623,-4.9644,-4.9018,-4.9001,-4.8576,-4.7786,-4.6413,-4.5162,-4.3959,-4.2081,-4.0901,-4.0437,0.0,0.0,-3.8347,-3.7778,-3.712,-3.6432,-3.5863,-3.5579,-3.5504,-3.5504,-3.5504,-3.5504,0.0,0.0,0.0,0.0,0.0,0.0,0.0,0.0,0.0,0.0,0.0,0.0,0.0,0.0,0.0,0.0,0.0,0.0,0.0,0.0,0.0,0.0,-3.4303,-3.4027,-3.4162,-3.2847,-3.2265,-3.2394,-3.1004,-3.0626,0.0,0.0,0.0,0.0,0.0,0.0,0.0,0.0,0.0,0.0,0.0,0.0,0.0,0.0,0.0,0.0,-3.6176,-3.5476,-3.4992,-3.7809,-3.9639,-4.0886,-4.1736,-4.3373,-4.5234,-4.6415,-4.7224,-4.8015,-4.9263,-4.937,-4.882,-4.7462,-4.581,-4.3718,-4.0781,-3.8854,0.0,0.0,-3.4596,-3.3972,-3.3825,-3.509,-3.6687,-3.8326,-4.0059,-4.2799,-4.7425,-4.7805,-4.917,0.0,-5.3084,0.0,0.0,0.0,0.0,0.0,0.0,0.0,-5.1412,-5.0606,-4.9961,-4.9565,-4.9334,-4.9137,-4.9001,-4.9001,-4.894,-4.8781,-4.7922,-4.6691,-4.5163,-4.4199,-4.2605,-4.067,0.0,0.0,-3.8377,-3.8257,-3.7524,-3.6477,-3.6357,-3.5983,-3.5504,-3.5504,-3.5504,-3.5504,0.0,0.0,0.0,0.0,0.0,0.0,0.0,0.0,0.0,0.0,-3.5621,-3.5588,0.0,0.0,0.0,0.0,0.0,0.0,0.0,0.0,0.0,0.0,0.0,-3.5381,-3.5314,-3.3936,0.0,0.0,0.0,0.0,0.0,0.0,0.0,0.0,0.0,0.0,0.0,0.0,0.0,0.0,0.0,0.0,0.0,0.0,0.0,0.0,0.0,-3.6098,-3.6373,-3.7947,-3.9721,-4.1557,-4.3054,-4.4342,-4.5608,-4.726,-4.8306,-4.9205,-5.049,-5.0527,-4.9811,-4.8141,-4.5902,-4.3222,-4.001,0.0,0.0,0.0,-3.4082,-3.3807,-3.3807,-3.4911,0.0,-3.7553,-3.9263,-4.1675,-4.5262,-4.6548,0.0,-5.1777,-5.2599,0.0,0.0,0.0,0.0,0.0,0.0,0.0,0.0,-5.0701,-4.9786,-4.9018,-4.9001,-4.9001,-4.9001,-4.9001,-4.8815,-4.8426,-4.7682,-4.6451,-4.49,-4.413,-4.2702,-4.0659,0.0,0.0,-3.8347,-3.7674,-3.703,-3.6447,-3.6118,-3.5789,-3.5504,-3.5504,-3.5504,-3.5504,0.0,0.0,0.0,0.0,0.0,0.0,0.0,-3.6282,-3.6654,-3.6161,-3.5996,-3.5828,-3.5616,-3.6336,0.0,0.0,0.0,0.0,0.0,0.0,0.0,0.0,0.0,0.0,0.0,0.0,0.0,0.0,0.0,0.0,0.0,0.0,0.0,0.0,0.0,0.0,0.0,0.0,0.0,0.0,0.0,0.0,0.0,0.0,0.0,0.0,0.0,-3.6863,-3.7598,-3.7951,-3.9206,-4.0965,-4.302,-4.414,-4.5076,-4.6985,-4.8471,-4.9848,-5.1334,-5.1279,-5.0398,-4.8728,-4.5883,-4.2653,-3.9441,-3.7459,0.0,-3.4156,-3.3807,-3.3807,-3.3807,-3.4484,-3.5353,0.0,-3.7825,-3.9829,-4.258,-4.4725,-4.7087,0.0,0.0,0.0,0.0,0.0,0.0,0.0,0.0,0.0,0.0,-5.0604,-4.9582,-4.9018,-4.9001,-4.9001,-4.9001,-4.8849,-4.8477,-4.7902,-4.6989,-4.5917,-4.4666,-4.3876,-4.2626,-4.0962,0.0,0.0,0.0,-3.7158,-3.6611,-3.6432,-3.5923,-3.5624,-3.5504,-3.5504,-3.5504,-3.5504,0.0,0.0,0.0,0.0,0.0,0.0,0.0,-3.6282,-3.7034,-3.7614,-3.7267,-3.6637,-3.5715,-3.5695,0.0,0.0,0.0,0.0,0.0,0.0,0.0,0.0,0.0,0.0,0.0,0.0,0.0,0.0,0.0,0.0,0.0,0.0,0.0,0.0,0.0,0.0,0.0,0.0,0.0,0.0,0.0,0.0,0.0,0.0,0.0,0.0,0.0,0.0,-3.6673,0.0,0.0,-3.9093,-4.0029,-4.2359,-4.4745,-4.4984,0.0,0.0,-5.0674,-5.0857,-5.0398,-4.8728,-4.5883,-4.2653,-3.9441,0.0,-3.5826,-3.4156,-3.3807,-3.3807,-3.3807,-3.389,-3.4382,-3.574,-3.6453,-3.8144,-4.1876,-4.3536,-4.6099,-5.0594,0.0,0.0,0.0,0.0,0.0,0.0,0.0,0.0,0.0,-4.9514,-4.9052,-4.9001,-4.9001,-4.9001,-4.9001,-4.8359,-4.7986,-4.7902,-4.6481,-4.5696,-4.5554,-4.4794,-4.3621,-4.2048,0.0,0.0,0.0,-3.7699,-3.6985,-3.6477,-3.6417,-3.6028,-3.5504,-3.5504,-3.5504,-3.5504,0.0,0.0,0.0,0.0,0.0,0.0,0.0,-3.6412,-3.7221,-3.7797,-3.8504,-3.8052,-3.5813,-3.5609,-3.5622,0.0,0.0,0.0,0.0,0.0,0.0,0.0,0.0,0.0,0.0,0.0,0.0,0.0,0.0,0.0,0.0,0.0,0.0,0.0,0.0,0.0,0.0,0.0,0.0,0.0,0.0,0.0,0.0,0.0,0.0,0.0,0.0,0.0,0.0,0.0,0.0,0.0,-3.8505,-3.9662,0.0,0.0,-4.5204,-4.7645,-4.8948,-4.9682,-4.9664,-4.8012,-4.5516,-4.2653,-3.9441,0.0,-3.6541,-3.4871,-3.4945,-3.5293,-3.5293,-3.5038,-3.5266,-3.662,-3.6466,0.0,-4.0534,-4.1705,-4.3744,0.0,0.0,0.0,0.0,0.0,0.0,0.0,0.0,0.0,0.0,0.0,-4.8798,-4.8359,-4.8359,-4.8122,-4.7682,-4.7378,-4.7022,-4.6583,-4.5991,-4.5229,-4.4316,-4.4012,-4.2975,0.0,0.0,0.0,0.0,-3.7241,-3.6516,-3.5893,-3.5893,-3.5729,-3.5504,-3.5504,-3.5504,-3.5504,0.0,0.0,0.0,0.0,0.0,0.0,-3.5622,-3.6412,-3.7072,-3.7185,-3.8355,-3.8533,-3.6941,-3.6067,-3.5735,-3.6161,0.0,0.0,0.0,0.0,0.0,0.0,0.0,0.0,0.0,0.0,0.0,0.0,0.0,0.0,0.0,0.0,0.0,0.0,0.0,0.0,0.0,0.0,0.0,0.0,0.0,0.0,0.0,0.0,0.0,0.0,0.0,0.0,0.0,0.0,0.0,-3.856,-3.7734,-3.8046,-3.9038,-4.0744,-4.3112,-4.548,-4.6856,-4.8031,-4.8508,-4.7113,-4.4929,-4.2415,0.0,0.0,-3.7092,-3.5679,-3.5881,-3.6285,-3.6295,-3.5987,-3.6072,-3.7088,-3.6622,-3.6933,-3.9222,-4.0358,0.0,0.0,0.0,0.0,0.0,0.0,0.0,0.0,0.0,0.0,0.0,0.0,-4.8443,-4.7936,-4.7699,-4.7327,-4.6802,-4.6583,-4.621,-4.5703,-4.5483,-4.4807,-4.3758,-4.3521,-4.2635,0.0,0.0,0.0,0.0,-3.6985,-3.6275,-3.5782,-3.5554,-3.5504,-3.5504,-3.5504,-3.5504,-3.5504,0.0,0.0,0.0,0.0,0.0,0.0,0.0,-3.6282,-3.6523,-3.5702,-3.6342,-3.7519,-3.9338,-3.7175,-3.6144,-3.7455,0.0,0.0,0.0,0.0,0.0,0.0,0.0,0.0,0.0,0.0,0.0,-3.7131,-3.6565,0.0,0.0,0.0,0.0,0.0,0.0,0.0,0.0,0.0,0.0,0.0,0.0,0.0,0.0,0.0,0.0,0.0,0.0,0.0,0.0,0.0,0.0,0.0,0.0,-3.8046,-3.8707,-3.8726,-4.1001,-4.3699,-4.4525,-4.592,-4.6948,-4.6122,-4.4103,-4.1882,0.0,-3.8634,-3.7257,-3.645,-3.6285,-3.6313,-3.6297,-3.6297,-3.638,-3.6654,-3.6714,0.0,-3.8164,-3.9783,0.0,0.0,0.0,0.0,0.0,0.0,0.0,0.0,0.0,0.0,0.0,0.0,-4.7919,-4.7919,-4.7192,-4.6802,-4.6786,-4.6075,-4.572,-4.5703,-4.4942,-4.4587,-4.4536,-4.3775,0.0,0.0,0.0,0.0,0.0,-3.7247,-3.6615,-3.6492,-3.5782,-3.5504,-3.5504,-3.5504,-3.5504,-3.5504,0.0,0.0,0.0,0.0,0.0,0.0,0.0,-3.5825,-3.5869,-3.5618,-3.5807,-3.6209,-3.6803,-3.6135,-3.5912,-3.6703,0.0,0.0,0.0,0.0,0.0,0.0,0.0,0.0,0.0,0.0,-3.853,-3.8187,-3.801,-3.7949,-3.7943,0.0,0.0,0.0,0.0,0.0,0.0,0.0,0.0,0.0,0.0,0.0,0.0,0.0,0.0,0.0,0.0,0.0,0.0,0.0,0.0,0.0,0.0,0.0,0.0,-3.8542,-4.0212,-4.2047,-4.2837,-4.3828,-4.4452,-4.3644,-4.2451,-4.1075,-3.9441,-3.8689,-3.8083,-3.7276,-3.7551,-3.7936,-3.7948,-3.7643,-3.7534,-3.7995,-3.7931,0.0,0.0,0.0,0.0,0.0,0.0,0.0,0.0,0.0,0.0,0.0,0.0,0.0,0.0,0.0,0.0,-4.7141,-4.643,-4.5805,-4.528,-4.5043,-4.4942,-4.4942,-4.4688,-4.4028,-4.3014,0.0,0.0,0.0,0.0,0.0,0.0,-3.7847,-3.71,-3.6554,-3.5782,-3.5504,-3.5504,-3.5504,-3.5504,-3.5504,0.0,0.0,0.0,0.0,0.0,0.0,0.0,-3.5622,-3.5611,-3.5593,-3.5599,-3.5605,-3.5588,-3.5605,-3.6129,-3.7388,0.0,0.0,0.0,0.0,0.0,0.0,0.0,0.0,0.0,-3.8707,-3.8854,-3.9153,-3.9153,-3.9135,-3.9148,-3.9148,-3.9001,0.0,0.0,0.0,0.0,0.0,0.0,0.0,0.0,0.0,-3.8707,0.0,0.0,0.0,0.0,0.0,0.0,0.0,0.0,0.0,0.0,0.0,0.0,0.0,-3.9423,-4.0377,-4.1185,-4.1974,-4.247,-4.1974,-4.124,0.0,-3.9386,-3.8927,-3.856,-3.8046,-3.834,-3.8652,-3.8438,-3.8279,-3.8187,-3.8151,-3.7972,-3.7918,0.0,0.0,0.0,0.0,0.0,0.0,0.0,0.0,0.0,0.0,0.0,0.0,0.0,0.0,0.0,-4.638,-4.5669,-4.506,-4.4587,-4.4282,-4.4147,-4.413,-4.3859,-4.3217,-4.2286,0.0,0.0,0.0,0.0,0.0,0.0,-3.8206,-3.7515,-3.698,-3.591,-3.5504,-3.5504,-3.5504,-3.5504,-3.5504,0.0,0.0,0.0,0.0,0.0,0.0,0.0,0.0,0.0,0.0,-3.5622,-3.5593,-3.5617,-3.5596,-3.6517,0.0,0.0,0.0,0.0,0.0,0.0,0.0,0.0,0.0,0.0,-3.8707,-3.9061,-3.98,-3.9855,-3.9905,-3.99,-3.9955,-3.9551,-3.8799,-3.8799,0.0,0.0,0.0,0.0,0.0,0.0,0.0,0.0,0.0,0.0,0.0,0.0,0.0,0.0,0.0,0.0,0.0,0.0,0.0,0.0,0.0,0.0,0.0,0.0,-4.0359,-4.0946,-4.0946,-4.0377,-3.9808,-3.9808,-3.9239,0.0,-3.8707,-3.8707,-3.8548,-3.8016,-3.829,-3.8327,-3.7361,-3.728,0.0,0.0,0.0,0.0,0.0,0.0,0.0,0.0,0.0,0.0,0.0,0.0,0.0,0.0,0.0,0.0,0.0,-4.4908,-4.4536,-4.4587,-4.3809,-4.342,-4.3403,-4.2642,-4.2269,-4.2185,0.0,0.0,0.0,0.0,0.0,0.0,-3.8486,-3.7879,-3.7648,-3.6133,-3.5569,-3.5504,-3.5504,-3.5504,-3.5504,0.0,0.0,0.0,0.0,0.0,0.0,0.0,0.0,0.0,0.0,0.0,-3.5588,-3.5593,-3.5616,0.0,0.0,0.0,0.0,0.0,0.0,0.0,0.0,0.0,0.0,0.0,-3.8707,-3.8799,-3.897,-3.9606,-3.99,-3.99,-4.0524,-4.0396,-3.9625,-3.9625,0.0,0.0,0.0,0.0,0.0,0.0,0.0,0.0,0.0,0.0,0.0,-3.8707,-3.8433,0.0,0.0,0.0,0.0,0.0,0.0,0.0,0.0,-3.8707,-3.8744,-3.8927,0.0,-3.9258,-3.9258,-3.9129,-3.8982,0.0,-3.8836,-3.8707,-3.8707,-3.8707,-3.8546,-3.798,-3.7918,-3.7775,-3.7255,-3.8139,-3.8587,0.0,0.0,0.0,0.0,0.0,0.0,0.0,0.0,0.0,0.0,0.0,0.0,0.0,0.0,0.0,0.0,-4.4103,-4.4002,-4.457,-4.3809,-4.342,-4.3403,-4.2642,-4.1999,0.0,0.0,0.0,0.0,0.0,0.0,0.0,-3.9032,-3.8302,-3.769,-3.6753,-3.6006,-3.5504,-3.5504,-3.5504,-3.5504,0.0,0.0,0.0,0.0,0.0,0.0,0.0,0.0,0.0,0.0,0.0,0.0,0.0,0.0,0.0,0.0,0.0,0.0,0.0,0.0,0.0,0.0,0.0,0.0,-3.8707,-3.8707,-3.9074,-3.9808,-4.0249,-4.0634,-4.1001,-4.146,-4.1222,-4.0432,-4.0065,-3.9662,0.0,0.0,0.0,0.0,-3.8332,0.0,0.0,0.0,0.0,0.0,-3.8016,-3.7826,0.0,-3.7895,-3.7826,-3.7614,0.0,0.0,0.0,0.0,-3.8016,-3.8016,-3.8016,-3.8368,-3.8707,-3.8707,-3.8707,-3.8707,-3.8707,-3.8707,-3.8707,-3.8707,-3.8707,-3.8541,-3.802,-3.7237,-3.6749,0.0,-3.7801,0.0,0.0,0.0,0.0,0.0,0.0,0.0,0.0,0.0,0.0,0.0,0.0,0.0,0.0,0.0,0.0,0.0,0.0,-4.3432,-4.3512,-4.2791,-4.2366,-4.2399,-4.1625,-4.1068,0.0,0.0,0.0,0.0,0.0,0.0,-4.002,-3.9262,-3.869,-3.8189,-3.7024,-3.6337,-3.5943,-3.5619,-3.5504,-3.5504,0.0,0.0,0.0,0.0,0.0,0.0,0.0,0.0,0.0,0.0,0.0,0.0,0.0,0.0,0.0,0.0,0.0,0.0,0.0,0.0,0.0,0.0,0.0,-3.8927,-3.8891,-3.8891,-3.9625,-4.1111,-4.124,-4.1644,-4.2304,-4.2433,-4.2047,-4.1258,-4.0304,-3.985,0.0,0.0,0.0,0.0,-3.779,0.0,0.0,0.0,0.0,0.0,0.0,0.0,0.0,-3.7173,-3.7152,-3.7097,-3.7173,0.0,0.0,0.0,0.0,0.0,-3.719,-3.7826,-3.8483,-3.8483,-3.8515,-3.8578,-3.8578,-3.8627,-3.8707,-3.8707,-3.8682,-3.851,-3.7908,-3.6738,0.0,0.0,0.0,0.0,0.0,0.0,0.0,0.0,0.0,0.0,0.0,0.0,0.0,0.0,0.0,0.0,0.0,0.0,0.0,0.0,0.0,0.0,-4.1974,-4.1476,-4.1205,-4.1194,-4.0476,-4.007,-4.007,0.0,0.0,0.0,0.0,0.0,-4.007,-3.9368,-3.9016,-3.8745,-3.7365,-3.6737,-3.6492,-3.5782,-3.5504,-3.5504,0.0,0.0,0.0,0.0,0.0,0.0,0.0,0.0,0.0,0.0,0.0,0.0,0.0,0.0,0.0,0.0,0.0,0.0,0.0,0.0,0.0,0.0,-3.8976,-3.995,-3.9717,-3.9717,-4.0175,-4.1111,-4.1791,-4.2176,-4.2304,-4.3002,-4.2892,-4.2047,-4.0561,-3.9634,-3.917,-3.8357,-3.7773,-3.7323,-3.7323,0.0,0.0,0.0,0.0,0.0,0.0,0.0,0.0,-3.7038,-3.6921,-3.6603,-3.7076,0.0,0.0,0.0,0.0,0.0,-3.719,-3.7285,-3.7451,-3.7451,-3.7738,-3.8013,-3.8013,-3.8382,-3.8707,-3.8707,-3.8692,-3.8413,-3.747,-3.7104,-3.6663,0.0,0.0,0.0,0.0,0.0,0.0,0.0,0.0,0.0,0.0,0.0,0.0,0.0,0.0,0.0,0.0,0.0,0.0,0.0,0.0,0.0,0.0,-4.0925,-4.1208,-4.1194,-4.0476,-4.007,-4.007,-4.007,0.0,0.0,0.0,0.0,-4.007,-3.9969,-3.9489,-3.8799,-3.7962,-3.7203,-3.6492,-3.5782,-3.5504,-3.5504,0.0,0.0,0.0,0.0,0.0,0.0,0.0,0.0,0.0,0.0,0.0,0.0,0.0,0.0,0.0,0.0,0.0,0.0,0.0,0.0,0.0,-3.8135,-3.9602,-4.0131,-3.9501,-4.0189,-4.0946,-4.1754,-4.1774,-4.221,-4.2947,-4.2873,-4.2514,-4.1813,-4.0595,-3.957,-3.8704,-3.8292,-3.76,-3.6764,0.0,0.0,0.0,0.0,0.0,0.0,0.0,0.0,0.0,0.0,-3.6165,-3.6011,-3.6249,0.0,0.0,0.0,0.0,0.0,-3.6316,-3.6316,-3.6419,-3.6894,-3.7259,-3.7613,-3.8042,-3.8008,-3.8056,-3.8728,-3.8776,-3.8474,0.0,0.0,-3.7547,0.0,0.0,0.0,0.0,0.0,0.0,0.0,0.0,0.0,0.0,0.0,0.0,0.0,0.0,0.0,0.0,0.0,0.0,0.0,0.0,0.0,0.0,-4.0459,-4.061,-4.061,-4.0273,-4.007,-4.007,-4.007,-4.007,0.0,0.0,-4.007,-4.007,-4.007,-3.9901,-3.9456,-3.8718,-3.8154,-3.77,-3.6508,-3.5831,-3.5504,0.0,0.0,0.0,0.0,0.0,0.0,0.0,0.0,0.0,0.0,0.0,0.0,0.0,0.0,0.0,0.0,0.0,0.0,0.0,0.0,-3.9147,-3.8438,-3.9863,-4.0352,-3.9644,-4.0525,-4.1376,-4.2159,-4.1849,-4.2249,-4.3321,-4.2498,-4.1832,-4.1281,-4.0414,-3.9361,-3.8201,-3.8144,-3.7382,-3.6224,0.0,0.0,0.0,0.0,0.0,0.0,0.0,0.0,0.0,0.0,0.0,0.0,0.0,0.0,0.0,-3.5622,-3.5622,-3.5622,-3.5622,-3.5622,-3.5757,-3.6366,-3.6782,-3.7246,-3.8156,-3.7905,-3.7782,-3.8885,-3.8859,0.0,0.0,-3.7702,0.0,0.0,0.0,0.0,0.0,0.0,0.0,0.0,0.0,0.0,0.0,0.0,0.0,0.0,0.0,0.0,0.0,0.0,0.0,0.0,0.0,0.0,0.0,-4.007,-4.007,-4.007,-4.007,-4.007,-4.007,-4.007,-4.007,-4.007,-4.007,-4.007,-4.007,-4.007,-4.007,-4.0003,-3.9026,-3.8391,-3.7947,-3.6796,-3.6006,-3.5504,0.0,0.0,0.0,0.0,0.0,0.0,0.0,0.0,0.0,0.0,0.0,0.0,0.0,0.0,0.0,0.0,0.0,0.0,0.0,0.0,-3.787,-3.5943,-3.9083,-4.0981,-4.123,-4.086,-4.1044,-4.1848,-4.2332,-4.2639,-4.2732,-4.194,-4.1279,-4.0712,-3.9909,-3.8866,-3.7652,-3.7585,-3.681,-3.565,-3.565,0.0,0.0,0.0,0.0,0.0,0.0,0.0,0.0,0.0,0.0,0.0,0.0,0.0,-3.5622,-3.5622,-3.5622,-3.5622,-3.5622,-3.5622,-3.5639,-3.569,-3.6062,-3.6839,-3.8235,-3.8397,-3.8443,-3.9204,-3.903,0.0,0.0,-3.7168,0.0,0.0,0.0,0.0,0.0,0.0,0.0,0.0,0.0,0.0,0.0,0.0,0.0,0.0,0.0,0.0,0.0,0.0,0.0,0.0,0.0,0.0,0.0,0.0,-4.007,-4.007,-4.007,-4.007,-4.007,-4.007,-4.007,-4.007,-4.007,-4.007,-4.007,-4.007,-4.007,-3.9969,-3.8455,-3.7005,-3.5749,-3.5619,-3.5569,-3.5504,0.0,0.0,0.0,0.0,0.0,0.0,0.0,0.0,0.0,0.0,0.0,0.0,0.0,0.0,0.0,0.0,0.0,0.0,0.0,0.0,-3.7291,-3.6861,-3.8271,-3.9439,-4.0398,-4.1018,-4.1527,-4.181,-4.2021,-4.1937,-4.156,-4.112,-4.0624,-4.0097,-3.9285,-3.8252,-3.7086,-3.7086,-3.648,-3.5622,-3.5622,-3.5622,0.0,0.0,0.0,0.0,0.0,0.0,0.0,0.0,-3.5622,-3.5622,-3.5622,-3.5622,-3.5622,-3.5622,-3.5622,-3.5622,-3.5622,-3.5622,-3.574,-3.6214,-3.614,-3.629,-3.7809,-3.7751,-3.7793,-3.9277,-3.8846,0.0,0.0,0.0,0.0,0.0,0.0,0.0,0.0,0.0,0.0,0.0,0.0,0.0,0.0,0.0,0.0,0.0,0.0,0.0,0.0,0.0,0.0,0.0,0.0,0.0,0.0,0.0,-4.007,-4.007,-4.007,-4.007,-4.007,-4.007,-4.007,-4.007,-4.007,-4.007,-4.007,-4.007,-4.007,-3.9969,-3.8918,-3.7552,-3.6195,-3.6168,-3.5867,-3.5504,0.0,0.0,0.0,0.0,0.0,0.0,0.0,0.0,0.0,0.0,0.0,0.0,0.0,0.0,0.0,0.0,0.0,0.0,0.0,-3.6349,-3.6865,-3.6939,-3.7563,-3.818,-3.8849,-3.9964,-4.0814,-4.1241,-4.1446,-4.1296,-4.0886,-4.0543,-4.0062,-3.9537,-3.8958,-3.7991,-3.6806,-3.7043,-3.6552,-3.5622,-3.5622,-3.5622,0.0,0.0,0.0,0.0,0.0,0.0,0.0,0.0,-3.5622,-3.5622,-3.5622,-3.5622,-3.5622,-3.5622,-3.5622,-3.5622,-3.5622,-3.5622,-3.574,-3.6282,-3.6197,-3.6332,-3.7618,-3.7499,-3.7674,-3.9465,-3.899,-3.7826,-3.6575,0.0,0.0,0.0,0.0,0.0,0.0,0.0,0.0,0.0,0.0,0.0,0.0,0.0,0.0,0.0,0.0,0.0,0.0,0.0,0.0,0.0,0.0,0.0,0.0,0.0,-3.9394,-3.9394,-3.9394,-3.9512,-3.9732,-3.9732,-3.9732,-3.9749,-3.9969,-4.007,-4.007,-4.007,-3.9969,-3.9631,-3.8874,-3.7732,-3.6565,-3.6338,-3.5915,-3.5504,0.0,0.0,0.0,0.0,0.0,0.0,0.0,0.0,0.0,0.0,0.0,0.0,0.0,0.0,0.0,0.0,0.0,0.0,-3.5622,-3.6349,-3.6417,-3.5656,-3.7077,-3.7533,-3.6806,-3.7516,-3.8616,-4.0054,-4.0607,-4.0886,-4.0886,-4.0141,-3.9525,-3.9005,-3.8988,-3.8176,-3.684,-3.7584,-3.7009,-3.5622,-3.5622,-3.5622,-3.5622,0.0,0.0,0.0,0.0,0.0,0.0,0.0,-3.5622,-3.5622,-3.5622,-3.5622,-3.5622,-3.5622,-3.5622,-3.5622,-3.5622,-3.5622,-3.5622,-3.5622,-3.6214,-3.6975,-3.7736,-3.7922,-3.8328,-3.9783,-3.9495,-3.8783,-3.8044,0.0,0.0,0.0,0.0,0.0,0.0,0.0,0.0,0.0,0.0,0.0,0.0,0.0,0.0,0.0,0.0,0.0,0.0,0.0,0.0,0.0,0.0,0.0,0.0,0.0,-3.7905,-3.7905,-3.7905,-3.8278,-3.8988,-3.8988,-3.8988,-3.9039,-3.9749,-4.007,-4.007,-4.007,-3.9615,-3.8838,-3.8072,-3.7311,-3.652,-3.5785,-3.5504,-3.5504,0.0,0.0,0.0,0.0,0.0,0.0,0.0,0.0,0.0,0.0,0.0,0.0,0.0,0.0,0.0,0.0,0.0,0.0,-3.5622,-3.5825,-3.5859,-3.5639,-3.6062,-3.6451,-3.6772,-3.7516,-3.8125,-3.8548,-3.9217,-3.9552,-3.9552,-3.933,-3.9438,-3.9732,-3.9225,-3.8464,-3.755,-3.7246,-3.6535,-3.5622,-3.5622,-3.5622,-3.5622,0.0,0.0,0.0,0.0,0.0,0.0,0.0,0.0,0.0,-3.5622,-3.5622,-3.5622,-3.5622,-3.5622,-3.5622,-3.5622,-3.5622,-3.5757,-3.6299,-3.6603,-3.711,-3.8379,-3.8667,-3.8937,0.0,-3.9511,-3.887,-3.8486,0.0,0.0,0.0,0.0,0.0,0.0,0.0,0.0,0.0,0.0,0.0,0.0,0.0,0.0,0.0,0.0,0.0,0.0,0.0,0.0,0.0,0.0,0.0,0.0,0.0,0.0,-3.7905,-3.7364,-3.777,-3.8971,-3.8464,-3.8514,-3.9005,-3.9225,-3.9326,-3.9294,-3.9289,-3.8826,-3.8068,-3.7246,-3.652,-3.577,-3.5604,-3.5504,-3.5504,0.0,0.0,0.0,0.0,0.0,0.0,0.0,0.0,0.0,0.0,-3.5622,0.0,0.0,0.0,0.0,0.0,0.0,0.0,0.0,0.0,-3.5622,-3.5622,-3.5622,-3.5842,-3.6315,-3.7077,-3.7313,-3.6992,-3.8058,-3.87,-3.8988,-3.8988,-3.9377,-4.0054,-3.9631,-3.8853,-3.7872,-3.7432,-3.6603,-3.5639,-3.596,-3.5893,-3.5656,0.0,0.0,0.0,0.0,0.0,0.0,0.0,0.0,0.0,-3.5622,-3.5622,-3.5622,-3.5622,-3.5622,-3.5622,-3.5622,-3.5842,-3.6197,-3.6671,-3.7229,-3.7973,-3.9157,0.0,0.0,0.0,-3.9748,-3.9377,0.0,0.0,0.0,0.0,0.0,0.0,0.0,0.0,0.0,0.0,0.0,0.0,0.0,0.0,0.0,0.0,0.0,0.0,0.0,0.0,0.0,0.0,0.0,0.0,0.0,0.0,0.0,0.0,-3.6535,-3.6958,-3.8108,-3.7669,-3.7702,-3.8125,-3.843,-3.8717,-3.9022,-3.8956,-3.8677,-3.8133,-3.7381,-3.6631,-3.5894,-3.5619,-3.5504,-3.5504,0.0,0.0,0.0,0.0,0.0,0.0,0.0,0.0,0.0,0.0,-3.5622,-3.5622,0.0,0.0,0.0,0.0,0.0,0.0,0.0,0.0,-3.5622,-3.5622,-3.5622,-3.569,-3.5825,-3.6383,-3.6366,-3.5723,-3.7127,-3.8142,-3.8785,-3.887,-3.9276,-3.9986,-3.9986,-3.9208,-3.7905,-3.7838,-3.6958,-3.5673,-3.64,-3.6248,-3.569,-3.64,0.0,0.0,0.0,0.0,0.0,0.0,0.0,0.0,-3.5622,-3.5622,-3.5622,-3.5622,-3.5622,-3.5622,-3.5622,-3.6129,-3.6705,-3.6857,-3.7956,-3.9174,-3.9834,-3.9986,-4.0003,-4.007,0.0,0.0,0.0,0.0,0.0,0.0,0.0,0.0,0.0,0.0,0.0,0.0,0.0,0.0,0.0,0.0,0.0,0.0,0.0,0.0,0.0,0.0,0.0,0.0,0.0,0.0,0.0,0.0,0.0,0.0,0.0,-3.5994,-3.6671,-3.6671,-3.6721,-3.6823,-3.7499,-3.8227,-3.8886,-3.8837,-3.8705,-3.8548,-3.7785,-3.703,-3.6261,-3.5612,-3.5415,-3.5429,0.0,0.0,0.0,0.0,0.0,0.0,0.0,0.0,0.0,0.0,0.0,0.0,0.0,0.0,0.0,0.0,0.0,0.0,0.0,0.0,-3.5622,-3.5622,-3.5622,-3.618,-3.7398,-3.64,-3.6079,-3.6535,-3.6857,-3.711,-3.728,-3.7872,-3.8531,-3.9225,-3.9225,-3.8734,-3.7872,-3.728,-3.6485,-3.5639,-3.5808,-3.5774,-3.5639,-3.5808,-3.5774,0.0,0.0,0.0,0.0,0.0,0.0,0.0,-3.5622,-3.5622,-3.5622,-3.5622,-3.5622,-3.5622,-3.5622,-3.574,-3.6163,-3.7364,-3.8345,-3.9039,-3.9191,-3.9225,-3.9394,-3.9952,-4.007,0.0,0.0,0.0,0.0,0.0,0.0,0.0,0.0,0.0,0.0,0.0,0.0,0.0,0.0,0.0,0.0,0.0,0.0,0.0,0.0,0.0,0.0,0.0,0.0,0.0,0.0,0.0,0.0,0.0,-3.5622,-3.5707,-3.5876,-3.5876,-3.6197,-3.6789,-3.6958,-3.7449,-3.8077,-3.7453,-3.6872,-3.6307,-3.5508,-3.4799,-3.4196,-3.4565,-3.4696,-3.4771,0.0,0.0,0.0,0.0,0.0,0.0,0.0,0.0,0.0,0.0,0.0,0.0,0.0,0.0,0.0,0.0,0.0,0.0,0.0,0.0,0.0,-3.5622,-3.5622,-3.5994,-3.6789,-3.6028,-3.5825,-3.6231,-3.6231,-3.6417,-3.6789,-3.7178,-3.777,-3.8464,-3.8464,-3.8058,-3.7347,-3.6941,-3.6332,-3.5656,-3.6028,-3.5943,-3.5656,-3.6028,-3.5943,-3.5622,-3.5622,0.0,0.0,0.0,0.0,0.0,0.0,0.0,-3.5622,-3.5622,-3.5622,-3.5622,-3.5622,-3.5893,-3.6451,-3.7618,0.0,-3.8903,-3.8548,-3.8464,-3.8599,-3.8989,0.0,0.0,0.0,0.0,0.0,0.0,0.0,0.0,0.0,0.0,0.0,0.0,0.0,0.0,0.0,0.0,0.0,0.0,0.0,0.0,0.0,0.0,0.0,0.0,0.0,0.0,-3.5622,-3.5622,-3.5622,-3.5622,-3.5622,-3.5622,-3.5622,-3.5622,-3.5842,-3.6231,-3.6231,-3.6654,-3.7317,-3.6522,-3.6026,-3.5639,-3.4873,-3.4163,-3.3574,-3.4233,-3.4472,-3.4577,0.0,0.0,0.0,0.0,0.0,0.0,0.0,0.0,0.0,0.0,0.0,0.0,0.0,0.0,0.0,0.0,0.0,0.0,0.0,0.0,0.0,0.0,-3.569,-3.574,-3.6011,-3.5757,-3.569,-3.5825,-3.5825,-3.6146,-3.6772,-3.6772,-3.7178,-3.7905,-3.777,-3.7364,-3.6772,-3.6637,-3.6214,-3.5673,-3.6315,-3.6197,-3.569,-3.6332,-3.618,-3.5622,-3.5622,-3.5622,-3.5622,-3.5622,0.0,0.0,0.0,0.0,-3.5622,-3.5622,-3.5622,-3.5622,-3.5622,-3.618,-3.6924,-3.755,-3.8159,0.0,-3.7855,-3.7719,-3.7689,0.0,0.0,0.0,0.0,0.0,0.0,0.0,0.0,0.0,0.0,0.0,0.0,0.0,0.0,0.0,0.0,0.0,0.0,0.0,0.0,0.0,0.0,0.0,0.0,0.0,0.0,0.0,-3.5622,-3.5622,-3.5622,-3.5622,-3.5622,-3.5622,-3.5622,-3.5622,-3.5622,-3.5622,-3.5622,-3.5994,-3.6523,-3.5808,-3.5424,-3.5288,-3.4601,-3.3826,-3.3245,-3.3903,-3.4128,-3.4247,0.0,0.0,0.0,0.0,0.0,0.0,0.0,0.0,0.0,0.0,0.0,0.0,0.0,0.0,0.0,0.0,0.0,0.0,-3.5622,0.0,0.0,-3.6586,-3.5977,-3.6248,-3.7567,-3.6299,-3.5943,-3.662,-3.662,-3.6671,-3.6772,-3.6772,-3.7178,-3.7872,-3.7212,-3.6874,-3.6738,-3.6062,-3.5723,-3.5622,-3.574,-3.5723,-3.5639,-3.574,-3.5707,-3.5622,-3.5622,-3.5622,-3.5622,-3.5622,-3.5622,0.0,0.0,0.0,-3.5622,-3.5622,-3.5622,-3.5622,-3.5622,0.0,-3.6806,0.0,-3.7009,-3.706,0.0,0.0,0.0,0.0,0.0,0.0,0.0,0.0,0.0,0.0,0.0,0.0,0.0,0.0,0.0,0.0,0.0,0.0,0.0,0.0,0.0,0.0,0.0,0.0,0.0,0.0,0.0,0.0,0.0,0.0,-3.5622,-3.5622,-3.5622,-3.5622,-3.5622,-3.5622,-3.5622,-3.5622,-3.5622,-3.5622,-3.5622,-3.5673,-3.5729,-3.5044,-3.4381,-3.3818,-3.3123,-3.2435,-3.1884,-3.2542,-3.2781,-3.2961,0.0,0.0,0.0,0.0,0.0,0.0,0.0,0.0,0.0,0.0,0.0,0.0,0.0,0.0,0.0,-3.5622,-3.5622,-3.5622,-3.5622,-3.5622,-3.5774,-3.6113,-3.5808,-3.5943,-3.662,-3.5977,-3.5791,-3.6129,-3.6129,-3.6569,-3.7398,-3.6975,-3.7178,-3.7872,-3.711,-3.6772,-3.6721,-3.5943,-3.5362,-3.5052,-3.5052,-3.5052,-3.5005,-3.4592,-3.4704,-3.5005,-3.4592,-3.4496,-3.456,-3.4894,-3.5052,-3.5098,-3.547,0.0,0.0,0.0,-3.5318,-3.4891,-3.4559,-3.5614,-3.6608,0.0,-3.6185,-3.6671,-3.6231,0.0,0.0,0.0,0.0,0.0,0.0,0.0,0.0,0.0,0.0,0.0,0.0,0.0,0.0,0.0,0.0,0.0,0.0,0.0,0.0,0.0,0.0,0.0,0.0,-3.5622,-3.5622,-3.5622,-3.5622,0.0,-3.5622,-3.5622,-3.5622,-3.5622,-3.5622,-3.5622,-3.5622,-3.5622,-3.5622,-3.5622,-3.5622,-3.5622,-3.5515,-3.4496,-3.3887,-3.3479,-3.2422,-3.1796,-3.1556,-3.2273,-3.2512,-3.2647,0.0,0.0,0.0,0.0,0.0,0.0,0.0,0.0,0.0,0.0,0.0,0.0,0.0,0.0,0.0,0.0,-3.5622,-3.5622,-3.5622,-3.5622,-3.5622,-3.5622,-3.5622,-3.5622,-3.5622,-3.5622,-3.5622,-3.5622,-3.5808,-3.6603,-3.7889,-3.7516,-3.7736,-3.8413,-3.7483,-3.6848,-3.6471,-3.5883,-3.5124,-3.4333,-3.4333,-3.4333,-3.4284,-3.3786,-3.3937,-3.4284,-3.3786,-3.3582,-3.3684,-3.4186,-3.4333,-3.4431,-3.4958,-3.5115,0.0,0.0,0.0,-3.4435,-3.4093,0.0,-3.6004,-3.5088,-3.5689,-3.6332,0.0,0.0,0.0,0.0,0.0,0.0,0.0,0.0,0.0,0.0,0.0,0.0,0.0,0.0,0.0,0.0,0.0,0.0,0.0,0.0,0.0,0.0,0.0,0.0,0.0,-3.5622,-3.5622,-3.5622,-3.5622,-3.5622,-3.5622,-3.5622,-3.5622,-3.5622,-3.5622,-3.5622,-3.5622,-3.5622,-3.5622,-3.5622,-3.5622,-3.5622,-3.5515,-3.435,-3.3836,-3.3735,-3.2296,-3.1796,-3.1799,-3.2137,-3.2273,-3.2362,0.0,0.0,0.0,0.0,0.0,0.0,0.0,0.0,0.0,0.0,0.0,0.0,-3.5622,-3.5622,-3.5622,-3.5622,-3.5622,-3.5622,-3.5622,-3.5622,-3.5622,-3.5622,-3.5622,0.0,-3.5622,-3.5622,-3.5622,-3.5622,-3.6349,-3.7127,-3.7922,-3.8582,-3.9276,-3.9901,-3.8481,-3.7064,-3.5729,-3.5696,-3.4905,-3.3633,-3.3633,-3.3633,-3.3633,-3.3582,-3.3633,-3.3633,-3.3582,-3.3582,-3.3582,-3.3633,-3.3633,-3.3633,-3.3684,0.0,0.0,0.0,0.0,0.0,0.0,-3.5053,0.0,-3.5391,-3.5611,0.0,0.0,0.0,0.0,0.0,0.0,0.0,0.0,0.0,0.0,0.0,0.0,0.0,0.0,0.0,0.0,0.0,0.0,0.0,0.0,0.0,0.0,0.0,0.0,0.0,-3.5622,-3.5622,-3.5622,-3.5622,-3.5622,-3.5622,-3.5622,-3.5622,-3.5622,-3.5622,-3.5622,-3.5622,-3.5622,-3.5622,-3.5622,-3.5622,-3.5622,-3.5622,-3.5577,-3.4847,-3.4528,-3.4431,-3.3093,-3.2532,-3.2437,-3.1784,-3.1526,-3.1616,0.0,0.0,0.0,0.0,0.0,0.0,0.0,0.0,0.0,0.0,0.0,0.0,0.0,-3.4704,-3.4941,-3.4941,-3.5362,-3.5622,-3.5622,-3.5622,-3.5622,-3.5622,-3.5622,-3.5622,-3.5622,-3.5622,-3.5622,-3.5622,-3.5893,-3.6434,-3.7195,-3.7449,-3.7973,-3.8684,-3.807,-3.7284,-3.6322,-3.5405,-3.4186,-3.2933,-3.2933,-3.2933,-3.2895,-3.2407,-3.2571,0.0,0.0,0.0,0.0,0.0,0.0,0.0,0.0,0.0,0.0,0.0,0.0,-3.4399,0.0,0.0,0.0,-3.4868,-3.4947,-3.503,0.0,0.0,0.0,0.0,0.0,0.0,0.0,0.0,0.0,0.0,0.0,0.0,0.0,0.0,0.0,0.0,0.0,0.0,0.0,0.0,0.0,0.0,0.0,0.0,-3.5622,-3.5622,-3.5622,-3.5622,-3.5622,-3.5622,-3.5622,-3.5622,-3.5622,-3.5622,-3.5622,-3.5622,-3.5622,-3.5622,-3.5622,-3.5622,-3.5622,-3.5622,-3.556,-3.4894,-3.4576,-3.4479,-3.313,-3.2586,-3.2492,-3.1796,-3.1482,-3.1511,0.0,0.0,0.0,0.0,0.0,0.0,0.0,0.0,0.0,0.0,0.0,0.0,0.0,0.0,-3.4333,-3.4576,-3.5005,-3.5362,-3.5577,-3.5622,-3.5622,-3.5622,-3.5622,-3.5622,-3.5622,-3.5622,-3.5622,-3.5622,-3.5362,-3.5639,-3.6441,-3.6185,-3.6488,-3.7203,-3.691,-3.6486,-3.6032,-3.483,-3.3505,-3.2216,-3.2216,-3.2216,-3.2176,-3.1697,0.0,0.0,0.0,0.0,0.0,0.0,0.0,0.0,0.0,0.0,0.0,0.0,0.0,0.0,-3.308,0.0,0.0,0.0,0.0,-3.4692,0.0,0.0,0.0,0.0,0.0,0.0,0.0,0.0,0.0,0.0,0.0,0.0,0.0,0.0,0.0,0.0,0.0,0.0,0.0,0.0,0.0,0.0,0.0,0.0,-3.5622,-3.5622,-3.5622,-3.5622,-3.5622,-3.5622,-3.5622,-3.5622,-3.5622,-3.5622,-3.5622,-3.5622,-3.5622,-3.5622,-3.547,-3.525,-3.525,-3.525,-3.5205,-3.4778,-3.4444,-3.4103,-3.3051,-3.2586,-3.2492,-3.1796,-3.1482,-3.1482,0.0,0.0,0.0,0.0,0.0,0.0,0.0,0.0,0.0,-3.2586,0.0,0.0,0.0,0.0,0.0,-3.456,-3.4592,-3.4847,-3.5515,-3.5532,-3.5532,-3.5532,-3.5532,-3.5532,-3.5532,-3.5532,-3.5532,-3.5532,-3.4894,-3.4955,-3.5646,-3.4972,-3.5027,-3.5722,-3.4955,-3.4635,-3.4569,-3.3952,-3.2828,-3.1482,0.0,-3.1482,-3.1482,0.0,0.0,0.0,-3.1482,-3.1482,0.0,-3.1482,0.0,0.0,0.0,0.0,0.0,0.0,0.0,-3.3461,0.0,0.0,0.0,0.0,0.0,0.0,0.0,0.0,0.0,0.0,0.0,0.0,0.0,0.0,0.0,0.0,0.0,0.0,0.0,0.0,0.0,0.0,0.0,0.0,0.0,0.0,0.0,0.0,0.0,0.0,-3.5622,-3.5622,-3.5622,-3.5622,-3.5622,-3.5622,-3.5622,-3.5622,-3.5622,-3.5622,-3.5622,-3.5622,-3.5622,-3.5605,-3.5199,-3.4523,-3.4506,-3.4489,-3.4462,-3.4545,-3.4164,-3.3479,-3.2825,-3.2586,-3.2492,-3.1796,-3.1482,-3.1482,0.0,0.0,0.0,0.0,0.0,0.0,0.0,0.0,0.0,0.0,0.0,0.0,-3.2104,-3.2571,-3.335,-3.451,-3.4177,-3.3937,-3.4137,-3.4153,-3.4153,-3.4153,-3.4153,-3.4153,-3.4153,0.0,0.0,0.0,0.0,0.0,0.0,0.0,0.0,-3.4174,-3.3513,-3.3161,-3.317,-3.2955,0.0,-3.1482,-3.1482,-3.1482,0.0,0.0,0.0,0.0,0.0,-3.1482,-3.1482,0.0,-3.1482,-3.145,0.0,0.0,0.0,0.0,0.0,-3.2966,-3.3446,0.0,0.0,0.0,0.0,0.0,0.0,0.0,0.0,0.0,0.0,0.0,0.0,0.0,0.0,0.0,0.0,0.0,0.0,0.0,0.0,0.0,0.0,0.0,0.0,0.0,0.0,0.0,0.0,-3.5622,-3.5622,-3.5622,-3.5622,-3.5622,-3.5622,-3.5622,-3.5622,-3.5622,-3.5622,-3.5622,-3.5622,-3.5622,-3.5605,-3.5064,-3.4979,-3.5284,-3.4726,-3.395,-3.3084,-3.3614,-3.3999,-3.4152,-3.3066,-3.2586,-3.2492,-3.1796,-3.1482,-3.1482,0.0,0.0,0.0,0.0,0.0,0.0,0.0,0.0,0.0,0.0,0.0,0.0,-3.1482,-3.2152,-3.2884,-3.3675,-3.3419,-3.3287,-3.3582,-3.3582,-3.3582,-3.3582,-3.3582,-3.3582,-3.3582,0.0,0.0,0.0,0.0,0.0,0.0,0.0,0.0,-3.2718,0.0,0.0,-3.2135,0.0,0.0,0.0,-3.1482,0.0,0.0,-3.1482,-3.1482,0.0,0.0,0.0,-3.1482,-3.1482,-3.1482,0.0,0.0,0.0,0.0,0.0,0.0,-3.2687,-3.3042,-3.3321,-3.3646,0.0,0.0,0.0,0.0,-3.2656,0.0,0.0,0.0,0.0,0.0,0.0,0.0,0.0,0.0,0.0,0.0,0.0,0.0,0.0,0.0,0.0,0.0,0.0,0.0,0.0,-3.5622,-3.5622,-3.5622,-3.5622,-3.5622,-3.5622,-3.5622,-3.5622,-3.5622,-3.5622,-3.5622,-3.5622,-3.5622,-3.5622,-3.5605,-3.5165,-3.4861,-3.4675,-3.4235,-3.3607,-3.284,-3.2673,-3.2702,-3.2834,-3.2028,-3.19,-3.2064,-3.164,-3.1482,-3.1482,0.0,0.0,0.0,0.0,0.0,0.0,0.0,0.0,0.0,0.0,-3.1482,-3.1497,-3.1571,-3.2093,-3.2475,-3.2592,-3.2523,-3.2734,-3.3339,-3.3375,-3.3375,-3.3375,-3.3375,-3.3375,0.0,0.0,0.0,0.0,0.0,0.0,0.0,0.0,0.0,0.0,0.0,0.0,0.0,0.0,0.0,-3.1377,-3.1437,-3.1482,0.0,0.0,-3.1482,-3.1482,-3.1482,-3.1482,-3.1482,-3.1482,-3.1482,0.0,0.0,0.0,0.0,0.0,-3.1521,-3.2447,-3.2507,-3.2981,-3.3473,0.0,0.0,0.0,-3.2223,-3.1326,0.0,0.0,0.0,0.0,0.0,0.0,0.0,0.0,0.0,0.0,0.0,0.0,0.0,0.0,0.0,0.0,0.0,0.0,0.0,-3.5622,-3.5622,-3.5622,-3.5622,-3.5622,-3.5622,-3.5622,-3.5622,-3.5622,-3.5622,-3.5622,-3.5622,-3.5622,-3.5622,-3.5622,-3.556,-3.5453,-3.4692,-3.3508,-3.3355,-3.3229,-3.3094,-3.1731,-3.1052,-3.082,-3.0667,-3.0968,-3.1482,-3.1482,-3.1482,-3.1482,0.0,0.0,0.0,0.0,0.0,0.0,0.0,0.0,0.0,0.0,-3.1482,-3.1734,-3.2273,-3.1958,-3.1942,-3.2449,-3.2056,-3.1796,-3.1894,-3.1894,-3.1894,-3.1894,-3.1894,-3.1894,0.0,0.0,0.0,0.0,0.0,0.0,0.0,0.0,0.0,0.0,0.0,0.0,0.0,0.0,0.0,-3.0746,-3.13,0.0,-3.1482,-3.1482,-3.1482,-3.1482,-3.1482,-3.1482,-3.1482,-3.1482,-3.1482,-3.1452,0.0,0.0,0.0,0.0,0.0,0.0,0.0,0.0,0.0,0.0,0.0,0.0,-3.0816,-3.0259,-2.9828,0.0,0.0,0.0,0.0,0.0,0.0,0.0,0.0,0.0,0.0,0.0,0.0,0.0,0.0,0.0,0.0,0.0,-3.5622,-3.5622,-3.5622,-3.5622,-3.5622,-3.5622,-3.5622,-3.5622,-3.5622,-3.5622,-3.5622,-3.5622,-3.5622,-3.5622,-3.5622,-3.5622,-3.5588,-3.4387,-3.3998,-3.4218,-3.3017,-3.2253,-3.1735,-3.0953,-3.1566,-3.2879,-3.1672,-3.1329,-3.1482,-3.1482,-3.1482,-3.1482,0.0,0.0,0.0,0.0,0.0,0.0,0.0,0.0,0.0,-3.1482,-3.1824,-3.2018,-3.2018,-3.2018,-3.2018,-3.2018,-3.1661,-3.1482,-3.1482,-3.1482,0.0,-3.1482,-3.1482,0.0,0.0,0.0,0.0,0.0,0.0,0.0,0.0,0.0,0.0,0.0,0.0,0.0,0.0,0.0,-3.1135,-3.0567,-3.1255,0.0,-3.1482,-3.1482,-3.1482,-3.1482,-3.1482,-3.1482,-3.1482,-3.1482,-3.1482,0.0,0.0,-3.1482,-3.1482,0.0,-3.1482,-3.164,0.0,0.0,0.0,-3.2473,0.0,0.0,0.0,-2.9531,0.0,0.0,0.0,0.0,0.0,0.0,0.0,0.0,0.0,0.0,0.0,0.0,0.0,0.0,0.0,0.0,0.0,0.0,-3.5622,-3.5622,-3.5622,-3.5622,-3.5622,-3.5622,-3.5622,-3.5622,-3.5622,-3.5622,-3.5622,-3.5622,-3.5622,-3.5622,-3.5622,-3.5622,-3.5543,-3.4844,-3.4506,-3.4421,-3.299,-3.223,-3.1841,-3.048,-3.0816,-3.2006,-3.0913,-3.0694,-3.1061,-3.1347,-3.1482,-3.1482,-2.7657,0.0,0.0,0.0,0.0,0.0,0.0,0.0,0.0,-3.1467,-3.2108,-3.2317,-3.1779,-3.2198,-3.2407,-3.2123,-3.1691,-3.1586,0.0,0.0,0.0,0.0,0.0,-3.1482,0.0,-3.1482,0.0,0.0,0.0,0.0,0.0,0.0,0.0,0.0,0.0,0.0,0.0,0.0,0.0,-3.0567,0.0,-3.1482,-3.1482,-3.1482,-3.1482,-3.1482,-3.1482,-3.1482,-3.1482,-3.1482,0.0,-3.1482,-3.1482,-3.1482,0.0,0.0,0.0,0.0,0.0,0.0,0.0,0.0,0.0,-3.0372,0.0,0.0,0.0,0.0,0.0,0.0,0.0,0.0,0.0,0.0,0.0,0.0,0.0,0.0,0.0,0.0,0.0,0.0,0.0,0.0,-3.547,-3.5605,-3.5622,-3.5622,-3.5622,-3.5622,-3.5622,-3.5622,-3.5622,-3.5622,-3.5622,-3.5622,-3.5622,-3.5622,-3.5622,-3.5622,-3.5622,-3.547,-3.5064,-3.4438,-3.2946,-3.2281,-3.2138,-3.0055,-2.9612,-3.0138,-2.972,-2.9883,-3.0417,-3.1091,-3.1345,-3.136,-2.7433,-2.7855,0.0,0.0,0.0,0.0,0.0,0.0,0.0,-3.1409,-3.2108,-3.2482,-3.2407,0.0,0.0,-3.4038,0.0,0.0,-3.32,0.0,0.0,0.0,0.0,0.0,-3.1482,-3.1482,0.0,0.0,0.0,0.0,0.0,0.0,0.0,0.0,-3.0313,0.0,0.0,0.0,-3.0567,0.0,-3.1255,-3.1482,0.0,-3.1482,-3.1482,-3.1482,-3.1482,-3.1482,-3.1482,0.0,-3.1482,-3.1482,0.0,-3.1482,-3.1482,0.0,0.0,0.0,0.0,0.0,0.0,0.0,-3.1072,0.0,0.0,0.0,0.0,0.0,0.0,0.0,0.0,0.0,0.0,0.0,0.0,0.0,0.0,0.0,0.0,0.0,0.0,0.0,0.0,0.0,0.0,-3.5571,-3.5622,-3.5622,-3.5622,-3.5622,-3.5622,-3.5622,-3.5622,-3.5622,-3.5622,-3.5622,-3.5622,-3.5622,-3.5622,-3.5622,-3.5605,-3.4928,-3.4573,-3.4404,-3.2397,-3.1523,-3.1369,-2.9405,-2.8652,-2.8805,-2.9311,-2.9581,-2.9759,-3.0387,-3.0612,-3.0717,-2.679,-2.7351,0.0,0.0,0.0,0.0,0.0,0.0,0.0,-3.0881,-3.1783,0.0,0.0,0.0,0.0,0.0,0.0,-3.2332,0.0,0.0,-3.1482,0.0,0.0,0.0,0.0,0.0,-3.1482,0.0,-3.1482,0.0,0.0,0.0,0.0,0.0,-3.0357,0.0,-3.0537,0.0,-3.0866,0.0,0.0,0.0,0.0,-3.1482,-3.1482,-3.1482,-3.1482,-3.1482,-3.1482,0.0,-3.1482,0.0,0.0,0.0,0.0,0.0,0.0,0.0,0.0,0.0,0.0,0.0,0.0,0.0,-3.0597,0.0,-2.9594,0.0,0.0,0.0,0.0,0.0,0.0,0.0,0.0,0.0,0.0,0.0,0.0,0.0,0.0,0.0,0.0,0.0,0.0,0.0,0.0,-3.4962,-3.4962,-3.5385,-3.5622,-3.5622,-3.5622,-3.5622,-3.5622,-3.5622,-3.5622,-3.5622,-3.5622,-3.5622,-3.5605,-3.5301,-3.4912,-3.4378,-3.2373,-3.1459,-3.1194,-2.8903,-2.8189,-2.8494,-2.8396,-2.8656,-2.9086,-2.9729,-2.9968,-3.0013,-2.6088,-2.6857,-2.7351,0.0,0.0,0.0,0.0,0.0,0.0,0.0,0.0,0.0,-3.2766,-3.2946,0.0,0.0,-3.3544,-3.3051,0.0,0.0,-3.1719,0.0,0.0,0.0,0.0,0.0,0.0,0.0,0.0,0.0,0.0,0.0,0.0,0.0,0.0,-3.0178,-3.0537,0.0,-3.1076,-3.0836,-3.133,-3.1482,-3.1482,-3.1482,-3.1482,-3.1482,-3.1482,-3.1482,-3.1482,-3.1482,-3.1482,0.0,-3.1482,0.0,0.0,0.0,0.0,0.0,-3.0866,0.0,0.0,0.0,0.0,0.0,0.0,0.0,0.0,0.0,0.0,0.0,0.0,0.0,0.0,0.0,0.0,0.0,0.0,0.0,0.0,0.0,0.0,0.0,0.0,0.0,0.0,0.0,-3.3897,0.0,-3.4201,-3.4912,-3.5318,-3.5318,-3.5504,-3.5622,-3.5622,-3.5622,-3.5622,-3.5622,-3.5622,-3.5622,-3.5622,-3.5622,-3.5318,-3.4699,-3.2905,-3.1984,-3.1567,-2.9515,-2.8609,-2.8494,-2.824,-2.8333,-2.8667,-2.9146,-2.943,-2.9579,-2.5423,-2.6143,-2.6521,0.0,0.0,0.0,0.0,0.0,0.0,0.0,0.0,0.0,0.0,0.0,0.0,0.0,0.0,-3.4412,-3.4412,0.0,-3.2198,0.0,0.0,-3.1482,0.0,0.0,0.0,0.0,0.0,0.0,0.0,0.0,0.0,0.0,-2.9205,-2.9355,-3.0507,-3.0522,-3.0911,-3.1437,-3.1467,-3.1482,-3.1482,0.0,-3.1482,-3.1482,-3.1482,0.0,0.0,-3.1482,-3.1482,0.0,0.0,0.0,0.0,0.0,0.0,0.0,0.0,0.0,0.0,-3.1482,0.0,0.0,0.0,0.0,-3.0492,0.0,0.0,0.0,0.0,0.0,-2.8143,-2.6826,0.0,0.0,0.0,0.0,0.0,0.0,0.0,0.0,0.0,0.0,0.0,0.0,-3.3423,0.0,-3.344,-3.4134,-3.4523,-3.4523,-3.5233,-3.5622,-3.5622,-3.5622,-3.5622,-3.5622,-3.5622,-3.5622,-3.5622,-3.5622,-3.5605,-3.5493,-3.4143,-3.3123,-3.2418,-3.1771,-3.0307,-2.8573,-2.9257,-2.9169,-2.8607,-2.8622,-2.9026,-2.9579,-2.5008,-2.5523,-2.5887,0.0,0.0,0.0,0.0,-2.9192,0.0,0.0,0.0,0.0,0.0,-3.5684,-3.6148,0.0,0.0,-3.516,-3.516,-3.3903,0.0,0.0,0.0,-3.2422,0.0,0.0,0.0,0.0,0.0,0.0,0.0,0.0,0.0,0.0,0.0,-2.931,0.0,0.0,0.0,0.0,0.0,-3.1255,-3.0911,0.0,0.0,-3.1422,-3.1016,-3.115,0.0,-3.1001,-3.115,-3.1482,-3.1482,-3.1317,-3.115,-3.0911,-3.1001,0.0,0.0,0.0,-3.1482,-3.1482,0.0,0.0,0.0,0.0,0.0,0.0,0.0,0.0,0.0,0.0,-2.8308,-2.7395,-2.7475,0.0,0.0,0.0,0.0,0.0,0.0,0.0,0.0,0.0,0.0,-3.1837,-3.2027,0.0,0.0,-3.3812,-3.4489,-3.4489,-3.5233,-3.5622,-3.5622,-3.5622,-3.5622,-3.5622,-3.5622,-3.5622,-3.5622,-3.5622,-3.5351,-3.4783,-3.3017,-3.2096,-3.1632,-2.9721,-2.9046,-2.9159,-2.9022,-2.9298,-2.9699,-2.8397,-2.8353,-2.8936,-2.4782,0.0,0.0,0.0,0.0,0.0,0.0,0.0,0.0,0.0,-3.3245,0.0,-3.6372,0.0,-3.6656,0.0,-3.6327,-3.5654,-3.5175,-3.4322,0.0,-3.2886,-3.3036,0.0,0.0,0.0,0.0,0.0,0.0,-3.0971,0.0,0.0,0.0,0.0,0.0,-2.9056,-2.9864,0.0,-3.0627,0.0,0.0,-3.0567,0.0,0.0,-3.0836,0.0,0.0,-3.0851,-3.0806,-3.0582,-3.0806,-3.1165,-3.1165,-3.1165,-3.1135,-3.0926,-3.1001,-3.112,-3.0926,-3.1195,0.0,0.0,-3.1482,0.0,-3.1225,0.0,0.0,0.0,0.0,0.0,0.0,0.0,0.0,-2.7679,-2.7625,-2.7625,0.0,-2.7625,0.0,0.0,0.0,0.0,0.0,0.0,-2.9316,-3.0477,-3.0635,-3.0925,0.0,0.0,-3.3624,-3.41,-3.4827,-3.5351,-3.5622,-3.5622,-3.5622,-3.5622,-3.5622,-3.5622,-3.5622,-3.5622,-3.52,-3.4437,-3.2941,-3.1974,-3.132,-2.9704,-2.9046,-2.9144,-2.9022,-2.9282,-2.9669,-2.8412,-2.8218,-2.8607,0.0,0.0,0.0,0.0,-2.5598,0.0,0.0,0.0,-3.1026,0.0,-3.3711,-3.5848,-3.6507,-3.6582,-3.6567,-3.6537,-3.6507,0.0,-3.4651,-3.4547,0.0,0.0,-3.2931,-3.2557,-3.2467,0.0,0.0,0.0,0.0,0.0,0.0,0.0,0.0,0.0,-2.8547,0.0,-2.8682,-2.9894,-3.0088,-2.9579,-2.9579,-2.9564,-2.9535,-2.9564,0.0,-2.9639,-3.0926,-3.0612,-2.9669,-3.0223,-3.0432,-3.0462,-3.0462,-3.0477,-3.0627,-3.1255,-3.1016,-3.0687,-3.1315,-3.1422,-3.1422,-3.1422,0.0,0.0,0.0,0.0,-3.1513,0.0,0.0,0.0,0.0,0.0,0.0,-2.7679,-2.7625,-2.7625,-2.7625,0.0,0.0,0.0,0.0,0.0,0.0,-2.9012,-2.9316,-2.9406,-2.9361,-2.9629,0.0,0.0,0.0,-3.3288,-3.409,-3.4851,-3.556,-3.5622,-3.5622,-3.5622,-3.5622,-3.5577,-3.556,-3.556,-3.5191,-3.4495,-3.3818,-3.272,-3.1518,-3.147,-3.0306,-2.8633,-2.927,-2.9149,-2.8607,-2.8607,-2.8577,-2.8562,-2.4268,-2.4431,-2.482,0.0,-2.5598,-2.5787,0.0,0.0,0.0,0.0,-3.5005,-3.7165,-3.7823,-3.7898,-3.7704,-3.721,-3.6746,0.0,0.0,0.0,0.0,-3.3544,-3.3799,-3.329,-3.1824,-3.2258,0.0,-3.1482,0.0,0.0,-2.9804,0.0,0.0,0.0,0.0,0.0,-2.8622,-2.8951,-2.928,-2.9579,-2.9579,-2.928,0.0,0.0,-2.8951,-2.8203,-2.9056,-2.9445,-2.9535,-2.9205,-2.9415,-2.9819,-2.9819,-3.0133,-3.0447,-3.0163,-3.0657,-3.1195,-3.0866,-3.0776,-3.0776,-3.0776,-3.0417,-3.0163,0.0,0.0,0.0,0.0,0.0,0.0,0.0,0.0,0.0,-2.7679,-2.7625,-2.7625,0.0,0.0,0.0,-2.7625,0.0,0.0,0.0,-2.8222,-2.8448,-2.9316,-2.8996,0.0,0.0,0.0,0.0,0.0,-3.3948,-3.4898,-3.5577,-3.5622,-3.5622,-3.5622,-3.5622,-3.5362,-3.4847,-3.4847,-3.4496,-3.3804,-3.2609,-3.1907,-3.1482,-2.9976,-2.9362,-2.929,-2.9009,-2.8733,-2.8607,-2.8607,-2.8278,-2.7919,-2.4418,0.0,0.0,-2.5624,0.0,0.0,-2.6804,0.0,0.0,-3.173,-3.4509,0.0,-3.698,-3.7332,-3.7404,-3.7045,-3.6432,0.0,-3.6058,0.0,0.0,-3.3963,-3.3724,-3.3095,-3.1988,-3.2048,0.0,-3.1091,0.0,0.0,-2.9146,0.0,0.0,0.0,0.0,-2.7784,-2.8143,-2.8143,-2.8532,-2.9131,-2.8816,0.0,0.0,-2.8562,-2.8284,-2.767,-2.8008,-2.8397,-2.8697,-2.8622,-2.8846,-2.9146,-2.9146,-2.9594,-3.0028,-2.9684,-3.0103,-3.0597,-3.0208,-3.0103,-3.0103,-3.0103,-3.0043,-2.9939,-2.9714,-3.0658,-3.1372,0.0,0.0,0.0,0.0,0.0,0.0,0.0,0.0,0.0,0.0,0.0,0.0,0.0,0.0,0.0,0.0,0.0,0.0,0.0,0.0,0.0,0.0,0.0,0.0,0.0,-3.2818,-3.3695,-3.4704,-3.5005,-3.5005,-3.4752,-3.5316,-3.5115,-3.4186,-3.4479,-3.4087,-3.3098,-3.207,-3.142,-3.1021,-2.9591,-2.925,-2.952,-2.8861,-2.8412,-2.8143,-2.8143,-2.8098,-2.8068,-2.4921,0.0,0.0,0.0,0.0,0.0,0.0,-2.8911,0.0,-3.0815,0.0,-3.5317,-3.5398,-3.6043,-3.6447,-3.6372,0.0,-3.5474,-3.537,-3.4801,-3.4397,-3.4233,-3.3036,-3.2347,-3.2258,-3.1614,0.0,0.0,0.0,0.0,0.0,0.0,0.0,0.0,0.0,0.0,0.0,-2.7625,-2.7919,0.0,-2.7814,-2.7625,-2.7625,-2.7625,-2.7625,-2.7625,-2.7625,-2.7625,-2.7715,-2.8263,-2.8472,-2.8472,-2.8472,-2.8921,-2.943,-2.934,-2.9445,-2.9564,-2.9475,-2.946,-2.946,-2.946,-2.9789,-2.9849,-2.8831,-3.0038,-3.1192,-3.0618,-3.0556,0.0,0.0,0.0,0.0,0.0,0.0,0.0,0.0,0.0,0.0,0.0,0.0,0.0,0.0,0.0,0.0,0.0,0.0,0.0,0.0,0.0,0.0,0.0,-3.1614,0.0,-3.3836,0.0,-3.4333,-3.3735,-3.48,-3.4704,-3.3495,-3.4087,-3.3585,-3.2307,-3.1736,-3.1051,-3.0328,-2.9714,-2.94,-2.9265,-2.8682,-2.8098,-2.7625,-2.7625,-2.7949,-2.8472,0.0,0.0,0.0,0.0,0.0,-2.8235,-2.8586,-3.0021,-3.1502,-3.2887,-3.4696,0.0,-3.6238,-3.641,-3.6267,-3.5729,-3.5564,0.0,0.0,0.0,0.0,-3.2901,-3.2123,-3.145,-3.0866,-3.0238,-2.9864,0.0,0.0,0.0,0.0,0.0,0.0,0.0,0.0,0.0,-2.7625,-2.7625,0.0,-2.7739,-2.767,-2.7625,-2.7625,-2.7625,-2.7625,-2.7625,-2.7625,-2.7625,-2.764,-2.776,-2.7754,-2.7754,-2.7754,-2.8218,-2.8667,-2.8083,-2.8712,-2.946,-2.8921,-2.8771,-2.8771,-2.8771,-2.8427,-2.8173,-2.8517,-2.9711,-3.0575,-2.9917,-3.0655,-3.1091,-3.0144,0.0,0.0,0.0,0.0,0.0,0.0,0.0,0.0,0.0,0.0,0.0,0.0,0.0,0.0,0.0,0.0,0.0,0.0,0.0,0.0,0.0,0.0,0.0,0.0,0.0,0.0,-3.4431,-3.4087,-3.3547,-3.2788,-3.2895,-3.2207,-3.088,-3.0719,-3.0318,-2.9699,-2.9041,-2.8442,-2.797,-2.785,-2.773,-2.7625,-2.7625,-2.7649,-2.7754,0.0,0.0,0.0,0.0,0.0,0.0,0.0,-3.0024,0.0,-3.1079,-3.2742,-3.39,-3.4041,-3.5185,-3.5714,-3.5026,-3.4966,-3.4681,-3.4008,-3.3649,-3.3021,-3.2048,-3.136,0.0,-3.0043,-2.94,-2.9071,-2.9071,0.0,0.0,0.0,0.0,0.0,0.0,0.0,-2.7625,0.0,0.0,0.0,-2.7625,-2.7625,-2.7625,-2.7625,-2.7625,-2.7625,-2.7625,-2.7625,-2.7625,-2.7625,-2.7625,-2.7625,-2.7625,-2.7625,-2.7799,-2.8008,-2.7664,-2.809,-2.8472,-2.8158,-2.8068,-2.8068,-2.8068,-2.8083,-2.8098,-2.8068,-2.913,-3.0015,-2.9687,-3.0332,-3.0843,-3.0173,-2.9804,0.0,0.0,0.0,0.0,0.0,0.0,0.0,0.0,0.0,0.0,0.0,0.0,0.0,0.0,0.0,0.0,0.0,0.0,0.0,0.0,0.0,0.0,0.0,0.0,0.0,-3.3598,-3.3937,-3.3582,-3.2586,-3.2586,-3.2052,-3.1043,-3.0674,-3.0342,-3.0028,-2.9714,-2.9011,-2.8113,-2.8113,-2.7889,-2.7625,-2.7625,-2.7625,-2.7625,0.0,-2.8298,0.0,0.0,-2.875,0.0,0.0,-2.9792,-2.9743,-2.9606,-3.0994,-3.2028,-3.2249,-3.4053,-3.507,-3.4532,-3.4352,-3.3978,-3.3335,-3.2677,-3.2003,-3.1345,-3.0537,-2.9864,-2.9385,-2.8727,-2.8382,0.0,0.0,0.0,0.0,0.0,0.0,0.0,0.0,0.0,0.0,0.0,-2.7625,-2.7625,-2.7625,-2.7625,-2.7625,-2.7625,-2.7625,-2.7625,-2.7625,-2.7625,-2.7625,-2.7625,-2.7625,-2.7625,-2.7625,-2.7625,-2.7625,-2.7625,-2.7625,-2.7625,-2.7625,-2.7625,-2.7625,-2.7625,-2.7979,-2.8233,-2.7694,-2.8502,-2.9415,-2.9549,-3.0193,-3.0717,-3.0717,-3.0709,0.0,0.0,0.0,0.0,0.0,0.0,0.0,0.0,0.0,0.0,0.0,0.0,0.0,0.0,0.0,0.0,0.0,0.0,0.0,0.0,0.0,0.0,-3.3595,0.0,-3.3937,0.0,-3.3937,-3.3735,-3.2586,-3.2586,-3.2099,-3.1166,-3.0724,-3.0357,-3.0088,-2.9939,-2.928,-2.8382,-2.8382,-2.8053,-2.7625,-2.7625,-2.7625,-2.7625,0.0,0.0,0.0,0.0,0.0,0.0,0.0,-2.9792,-3.0227,-3.1522,-3.2204,-3.2863,-3.3722,-3.425,-3.4547,-3.4487,-3.3933,-3.3305,-3.2647,-3.1988,-3.1315,-3.0627,-2.943,-2.8757,-2.8697,-2.8023,-2.7715,0.0,0.0,0.0,0.0,0.0,0.0,0.0,0.0,0.0,0.0,-2.7625,-2.7625,-2.7625,-2.7625,-2.7625,-2.7625,-2.7625,-2.7625,-2.7625,-2.7625,-2.7625,-2.7625,-2.7625,-2.7625,-2.7625,-2.7625,-2.7625,-2.7625,-2.7625,-2.7625,-2.7625,-2.7625,-2.7625,-2.7625,-2.7625,-2.767,-2.77,-2.7625,-2.8158,-2.8861,-2.946,-3.0567,-3.1377,-3.1377,-3.1469,-3.1696,0.0,0.0,0.0,0.0,0.0,0.0,0.0,0.0,0.0,0.0,0.0,0.0,0.0,0.0,0.0,0.0,0.0,0.0,0.0,0.0,-3.1593,-3.3604,-3.3663,0.0,-3.4431,-3.3937,-3.3287,-3.2586,-3.2586,-3.1581,-2.9808,-3.0308,-2.9849,-2.8727,-2.8098,-2.782,-2.7715,-2.7715,-2.7685,-2.7625,-2.7625,-2.7625,-2.7625,0.0,0.0,0.0,0.0,0.0,0.0,0.0,-2.9792,-3.0009,-3.0586,-3.1449,-3.2277,-3.3059,-3.3609,-3.3888,-3.3888,-3.2931,-3.2033,-3.1345,-3.0717,-3.0058,-2.9385,-2.8876,-2.8412,-2.7993,-2.776,-2.7625,0.0,0.0,0.0,0.0,0.0,0.0,0.0,0.0,-2.7625,-2.7625,-2.7625,-2.7625,-2.7625,-2.7625,-2.7625,-2.7625,-2.7625,-2.7625,-2.7625,-2.7625,-2.7625,-2.7625,-2.7625,-2.7625,-2.7625,-2.7625,-2.7625,-2.7625,-2.7625,-2.7625,-2.7625,-2.7625,-2.7625,-2.7625,-2.7625,-2.7625,-2.7625,-2.7625,-2.7784,-2.8173,-2.8846,-3.0013,-3.1024,-3.1454,-3.1576,-3.1894,0.0,0.0,0.0,0.0,0.0,0.0,0.0,0.0,0.0,0.0,0.0,0.0,0.0,0.0,0.0,0.0,0.0,0.0,-3.0176,0.0,-3.1916,-3.3599,-3.359,-3.3531,-3.3391,-3.3145,-3.2841,-3.2586,-3.212,-3.1071,-2.9564,-2.943,-2.8831,-2.7993,-2.8128,-2.7949,-2.7625,-2.7625,-2.7625,-2.7625,-2.7625,-2.7625,-2.7625,-2.9679,0.0,-2.9315,0.0,-2.9453,-2.9315,-2.9729,-2.9792,-2.9792,-2.9792,-3.0474,-3.132,-3.2205,-3.2825,-3.32,-3.32,-3.2003,-3.1031,-3.0537,-2.9744,-2.9086,-2.8622,-2.8412,0.0,-2.7625,-2.7625,-2.7625,-2.7625,-2.7625,0.0,0.0,0.0,0.0,0.0,-2.7625,-2.7625,-2.7625,-2.7625,-2.7625,-2.7625,-2.7625,-2.7625,-2.7625,-2.7625,-2.7625,-2.7625,-2.7625,-2.7625,-2.7625,-2.7625,-2.7625,-2.7625,-2.7625,-2.7625,-2.7625,-2.7625,-2.7625,-2.7625,-2.7625,-2.7625,-2.7625,-2.7625,-2.7625,-2.7625,-2.7625,-2.7625,-2.7916,-2.8979,-2.9892,-3.0774,-3.1736,-3.1989,-3.2351,0.0,0.0,0.0,0.0,0.0,0.0,0.0,-2.9359,-2.9088,-2.9629,0.0,0.0,0.0,0.0,0.0,0.0,0.0,0.0,0.0,0.0,0.0,0.0,0.0,-3.3339,-3.2895,-3.2895,-3.2788,-3.2571,-3.1445,-3.0552,-2.9804,-2.8742,-2.8128,-2.7904,-2.8173,-2.8008,-2.7625,-2.7625,-2.7625,-2.7625,-2.7625,-2.7625,-2.7625,-2.9679,-2.9779,-2.9779,-2.9792,-2.9779,-2.9779,-2.9792,-2.9792,-2.9792,-2.9792,-2.9576,-2.9957,-3.1432,-3.2173,-3.2527,-3.2527,-3.13,-3.0507,-3.0507,-2.9325,-2.8607,0.0,0.0,-2.7625,-2.7625,-2.7625,-2.7625,-2.7625,0.0,0.0,-2.7625,0.0,0.0,-2.7625,-2.7625,-2.7625,-2.7625,-2.7625,-2.7625,-2.7625,-2.7625,-2.7625,-2.7625,-2.7625,-2.7625,-2.7625,-2.7625,-2.7625,-2.7625,-2.7625,-2.7625,-2.7625,-2.7625,-2.7625,-2.7625,-2.7625,-2.7625,-2.7625,-2.7625,-2.7625,-2.7625,-2.7625,-2.7625,-2.7625,-2.7625,-2.7625,-2.8188,-3.018,-3.0556,-3.0925,-3.2353,-3.313,-3.3391,-3.2749,0.0,0.0,0.0,0.0,0.0,0.0,-2.9203,-2.8304,-3.0123,0.0,0.0,0.0,0.0,0.0,0.0,0.0,0.0,-2.8644,-3.0503,0.0,-3.1632,-3.2954,-3.3598,-3.3582,-3.3582,-3.3235,-3.2555,-3.0546,-2.9924,-3.0387,-2.8427,-2.7964,-2.8532,-2.7859,-2.7625,-2.7625,-2.7625,-2.7625,-2.7625,-2.7625,-2.7625,-2.7625,-2.8524,-2.8649,-2.8762,-2.9139,-2.9202,-2.934,-2.9729,-2.9792,-2.9654,-2.9252,-2.9797,-3.0256,-3.0361,0.0,-3.1204,0.0,-3.0627,-2.9684,0.0,-2.8382,-2.7904,-2.7904,-2.7679,-2.7625,-2.7625,-2.7625,-2.7625,-2.7625,0.0,0.0,0.0,-2.7625,-2.7625,-2.7625,-2.7625,-2.7625,-2.7625,-2.7625,-2.7625,-2.7625,-2.7625,-2.7625,-2.7625,-2.7625,-2.7625,-2.7625,-2.7625,-2.7625,-2.7625,-2.7625,-2.7625,-2.7625,-2.7625,-2.7625,-2.7625,-2.7625,-2.7625,-2.7625,-2.7625,-2.7625,-2.7625,-2.7625,-2.7625,-2.7625,-2.7625,-2.7625,-2.7916,-2.8994,-2.9561,-3.0425,-3.2242,-3.2353,-3.2407,-3.313,0.0,0.0,0.0,0.0,0.0,0.0,0.0,-2.7993,0.0,-2.8732,0.0,0.0,0.0,0.0,0.0,0.0,0.0,0.0,-3.0266,0.0,-3.1535,-3.1942,-3.2145,-3.2145,-3.2145,-3.2048,-3.1823,-3.0709,-3.0088,-2.9819,-2.8742,-2.8128,-2.7874,-2.7715,-2.7625,-2.7625,-2.7625,-2.7625,-2.7625,-2.7625,-2.7625,-2.7625,-2.7996,-2.8109,-2.821,-2.8561,-2.8787,-2.8988,-2.9126,-2.9515,-2.9515,-2.8725,-2.9204,-2.9697,-2.9772,-2.961,0.0,-3.1021,-3.0193,0.0,-2.8637,-2.7949,-2.7625,-2.7625,-2.7625,-2.7625,-2.7625,0.0,0.0,-2.7625,-2.7625,-2.7625,-2.7625,-2.7625,-2.7625,-2.7625,-2.7625,-2.7625,-2.7625,-2.7625,-2.7625,-2.7625,-2.7625,-2.7625,-2.7625,-2.7625,-2.7625,-2.7625,-2.7625,-2.7625,-2.7625,-2.7625,-2.7625,-2.7625,-2.7625,-2.7625,-2.7625,-2.7625,-2.7625,-2.7625,-2.7625,-2.7625,-2.7625,-2.7625,-2.7625,-2.7625,-2.7625,-2.7625,-2.7956,-2.9097,-2.9455,-3.0228,-3.218,-3.241,-3.2555,-3.3479,0.0,0.0,0.0,0.0,0.0,0.0,0.0,0.0,0.0,-2.8511,0.0,0.0,0.0,0.0,0.0,0.0,0.0,-2.9894,-3.0785,0.0,-3.1524,-3.1792,-3.1792,-3.1482,-3.1482,-3.1482,-3.1437,-3.0582,-2.9953,-2.9535,-2.8607,-2.7979,-2.7625,-2.7625,-2.7625,-2.7625,-2.7625,-2.7625,-2.7625,-2.7625,-2.7625,-2.7625,-2.7896,-2.7996,0.0,0.0,-2.8473,0.0,-2.8185,-2.9001,-2.9289,-2.8197,-2.8119,-2.8486,-2.9583,-2.8719,-2.8729,-3.0261,0.0,0.0,0.0,-2.7934,-2.7625,-2.7625,-2.7625,0.0,-2.7625,-2.7625,-2.7625,-2.7625,-2.7625,-2.7625,-2.7625,-2.7625,-2.7625,-2.7625,-2.7625,-2.7625,-2.7625,-2.7625,-2.7625,-2.7625,-2.7625,-2.7625,-2.7625,-2.7625,-2.7625,-2.7625,-2.7625,-2.7625,-2.7625,-2.7625,-2.7625,-2.7625,-2.7625,-2.7625,-2.7625,-2.7625,-2.7625,-2.7625,-2.7625,-2.7625,-2.7625,-2.7625,-2.7625,-2.7625,-2.7625,-2.7625,-2.8141,-3.0069,-3.0041,-3.0281,-3.2209,-3.3118,-3.3518,-3.3518,-3.334,-3.3028,-3.2398,0.0,0.0,0.0,0.0,0.0,0.0,-2.8621,-2.8873,0.0,0.0,0.0,0.0,0.0,0.0,-3.0423,-3.1754,-3.2133,-3.1524,-3.2189,-3.2189,-3.1482,-3.1482,-3.1509,-3.142,-3.0193,-2.9594,-2.9445,-2.8188,-2.767,-2.7625,-2.7625,-2.7625,-2.7625,-2.7625,-2.7625,-2.7625,-2.7625,-2.7625,-2.7625,0.0,0.0,-2.6979,-2.7406,-2.7582,-2.777,-2.8059,-2.8335,-2.826,-2.757,-2.8055,-2.8383,-2.8441,-2.8759,-2.9002,-2.9024,-2.8921,-2.8547,-2.7859,-2.7715,-2.7625,-2.7625,-2.7625,-2.7625,-2.7625,-2.7625,-2.7625,-2.7625,-2.7625,-2.7625,-2.7625,-2.7625,-2.7625,-2.7625,-2.7625,-2.7625,-2.7625,-2.7625,-2.7625,-2.7625,-2.7625,-2.7625,-2.7625,-2.7625,-2.7625,-2.7625,-2.7625,-2.7625,-2.7625,-2.7625,-2.7625,-2.7625,-2.7625,-2.7625,-2.7625,-2.7625,-2.7625,-2.7625,-2.7625,-2.7625,-2.7625,-2.7625,-2.7625,-2.7625,-2.7625,-2.7625,-2.8006,-2.9529,-3.014,-3.0985,-3.2965,-3.3003,-3.2764,-3.2848,-3.1514,-3.0248,-2.9638,0.0,0.0,0.0,-2.891,-2.9172,-2.9237,-3.0144,-3.0328,0.0,0.0,0.0,0.0,0.0,-3.013,-2.9818,-3.1046,-3.1687,-3.1524,-3.1652,-3.1652,-3.1482,-3.1482,-3.1225,-3.0713,-3.0398,-2.9768,-2.8816,-2.8487,-2.8053,-2.7625,-2.7625,-2.7625,-2.7625,-2.7625,-2.7625,-2.7625,-2.7625,-2.7625,-2.7625,-2.6063,-2.6276,-2.6622,-2.6854,-2.7118,-2.7306,-2.7344,-2.7783,-2.7821,-2.7017,-2.7283,-2.7722,-2.7954,-2.7907,-2.8082,-2.8547,-2.8607,-2.8308,-2.767,-2.7625,-2.7625,-2.7625,-2.7625,-2.7625,-2.7625,-2.7625,-2.7625,-2.7625,-2.7625,-2.7625,-2.7625,-2.7625,-2.7625,-2.7625,-2.7625,-2.7625,-2.7625,-2.7625,-2.7625,-2.7625,-2.7625,-2.7625,-2.7625,-2.7625,-2.7625,-2.7625,-2.7625,-2.7625,-2.7625,-2.7625,-2.7625,-2.7625,-2.7625,-2.7625,-2.7625,-2.7625,-2.7625,-2.7625,-2.7625,-2.7625,-2.7625,-2.7625,-2.7625,-2.7625,-2.7625,-2.7625,-2.787,-2.89,-2.9626,-3.0566,-3.1954,-3.2151,-3.212,-3.2171,-3.1117,-3.0164,-2.9568,-2.9106,0.0,-2.9441,-2.9781,-3.0022,-2.9974,-3.0569,-3.0551,-2.9499,0.0,0.0,-2.995,-3.0275,-3.0316,-3.0,-3.0689,-3.1006,-3.104,-3.1334,-3.1482,-3.1524,-3.1204,-3.0829,-3.0498,-2.9888,-2.9274,-2.8577,-2.8263,-2.7919,-2.7625,-2.7625,-2.7625,-2.7625,-2.7625,-2.7625,-2.7625,-2.7625,-2.7625,-2.7625,-2.5573,-2.5988,-2.642,-2.6508,-2.6854,-2.7005,-2.6596,-2.7256,-2.7494,-2.6533,-2.6463,-2.6841,-2.7667,-2.6903,-2.6946,-2.8338,-2.8442,-2.8203,-2.7655,-2.7625,-2.7625,-2.7625,-2.7625,-2.7625,-2.7625,-2.7625,-2.7625,-2.7625,-2.7625,-2.7625,-2.7625,-2.7625,-2.7625,-2.7625,-2.7625,-2.7625,-2.7625,-2.7625,-2.7625,-2.7625,-2.7625,-2.7625,-2.7625,-2.7625,-2.7625,-2.7625,-2.7625,-2.7625,-2.7625,-2.7625,-2.7625,-2.7625,-2.7625,-2.7625,-2.7625,-2.7625,-2.7625,-2.7625,-2.7625,-2.7625,-2.7625,-2.7625,-2.7625,-2.7625,-2.7625,-2.7625,-2.7821,-2.8498,-2.9225,-2.997,-3.0804,-3.1353,-3.167,-3.1618,-3.1388,-3.1008,-3.0316,0.0,0.0,-3.0443,-3.0569,-3.0615,-3.0615,-3.0706,-3.0461,-2.9722,-2.9673,0.0,0.0,-3.008,-3.0354,-3.0233,-3.0487,-3.0608,-3.0629,-3.1202,-3.1452,-3.1319,-3.0679,-3.0298,-3.0193,-2.9102,-2.8554,-2.8412,-2.7829,-2.7625,-2.7625,-2.7625,-2.7625,-2.7625,-2.7625,-2.7625,-2.7625,-2.7625,-2.7625,-2.7625,-2.5511,-2.5674,-2.5887,-2.6445,-2.6596,-2.6634,-2.6546,-2.6603,-2.6477,-2.5824,-2.6282,-2.6638,-2.6462,-2.6849,-2.731,-2.7718,-2.779,-2.7679,-2.7625,-2.7625,-2.7625,-2.7625,-2.7625,-2.7625,-2.7625,-2.7625,-2.7625,-2.7625,-2.7625,-2.7625,-2.7625,-2.7625,-2.7625,-2.7625,-2.7625,-2.7625,-2.7625,-2.7625,-2.7625,-2.7625,-2.7625,-2.7625,-2.7625,-2.7625,-2.7625,-2.7625,-2.7625,-2.7625,-2.7625,-2.7625,-2.7625,-2.7625,-2.7625,-2.7625,-2.7625,-2.7625,-2.7625,-2.7625,-2.7625,-2.7625,-2.7625,-2.7625,-2.7625,-2.7625,-2.7625,-2.7625,-2.794,-2.9185,-2.9953,-3.0969,-3.2784,-3.2644,-3.2107,-3.1662,-3.0936,-3.0098,0.0,0.0,-2.9753,-3.0366,-3.0904,-3.1216,-3.1188,-3.1682,-3.1691,-3.0986,-3.0918,-3.0742,-3.0254,-3.0336,-2.9956,-2.8936,-3.0441,-3.1238,-3.1275,-3.1467,-3.1289,-3.0629,-3.0029,-2.944,-2.8864,-2.8682,-2.8308,-2.7775,-2.767,-2.7625,-2.7625,-2.7625,-2.7625,-2.7625,-2.7625,-2.7625,-2.7625,-2.7625,-2.7625,-2.7625,-2.4682,-2.5197,-2.5686,-2.595,-2.6251,-2.6533,-2.6533,-2.6533,-2.6251,-2.5674,-2.6013,-2.6233,-2.6219,-2.6622,-2.6934,-2.7046,-2.7415,-2.7475,-2.7066,-2.743,-2.7625,-2.7625,-2.7625,-2.7445,-2.7051,-2.7445,-2.7395,-2.7036,-2.7395,-2.7625,-2.7625,-2.7625,-2.7625,-2.7625,-2.7625,-2.7625,-2.7625,-2.7625,-2.7625,-2.7625,-2.7625,-2.7625,-2.7625,-2.7625,-2.7625,-2.7625,-2.7625,-2.7625,-2.7625,-2.7625,-2.7625,-2.7625,-2.7625,-2.7625,-2.7625,-2.7625,-2.7625,-2.7625,-2.7625,-2.7625,-2.7625,-2.7625,-2.7625,-2.7625,-2.7625,-2.7625,-2.784,-2.8814,-2.955,-3.037,-3.1628,-3.1565,-3.1223,-3.0973,-3.0575,0.0,0.0,-2.9995,-3.0658,-3.1325,-3.1682,-3.1867,-3.1825,-3.2133,-3.1968,-3.1258,-3.119,-3.1069,-3.0813,-3.0846,-3.0571,-3.0023,-2.9922,-2.9876,-2.9901,-3.0321,-3.0327,-3.003,-2.9385,-2.8884,-2.8617,-2.8253,-2.7891,-2.7625,-2.7625,-2.7625,-2.7625,-2.7625,-2.7625,-2.7625,-2.7625,-2.7625,-2.7625,-2.7625,-2.7625,-2.7625,-2.3778,-2.4569,-2.5272,-2.5385,-2.5887,-2.6214,-2.6101,-2.6189,-2.6013,-2.531,-2.551,-2.5741,-2.5755,-2.6046,-2.63,-2.6322,-2.6852,-2.6901,-2.6393,-2.6841,-2.7245,-2.761,-2.7625,-2.726,-2.6602,-2.7081,-2.7021,-2.6363,-2.7021,-2.7385,-2.735,-2.755,-2.7625,-2.7625,-2.7625,-2.7625,-2.7625,-2.7625,-2.7625,-2.7625,-2.7625,-2.7625,-2.7625,-2.7625,-2.7625,-2.7595,-2.7395,-2.7385,-2.7385,-2.7385,-2.7385,-2.7365,-2.7565,-2.7625,-2.7625,-2.7625,-2.7625,-2.7625,-2.7625,-2.7625,-2.7625,-2.7625,-2.771,-2.781,-2.781,-2.7894,-2.8171,-2.8808,-2.934,-2.9956,-3.0717,-3.0698,-3.0585,-3.0631,0.0,0.0,0.0,-3.0838,-3.1393,-3.1968,-3.2019,-3.2019,-3.2019,-3.2019,-3.1799,-3.1241,-3.1055,-3.0918,-3.0797,-3.0658,-3.0518,-3.0377,-2.9653,-2.918,-2.903,-2.9395,-2.9495,-2.9342,-2.8677,-2.8379,-2.8364,-2.781,-2.7625,-2.7625,-2.7625,-2.7625,-2.7625,-2.7625,-2.7625,-2.761,-2.7445,-2.749,-2.758,-2.723,-2.7215,-2.7385,-2.31,-2.369,-2.428,-2.4795,-2.531,-2.5498,-2.5021,-2.5347,-2.5285,-2.4255,-2.4722,-2.4992,-2.4469,-2.5117,-2.5574,-2.5582,-2.5663,-2.5734,-2.5689,-2.5734,-2.6303,-2.7565,-2.7625,-2.726,-2.6602,-2.6632,-2.6348,-2.5674,-2.6348,-2.6662,-2.6677,-2.729,-2.7625,-2.7625,-2.7625,-2.7625,-2.7625,-2.7625,-2.7625,-2.7625,-2.7625,-2.7625,-2.7625,-2.7625,-2.7625,-2.7535,-2.6886,-2.6662,-2.6662,-2.6662,-2.6662,-2.6767,-2.743,-2.7625,-2.7625,-2.7625,-2.7625,-2.7625,-2.7625,-2.7625,-2.7625,-2.7625,-2.7993,-2.8415,-2.8415,-2.8873,-2.9462,-3.0099,-3.0274,-3.0747,-3.2027,-3.1691,-3.1232,-3.1303,0.0,0.0,-3.0393,-3.0838,-3.1207,-3.1258,-3.1275,-3.1275,-3.1275,-3.1275,-3.1258,-3.119,-3.0699,-3.0123,-2.954,-2.8996,-2.8448,-2.7894,-3.0035,-3.0888,-3.0274,-2.9808,-2.9271,-2.8662,-2.8001,-2.767,-2.767,-2.764,-2.7625,-2.7625,-2.7625,-2.7625,-2.7625,-2.7625,-2.7625,-2.7565,-2.6901,-2.7036,-2.7475,-2.6198,-2.6138,-2.6662,-2.2585,-2.3364,-2.4067,-2.428,-2.4757,-2.5046,-2.4858,-2.4983,-2.4835,-2.4172,-2.4699,-2.4953,-2.4468,-2.5085,-2.5398,-2.5,-2.5369,-2.5435,-2.5031,-2.539,-2.5839,-2.6333,-2.6363,-2.6048,-2.539,-2.5779,-2.5659,-2.5001,-2.5659,-2.5974,-2.5989,-2.6243,-2.6572,-2.6946,-2.6542,-2.6572,-2.6931,-2.6527,-2.6363,-2.6393,-2.6797,-2.6961,-2.7006,-2.746,-2.7625,-2.7535,-2.6826,-2.6856,-2.7141,-2.6722,-2.6587,-2.6632,-2.6886,-2.6961,-2.7036,-2.7505,-2.7625,-2.7625,-2.7625,-2.7625,-2.7625,-2.7625,-2.8042,-2.8415,-2.8042,-2.867,-2.9486,-2.9742,-3.0077,-3.0615,-3.1483,-3.1441,-3.1256,-3.1281,0.0,-3.1112,-3.0878,-3.1055,-3.119,-3.119,-3.119,-3.119,-3.119,-3.119,-3.119,-3.119,-3.0975,-3.0757,-3.0518,-3.0293,-3.0064,-2.9832,-3.0402,-3.0258,-2.923,-2.9024,-2.8996,-2.9073,-2.8819,-2.8743,-2.8677,-2.8314,-2.8157,-2.8142,-2.7765,-2.7625,-2.7625,-2.7625,-2.7625,-2.7595,-2.7305,-2.74,-2.7565,-2.7006,-2.6976,-2.7171,-2.1794,-2.256,-2.3263,-2.3439,-2.3929,-2.4293,-2.4293,-2.4443,-2.433,-2.3638,-2.3975,-2.419,-2.3863,-2.4345,-2.4564,-2.4277,-2.47,-2.4792,-2.4343,-2.4732,-2.5166,-2.5585,-2.5615,-2.53,-2.4597,-2.5076,-2.4971,-2.4313,-2.4971,-2.53,-2.53,-2.551,-2.5854,-2.6258,-2.5809,-2.5854,-2.6258,-2.5809,-2.5615,-2.5644,-2.6093,-2.6288,-2.6333,-2.6782,-2.6961,-2.6871,-2.6213,-2.6258,-2.6572,-2.6123,-2.5974,-2.6048,-2.6452,-2.6737,-2.6976,-2.749,-2.7625,-2.7625,-2.7625,-2.7625,-2.7675,-2.786,-2.8319,-2.8732,-2.848,-2.921,-2.9995,-2.9995,-3.0293,-3.0699,-3.1112,-3.119,-3.119,-3.119,-3.119,-3.119,-3.119,-3.119,-3.119,-3.119,-3.119,-3.119,-3.119,-3.119,-3.119,-3.119,-3.1015,-3.0838,-3.0658,-3.0617,-3.0617,-3.0617,-3.002,-2.9367,-2.8706,-2.8763,-2.8905,-2.9093,-2.9093,-2.903,-2.8811,-2.8404,-2.8242,-2.8173,-2.778,-2.7625,-2.7625,-2.7625,-2.7625,-2.7545,-2.7155,-2.708,-2.72,-2.6594,-2.6594,-2.6916,-2.0718,-2.1104,-2.1656,-2.2209,-2.2761,-2.3065,-2.3065,-2.3615,-2.3577,-2.2447,-2.2297,-2.2299,-2.2361,-2.2501,-2.2846,-2.3426,-2.3555,-2.3595,-2.3595,-2.3595,-2.4193,-2.554,-2.56,-2.5285,-2.4582,-2.4567,-2.4283,-2.3595,-2.4283,-2.4567,-2.4582,-2.5285,-2.56,-2.56,-2.56,-2.56,-2.56,-2.56,-2.56,-2.56,-2.56,-2.56,-2.56,-2.5615,-2.5615,-2.5525,-2.4821,-2.4582,-2.4597,-2.4582,-2.4582,-2.4806,-2.6153,-2.7021,-2.761,-2.761,-2.7625,-2.7625,-2.7625,-2.7625,-2.776,-2.8319,-2.8966,-2.954,-3.0166,-3.074,-3.119,-3.119,-3.119,-3.119,-3.119,-3.119,-3.119,-3.119,-3.119,-3.119,-3.119,-3.119,-3.119,-3.119,-3.119,-3.119,-3.119,-3.119,-3.119,-3.119,-3.0658,-3.0038,-2.9451,-2.9406,-2.9406,-2.9406,-2.8715,-2.8575,-2.9201,-2.9321,-2.9098,-2.851,-2.8543,-2.8194,-2.7627,-2.7627,-2.7612,-2.7625,-2.756,-2.756,-2.756,-2.756,-2.756,-2.7434,-2.6111,-2.5991,-2.6329,-2.4349,-2.4456,-2.5585,-2.0718,-2.1104,-2.1543,-2.1707,-2.2184,-2.2422,-2.2033,-2.246,-2.2584,-2.1923,-2.1822,-2.1839,-2.1876,-2.1952,-2.2239,-2.2876,-2.2946,-2.3143,-2.3551,-2.3595,-2.3774,-2.4178,-2.4208,-2.4103,-2.3909,-2.3909,-2.3804,-2.3595,-2.3804,-2.3909,-2.3909,-2.4103,-2.4462,-2.4896,-2.4418,-2.4462,-2.4896,-2.4403,-2.4208,-2.4238,-2.4732,-2.4881,-2.4971,-2.5435,-2.5615,-2.5525,-2.4821,-2.4881,-2.5241,-2.4746,-2.4582,-2.4657,-2.5091,-2.5674,-2.6288,-2.6752,-2.7215,-2.7625,-2.7625,-2.7625,-2.761,-2.781,-2.8319,-2.8826,-2.9012,-2.9496,-3.0081,-3.0477,-3.0559,-3.0699,-3.1112,-3.119,-3.119,-3.119,-3.119,-3.119,-3.119,-3.119,-3.119,-3.119,-3.119,-3.119,-3.119,-3.119,-3.119,-3.119,-3.1015,-3.0838,-3.0658,-3.0658,-3.0425,-2.9926,-2.9688,-2.9404,-2.9037,-2.917,-2.9376,-2.9615,-3.0154,-3.0085,-2.947,-2.9046,-2.8365,-2.7515,-2.706,-2.6606,-2.6205,-2.6205,-2.6205,-2.614,-2.577,-2.5722,-2.5846,-2.5207,-2.5267,-2.5508,-2.0326,-2.0589,-2.0891,-2.1129,-2.1443,-2.1619,-2.1506,-2.1769,-2.1825,-2.1327,-2.1263,-2.1378,-2.167,-2.1472,-2.1819,-2.2965,-2.3054,-2.3187,-2.3551,-2.3595,-2.3595,-2.3595,-2.3595,-2.3595,-2.3595,-2.3595,-2.3595,-2.3595,-2.3595,-2.3595,-2.3595,-2.3595,-2.3819,-2.4208,-2.3789,-2.3834,-2.4193,-2.3774,-2.3595,-2.364,-2.4059,-2.4223,-2.4268,-2.4657,-2.4822,-2.4762,-2.4358,-2.4477,-2.4762,-2.4358,-2.4403,-2.4582,-2.4582,-2.5076,-2.5734,-2.6393,-2.6871,-2.7167,-2.7425,-2.7679,-2.7904,-2.7904,-2.8389,-2.8919,-2.9134,-2.9673,-3.0208,-3.0559,-3.0658,-3.0781,-3.1151,-3.119,-3.119,-3.119,-3.119,-3.119,-3.119,-3.119,-3.119,-3.119,-3.119,-3.119,-3.119,-3.119,-3.119,-3.119,-3.119,-3.119,-3.119,-3.092,-3.0565,-3.0125,-2.9516,-2.8972,-2.8516,-2.8592,-2.8765,-2.9001,-2.921,-2.9014,-2.8451,-2.8069,-2.7482,-2.6737,-2.6351,-2.5974,-2.5607,-2.5607,-2.5601,-2.556,-2.5313,-2.5191,-2.5153,-2.4927,-2.4955,-2.5164,-1.9798,-1.9798,-1.9962,-2.0542,-2.068,-2.0869,-2.1267,-2.138,-2.1217,-2.0718,-2.0643,-2.0836,-2.1479,-2.1113,-2.15,-2.3275,-2.3551,-2.3595,-2.3595,-2.3595,-2.3595,-2.3595,-2.3595,-2.3595,-2.3595,-2.3595,-2.3595,-2.3595,-2.3595,-2.3595,-2.3595,-2.3595,-2.3595,-2.3595,-2.3595,-2.3595,-2.3595,-2.3595,-2.3595,-2.3595,-2.3595,-2.3595,-2.3595,-2.3595,-2.3595,-2.3595,-2.3595,-2.3595,-2.3595,-2.3595,-2.4029,-2.4492,-2.4492,-2.4986,-2.563,-2.6243,-2.638,-2.6471,-2.7088,-2.7729,-2.8204,-2.8204,-2.8878,-2.9629,-3.0166,-3.0699,-3.1055,-3.119,-3.1151,-3.1151,-3.119,-3.119,-3.119,-3.119,-3.119,-3.119,-3.119,-3.119,-3.119,-3.119,-3.119,-3.119,-3.119,-3.119,-3.1173,-3.1106,-3.1106,-3.1072,-3.1004,-3.0378,-2.9973,-2.9905,-2.8552,-2.7789,-2.7685,-2.7675,-2.7548,-2.7338,-2.6941,-2.6425,-2.581,-2.5816,-2.5772,-2.5635,-2.5599,-2.5558,-2.5484,-2.5453,-2.5404,-2.5364,-2.4756,-2.4519,-2.4462,-2.3834,-2.3999,-2.4492,-1.9798,-1.9798,-1.9849,-1.9962,-2.0363,-2.0605,-2.0213,-2.0552,-2.0639,-2.0062,-1.9987,-2.004,-2.0194,-2.0547,-2.1161,-2.2039,-2.3024,-2.3595,-2.3595,-2.3595,-2.3595,-2.3595,-2.3595,-2.3595,-2.3595,-2.3595,-2.3595,-2.3595,-2.3595,-2.3595,-2.3595,-2.3595,-2.3595,-2.3595,-2.3595,-2.3595,-2.3595,-2.3595,-2.3595,-2.3595,-2.3595,-2.3595,-2.3595,-2.3595,-2.3595,-2.3595,-2.3595,-2.3595,-2.3595,-2.3595,-2.3699,-2.3819,-2.3819,-2.4298,-2.4821,-2.5016,-2.5408,-2.5816,-2.5952,-2.6796,-2.767,-2.767,-2.8906,-3.0123,-3.0251,-3.0038,-3.0081,-3.1015,-3.0821,-3.0658,-3.1112,-3.119,-3.119,-3.119,-3.119,-3.119,-3.119,-3.119,-3.119,-3.119,-3.119,-3.119,-3.119,-3.119,-3.0954,-3.0378,-3.0345,-3.0091,-2.9499,-2.9313,-2.8941,-2.8332,-2.7958,-2.7502,-2.6928,-2.6556,-2.6833,-2.7709,-2.8227,-2.8145,-2.7552,-2.7574,-2.7001,-2.6054,-2.5633,-2.5139,-2.4646,-2.4215,-2.4025,-2.4041,-2.3876,-2.3818,-2.3804,-2.3655,-2.3699,-2.3834,-1.9748,-1.9798,-1.9798,-1.9798,-2.0049,-2.015,-1.9849,-2.0062,-2.015,-1.9849,-1.9798,-1.9901,-2.0245,-2.0295,-2.067,-2.1602,-2.262,-2.3275,-2.3595,-2.3595,-2.3595,-2.3595,-2.3595,-2.3595,-2.3595,-2.3595,-2.3595,-2.3595,-2.3595,-2.3595,-2.3595,-2.3595,-2.3595,-2.3595,-2.3595,-2.3595,-2.3595,-2.3595,-2.3595,-2.3595,-2.3595,-2.3595,-2.3595,-2.3595,-2.3595,-2.3595,-2.3595,-2.3595,-2.3595,-2.3595,-2.3595,-2.3595,-2.3595,-2.3849,-2.4208,-2.4492,-2.4806,-2.5133,-2.5718,-2.6565,-2.7368,-2.7574,-2.8672,-2.9809,-3.0186,-3.0293,-3.0435,-3.1055,-3.0958,-3.0838,-3.1151,-3.119,-3.119,-3.119,-3.119,-3.119,-3.119,-3.119,-3.119,-3.119,-3.119,-3.119,-3.119,-3.119,-3.0886,-3.0176,-3.0108,-2.9786,-2.9025,-2.8636,-2.8247,-2.7806,-2.7469,-2.7097,-2.6691,-2.6438,-2.6656,-2.7284,-2.723,-2.6907,-2.6333,-2.6333,-2.5815,-2.4936,-2.4679,-2.4334,-2.4008,-2.3713,-2.3595,-2.3595,-2.3595,-2.3595,-2.3595,-2.3595,-2.3595,-2.3595,-1.9572,-1.9673,-1.9698,-1.9786,-1.9798,-1.9798,-1.9798,-1.9798,-1.9798,-1.9798,-1.9798,-2.0055,-2.0759,-2.0497,-2.0756,-2.1932,-2.2529,-2.3054,-2.3551,-2.3595,-2.3595,-2.3595,-2.3595,-2.3595,-2.3595,-2.3595,-2.3595,-2.3595,-2.3595,-2.3595,-2.3595,-2.3595,-2.3595,-2.3595,-2.3595,-2.3595,-2.3595,-2.3595,-2.3595,-2.3595,-2.3595,-2.3595,-2.3595,-2.3595,-2.3595,-2.3595,-2.3595,-2.3595,-2.3595,-2.3595,-2.3595,-2.3595,-2.3595,-2.3595,-2.3714,-2.4372,-2.449,-2.4636,-2.5719,-2.6529,-2.7177,-2.7595,-2.8328,-2.9201,-3.0078,-3.0654,-3.1055,-3.1173,-3.119,-3.119,-3.119,-3.119,-3.119,-3.119,-3.119,-3.119,-3.119,-3.119,-3.119,-3.119,-3.119,-3.119,-3.119,-3.1089,-3.0717,-2.9973,-2.9786,-2.9397,-2.8636,-2.7977,-2.7621,-2.7621,-2.7012,-2.6691,-2.6691,-2.6691,-2.6691,-2.6691,-2.5853,-2.5217,-2.4776,-2.4697,-2.443,-2.3991,-2.3837,-2.3752,-2.3736,-2.3638,-2.3595,-2.3595,-2.3595,-2.3595,-2.3595,-2.3595,-2.3595,-2.3595,-1.902,-1.9133,-1.9271,-1.9723,-1.9798,-1.9798,-1.9798,-1.9798,-1.9798,-1.9798,-1.9798,-2.0055,-2.0759,-2.1704,-2.2589,-2.326,-2.3421,-2.3508,-2.3595,-2.3595,-2.3595,-2.3595,-2.3595,-2.3595,-2.3595,-2.3595,-2.3595,-2.3595,-2.3595,-2.3595,-2.3595,-2.3595,-2.3595,-2.3595,-2.3595,-2.3595,-2.3595,-2.3595,-2.3595,-2.3595,-2.3595,-2.3595,-2.3595,-2.3595,-2.3595,-2.3595,-2.3595,-2.3595,-2.3595,-2.3595,-2.3595,-2.3595,-2.3595,-2.3595,-2.3696,-2.4265,-2.4426,-2.4527,-2.5178,-2.6178,-2.7118,-2.7193,-2.8092,-2.9211,-2.9964,-3.0167,-3.0429,-3.1072,-3.119,-3.119,-3.119,-3.119,-3.119,-3.119,-3.119,-3.119,-3.119,-3.119,-3.119,-3.119,-3.119,-3.119,-3.119,-3.0632,-2.9939,-2.9194,-2.8501,-2.7807,-2.7046,-2.6911,-2.6843,-2.6843,-2.6742,-2.6691,-2.6691,-2.6691,-2.6691,-2.6691,-2.6556,-2.6471,-2.6385,-2.5961,-2.5726,-2.5615,-2.4697,-2.4302,-2.4281,-2.3806,-2.3595,-2.3595,-2.3595,-2.3595,-2.3595,-2.3595,-2.3595,-2.3595,-1.8455,-1.8568,-1.8643,-1.8869,-1.9158,-1.9371,-1.9371,-1.961,-1.9798,-1.9798,-1.9547,-1.9472,-1.9759,-2.0315,-2.1153,-2.2454,-2.2527,-2.2848,-2.3565,-2.3595,-2.3595,-2.3595,-2.3595,-2.3595,-2.3595,-2.3595,-2.3595,-2.3595,-2.3595,-2.3595,-2.3595,-2.3595,-2.3595,-2.3595,-2.3595,-2.3595,-2.3595,-2.3595,-2.3595,-2.3595,-2.3595,-2.3595,-2.3595,-2.3595,-2.3595,-2.3595,-2.3595,-2.3595,-2.3595,-2.3595,-2.3794,-2.4032,-2.4032,-2.4266,-2.4552,-2.4792,-2.4871,-2.4973,-2.5503,-2.6045,-2.6564,-2.6816,-2.7296,-2.7909,-2.867,-2.8839,-2.9279,-3.0869,-3.119,-3.119,-3.119,-3.0869,-3.0581,-3.0581,-3.0226,-3.0108,-3.0531,-3.0581,-3.0581,-3.0581,-3.0209,-2.9956,-2.9956,-2.9668,-2.9161,-2.8399,-2.801,-2.7503,-2.6742,-2.6691,-2.6691,-2.6691,-2.6691,-2.6691,-2.6691,-2.6691,-2.6691,-2.6691,-2.6691,-2.6556,-2.6297,-2.6068,-2.5852,-2.554,-2.5051,-2.4681,-2.4368,-2.4127,-2.3879,-2.3595,-2.3595,-2.3595,-2.3595,-2.3595,-2.3595,-2.3595]},{"header":{"parameterUnit":"m.s-1","parameterCategory":1,"la1":30.6,"la2":28.766,"lo1":-90.7593,"lo2":-88.6598,"dy":0.0162,"dx":0.0183,"nx":116,"ny":114,"refTime":"2023-07-28T06:00:00:Z","depth":0,"parameterNumber":3,"parameterNumberName":"V-component_of_WINDS"},"data":[0.0,0.0,0.0,0.0,0.0,0.0,0.0,0.0,0.0,0.0,0.0,0.0,0.0,0.0,0.0,0.0,0.0,0.0,0.0,0.0,0.0,0.0,0.0,0.0,0.0,0.0,0.0,0.0,0.0,0.0,0.0,0.0,0.0,0.0,0.0,0.0,0.0,0.0,0.0,0.0,0.0,0.0,0.0,0.0,0.0,0.0,0.0,0.0,0.0,0.0,0.0,0.0,0.0,0.0,0.0,0.0,0.0,0.0,0.0,0.0,0.0,0.0,0.0,0.0,0.0,0.0,0.0,0.0,0.0,0.0,0.0,0.0,0.0,0.0,0.0,0.0,0.0,0.0,0.0,0.0,0.0,0.0,0.0,0.0,0.0,0.0,0.0,0.0,0.0,0.0,0.0,0.0,0.0,0.0,0.0,0.0,0.0,0.0,0.0,0.0,0.0,0.0,0.0,0.0,0.0,0.0,0.0,0.0,0.0,0.0,0.0,0.0,0.0,0.0,0.0,0.0,0.0,0.0,0.0,0.0,0.0,0.0,0.0,0.0,0.0,0.0,0.0,0.0,0.0,0.0,0.0,0.0,0.0,0.0,0.0,0.0,0.0,0.0,0.0,0.0,0.0,0.0,0.0,0.0,0.0,0.0,0.0,0.0,0.0,0.0,0.0,0.0,0.0,0.0,0.0,0.0,0.0,0.0,0.0,0.0,0.0,0.0,0.0,0.0,0.0,0.0,0.0,0.0,0.0,0.0,0.0,0.0,0.0,0.0,0.0,0.0,0.0,0.0,0.0,0.0,0.0,0.0,0.0,0.0,0.0,0.0,0.0,0.0,0.0,0.0,0.0,0.0,0.0,0.0,0.0,0.0,0.0,0.0,0.0,0.0,0.0,0.0,0.0,0.0,0.0,0.0,0.0,0.0,0.0,0.0,0.0,0.0,0.0,0.0,0.0,0.0,0.0,0.0,0.0,0.0,0.0,0.0,0.0,0.0,0.0,0.0,0.0,0.0,0.0,0.0,0.0,0.0,0.0,0.0,0.0,0.0,0.0,0.0,0.0,0.0,0.0,0.0,0.0,0.0,0.0,0.0,0.0,0.0,0.0,0.0,0.0,0.0,0.0,0.0,0.0,0.0,0.0,0.0,0.0,0.0,0.0,0.0,0.0,0.0,0.0,0.0,0.0,0.0,0.0,0.0,0.0,0.0,0.0,0.0,0.0,0.0,0.0,0.0,0.0,0.0,0.0,0.0,0.0,0.0,0.0,0.0,0.0,0.0,0.0,0.0,0.0,0.0,0.0,0.0,0.0,0.0,0.0,0.0,0.0,0.0,0.0,0.0,0.0,0.0,0.0,0.0,0.0,0.0,0.0,0.0,0.0,0.0,0.0,0.0,0.0,0.0,0.0,0.0,0.0,0.0,0.0,0.0,0.0,0.0,0.0,0.0,0.0,0.0,0.0,0.0,0.0,0.0,0.0,0.0,0.0,0.0,0.0,0.0,0.0,0.0,0.0,0.0,0.0,0.0,0.0,0.0,0.0,0.0,0.0,0.0,0.0,0.0,0.0,0.0,0.0,0.0,0.0,0.0,0.0,0.0,0.0,0.0,0.0,0.0,0.0,0.0,0.0,0.0,0.0,0.0,0.0,0.0,0.0,0.0,0.0,0.0,0.0,0.0,0.0,0.0,0.0,0.0,0.0,0.0,0.0,0.0,0.0,0.0,0.0,0.0,0.0,0.0,0.0,0.0,0.0,0.0,0.0,0.0,0.0,0.0,0.0,0.0,0.0,0.0,0.0,0.0,0.0,0.0,0.0,0.0,0.0,0.0,0.0,0.0,0.0,0.0,0.0,0.0,0.0,0.0,0.0,0.0,0.0,0.0,0.0,0.0,0.0,0.0,0.0,0.0,0.0,0.0,0.0,0.0,0.0,0.0,0.0,0.0,0.0,0.0,0.0,0.0,0.0,0.0,0.0,0.0,0.0,0.0,0.0,0.0,0.0,0.0,0.0,0.0,0.0,0.0,0.0,0.0,0.0,0.0,0.0,0.0,0.0,0.0,0.0,0.0,0.0,0.0,0.0,0.0,0.0,0.0,0.0,0.0,0.0,0.0,0.0,0.0,0.0,0.0,0.0,0.0,0.0,0.0,0.0,0.0,0.0,0.0,0.0,0.0,0.0,0.0,0.0,0.0,0.0,0.0,0.0,0.0,0.0,0.0,0.0,0.0,0.0,0.0,0.0,0.0,0.0,0.0,0.0,0.0,0.0,0.0,0.0,0.0,0.0,0.0,0.0,0.0,0.0,0.0,0.0,0.0,0.0,0.0,0.0,0.0,0.0,0.0,0.0,0.0,0.0,0.0,0.0,0.0,0.0,0.0,0.0,0.0,0.0,0.0,0.0,0.0,0.0,0.0,0.0,0.0,0.0,0.0,0.0,0.0,0.0,0.0,0.0,0.0,0.0,0.0,0.0,0.0,0.0,0.0,0.0,0.0,0.0,0.0,0.0,0.0,0.0,0.0,0.0,0.0,0.0,0.0,0.0,0.0,0.0,0.0,0.0,0.0,0.0,0.0,0.0,0.0,0.0,0.0,0.0,0.0,0.0,0.0,0.0,0.0,0.0,0.0,0.0,0.0,0.0,0.0,0.0,0.0,0.0,0.0,0.0,0.0,0.0,0.0,0.0,0.0,0.0,0.0,0.0,0.0,0.0,0.0,0.0,0.0,0.0,0.0,0.0,0.0,0.0,0.0,0.0,0.0,0.0,0.0,0.0,0.0,0.0,0.0,0.0,0.0,0.0,0.0,0.0,0.0,0.0,0.0,0.0,0.0,0.0,0.0,0.0,0.0,0.0,0.0,0.0,0.0,0.0,0.0,0.0,0.0,0.0,0.0,0.0,0.0,0.0,0.0,0.0,0.0,0.0,0.0,0.0,0.0,0.0,0.0,0.0,0.0,0.0,0.0,0.0,0.0,0.0,0.0,0.0,0.0,0.0,0.0,0.0,0.0,0.0,0.0,0.0,0.0,0.0,0.0,0.0,0.0,0.0,0.0,0.0,0.0,0.0,0.0,0.0,0.0,0.0,0.0,0.0,0.0,0.0,0.0,0.0,0.0,0.0,0.0,0.0,0.0,0.0,0.0,0.0,0.0,0.0,0.0,0.0,0.0,0.0,0.0,0.0,0.0,0.0,0.0,0.0,0.0,0.0,0.0,0.0,0.0,0.0,0.0,0.0,0.0,0.0,0.0,0.0,0.0,0.0,0.0,0.0,0.0,0.0,0.0,0.0,0.0,0.0,0.0,0.0,0.0,0.0,0.0,0.0,0.0,0.0,0.0,0.0,0.0,0.0,0.0,0.0,0.0,0.0,0.0,0.0,0.0,0.0,0.0,0.0,0.0,0.0,0.0,0.0,0.0,0.0,0.0,0.0,0.0,0.0,0.0,0.0,0.0,0.0,0.0,0.0,0.0,0.0,0.0,0.0,0.0,0.0,0.0,0.0,0.0,0.0,0.0,0.0,0.0,0.0,0.0,0.0,0.0,0.0,0.0,0.0,0.0,0.0,0.0,0.0,0.0,0.0,0.0,0.0,0.0,0.0,0.0,0.0,0.0,0.0,0.0,0.0,0.0,0.0,0.0,0.0,0.0,0.0,0.0,0.0,0.0,0.0,0.0,0.0,0.0,0.0,0.0,0.0,0.0,0.0,0.0,0.0,0.0,0.0,0.0,0.0,0.0,0.0,0.0,0.0,0.0,0.0,0.0,0.0,0.0,0.0,0.0,0.0,0.0,0.0,0.0,0.0,0.0,0.0,0.0,0.0,0.0,0.0,0.0,0.0,0.0,0.0,0.0,0.0,0.0,0.0,0.0,0.0,0.0,0.0,0.0,0.0,0.0,0.0,0.0,0.0,0.0,0.0,0.0,0.0,0.0,0.0,0.0,0.0,0.0,0.0,0.0,0.0,0.0,0.0,0.0,0.0,0.0,0.0,0.0,0.0,0.0,0.0,0.0,0.0,0.0,0.0,0.0,0.0,0.0,0.0,0.0,0.0,0.0,0.0,0.0,0.0,0.0,0.0,0.0,0.0,0.0,0.0,0.0,0.0,0.0,0.0,0.0,0.0,0.0,0.0,0.0,0.0,0.0,0.0,0.0,0.0,0.0,0.0,0.0,0.0,0.0,0.0,0.0,0.0,0.0,0.0,0.0,0.0,0.0,0.0,0.0,0.0,0.0,0.0,0.0,0.0,0.0,0.0,0.0,0.0,0.0,0.0,0.0,0.0,0.0,0.0,0.0,0.0,0.0,0.0,0.0,0.0,0.0,0.0,0.0,0.0,0.0,0.0,0.0,0.0,0.0,0.0,0.0,0.0,0.0,0.0,0.0,0.0,0.0,0.0,0.0,0.0,0.0,0.0,0.0,0.0,0.0,0.0,0.0,0.0,0.0,0.0,0.0,0.0,0.0,0.0,0.0,0.0,0.0,0.0,0.0,0.0,0.0,0.0,0.0,0.0,0.0,0.0,0.0,0.0,0.0,0.0,0.0,0.0,0.0,0.0,0.0,0.0,0.0,0.0,0.0,0.0,0.0,0.0,0.0,0.0,0.0,0.0,0.0,0.0,0.0,0.0,0.0,0.0,0.0,0.0,0.0,0.0,0.0,0.0,0.0,0.0,0.0,0.0,0.0,0.0,0.0,0.0,0.0,0.0,0.0,0.0,0.0,0.0,0.0,0.0,0.0,0.0,0.0,0.0,0.0,0.0,0.0,0.0,0.0,0.0,0.0,0.0,0.0,0.0,0.0,0.0,0.0,0.0,0.0,0.0,0.0,0.0,0.0,0.0,0.0,0.0,0.0,0.0,0.0,0.0,0.0,0.0,0.0,0.0,0.0,0.0,0.0,0.0,0.0,0.0,0.0,0.0,0.0,0.0,0.0,0.0,0.0,0.0,0.0,0.0,0.0,0.0,0.0,0.0,0.0,0.0,0.0,0.0,0.0,0.0,0.0,0.0,0.0,0.0,0.0,0.0,0.0,0.0,0.0,0.0,0.0,0.0,0.0,0.0,0.0,0.0,0.0,0.0,0.0,0.0,0.0,0.0,0.0,0.0,0.0,0.0,0.0,0.0,0.0,0.0,0.0,0.0,0.0,0.0,0.0,0.0,0.0,0.0,0.0,0.0,0.0,0.0,0.0,0.0,0.0,0.0,0.0,0.0,0.0,0.0,0.0,0.0,0.0,0.0,0.0,0.0,0.0,0.0,0.0,0.0,0.0,0.0,0.0,0.0,0.0,0.0,0.0,0.0,0.0,0.0,0.0,0.0,0.0,0.0,0.0,0.0,0.0,0.0,0.0,0.0,0.0,0.0,0.0,0.0,0.0,0.0,0.0,0.0,0.0,0.0,0.0,0.0,0.0,0.0,0.0,0.0,0.0,0.0,0.0,0.0,0.0,0.0,0.0,0.0,0.0,0.0,0.0,0.0,0.0,0.0,0.0,0.0,0.0,0.0,0.0,0.0,0.0,0.0,0.0,0.0,0.0,0.0,0.0,0.0,0.0,0.0,0.0,0.0,0.0,0.0,0.0,0.0,0.0,0.0,0.0,0.0,0.0,0.0,0.0,0.0,0.0,0.0,0.0,0.0,0.0,0.0,0.0,0.0,0.0,0.0,0.0,0.0,0.0,0.0,0.0,0.0,0.0,0.0,0.0,0.0,0.0,0.0,0.0,0.0,0.0,0.0,0.0,0.0,0.0,0.0,0.0,0.0,0.0,0.0,0.0,0.0,0.0,0.0,0.0,0.0,0.0,0.0,0.0,0.0,0.0,0.0,0.0,0.0,0.0,0.0,0.0,0.0,0.0,0.0,0.0,0.0,0.0,0.0,0.0,0.0,0.0,0.0,0.0,0.0,0.0,0.0,0.0,0.0,0.0,0.0,0.0,0.0,0.0,0.0,0.0,0.0,0.0,0.0,0.0,0.0,0.0,0.0,0.0,0.0,0.0,0.0,0.0,0.0,0.0,0.0,0.0,0.0,0.0,0.0,0.0,0.0,0.0,0.0,0.0,0.0,0.0,0.0,0.0,0.0,0.0,0.0,0.0,0.0,0.0,0.0,0.0,0.0,0.0,-2.4598,0.0,0.0,0.0,0.0,0.0,0.0,0.0,0.0,0.0,0.0,0.0,0.0,0.0,0.0,0.0,0.0,0.0,0.0,0.0,0.0,0.0,0.0,0.0,0.0,0.0,0.0,0.0,0.0,0.0,0.0,0.0,0.0,0.0,0.0,0.0,0.0,0.0,0.0,0.0,-1.7763,-1.8996,-2.1825,-2.1535,-2.1597,-2.1898,0.0,0.0,0.0,0.0,0.0,0.0,0.0,0.0,0.0,0.0,0.0,0.0,0.0,0.0,0.0,0.0,0.0,0.0,0.0,0.0,0.0,0.0,0.0,0.0,0.0,0.0,0.0,0.0,0.0,0.0,0.0,0.0,0.0,0.0,0.0,0.0,0.0,0.0,0.0,0.0,0.0,0.0,0.0,0.0,0.0,0.0,0.0,0.0,0.0,0.0,0.0,0.0,0.0,0.0,0.0,0.0,0.0,0.0,0.0,0.0,0.0,0.0,0.0,0.0,0.0,0.0,0.0,0.0,0.0,0.0,0.0,-2.5964,0.0,0.0,0.0,0.0,0.0,0.0,0.0,0.0,0.0,0.0,0.0,0.0,0.0,0.0,0.0,0.0,0.0,0.0,0.0,0.0,0.0,0.0,0.0,0.0,0.0,0.0,0.0,0.0,0.0,0.0,0.0,0.0,0.0,0.0,0.0,0.0,0.0,-1.9552,-1.9936,-2.1117,-2.3103,-2.2252,-2.213,-2.2555,-2.1746,0.0,0.0,0.0,0.0,0.0,0.0,0.0,0.0,0.0,0.0,0.0,0.0,0.0,0.0,0.0,0.0,0.0,0.0,0.0,0.0,0.0,0.0,0.0,0.0,0.0,0.0,0.0,0.0,0.0,0.0,0.0,0.0,0.0,0.0,0.0,0.0,0.0,0.0,0.0,0.0,0.0,0.0,0.0,0.0,0.0,0.0,0.0,0.0,0.0,0.0,0.0,0.0,0.0,0.0,0.0,0.0,0.0,0.0,0.0,0.0,0.0,0.0,0.0,0.0,0.0,-3.1971,-3.25,-3.2987,-3.302,-2.9378,-2.7633,-2.7309,0.0,0.0,0.0,0.0,0.0,0.0,0.0,0.0,0.0,0.0,0.0,0.0,0.0,0.0,0.0,0.0,0.0,0.0,0.0,0.0,0.0,0.0,0.0,0.0,0.0,0.0,0.0,0.0,0.0,0.0,0.0,0.0,0.0,0.0,-1.6974,-1.7956,-1.8573,-2.0397,-2.1919,-2.3085,-2.3197,-2.383,-2.4833,-2.218,-2.0743,-2.02,0.0,0.0,0.0,0.0,0.0,0.0,0.0,0.0,0.0,0.0,0.0,0.0,0.0,0.0,0.0,0.0,0.0,0.0,0.0,0.0,0.0,0.0,0.0,0.0,0.0,0.0,0.0,0.0,0.0,0.0,0.0,0.0,0.0,0.0,0.0,0.0,0.0,0.0,0.0,0.0,0.0,-1.5745,-1.7655,0.0,0.0,0.0,0.0,0.0,0.0,0.0,0.0,0.0,0.0,0.0,0.0,0.0,0.0,-3.3258,-3.4385,-3.4717,-3.4183,-3.5464,-3.5453,-3.433,-3.482,-3.457,-3.3771,-3.3208,0.0,-3.0659,-2.9726,0.0,0.0,0.0,0.0,0.0,0.0,0.0,0.0,0.0,0.0,0.0,0.0,0.0,0.0,0.0,0.0,0.0,0.0,0.0,0.0,0.0,0.0,0.0,0.0,0.0,0.0,0.0,0.0,0.0,0.0,0.0,-1.6064,-1.542,-1.6903,-1.8382,-1.9794,-2.1106,-2.2578,-2.4047,-2.3508,-2.3597,-2.4024,-2.2286,-2.1,-2.0015,-1.8744,0.0,0.0,0.0,0.0,0.0,0.0,0.0,0.0,0.0,0.0,0.0,0.0,0.0,0.0,0.0,0.0,0.0,0.0,0.0,0.0,0.0,0.0,0.0,0.0,0.0,0.0,0.0,0.0,0.0,0.0,0.0,0.0,0.0,0.0,0.0,0.0,0.0,0.0,0.0,-1.4707,-1.6191,-1.7125,-1.8293,-1.8809,0.0,0.0,0.0,0.0,0.0,0.0,0.0,0.0,0.0,-3.1316,-3.2179,-3.3306,-3.4813,-3.5549,-3.604,-3.6082,-3.7248,-3.7344,-3.6578,-3.7122,-3.6797,-3.5742,-3.5742,-3.4801,-3.3082,-3.1388,-3.0421,-2.993,0.0,0.0,0.0,0.0,0.0,0.0,0.0,0.0,0.0,0.0,0.0,0.0,0.0,0.0,0.0,0.0,0.0,0.0,0.0,0.0,0.0,-1.4271,0.0,0.0,0.0,0.0,0.0,0.0,0.0,-1.5979,-1.542,-1.6973,-1.8931,-2.1264,-2.1939,-2.3089,-2.4635,-2.4077,-2.3795,-2.3638,-2.2904,-2.1584,-1.9858,-1.9429,-1.8262,-1.6749,0.0,0.0,0.0,0.0,0.0,0.0,0.0,0.0,0.0,0.0,0.0,0.0,0.0,0.0,0.0,0.0,0.0,0.0,0.0,0.0,0.0,0.0,0.0,0.0,0.0,0.0,0.0,0.0,0.0,0.0,0.0,0.0,0.0,0.0,0.0,0.0,0.0,-1.5255,-1.6476,-1.6587,-1.8328,-1.9111,0.0,0.0,0.0,0.0,0.0,0.0,-2.724,-3.0129,-3.2389,-3.3884,-3.4989,-3.583,-3.6383,-3.6906,-3.7477,-3.7901,-3.8692,-3.8841,-3.8452,-3.8903,-3.8467,-3.74,-3.74,-3.6533,-3.4977,-3.2893,-3.1863,-3.1499,-3.0419,-3.0005,0.0,-2.9842,-2.9792,-2.9792,0.0,0.0,0.0,0.0,0.0,0.0,0.0,0.0,0.0,0.0,0.0,0.0,0.0,0.0,-1.4855,-1.6137,-1.6776,-1.6947,0.0,0.0,0.0,-1.6184,-1.6369,-1.6114,-1.541,-1.7431,-1.969,-2.2234,-2.2786,-2.3442,-2.4275,-2.5265,-2.5621,-2.5243,-2.4523,-2.2873,-2.0614,-2.0627,-1.942,-1.7567,-1.7544,0.0,0.0,0.0,0.0,0.0,0.0,0.0,0.0,0.0,0.0,0.0,0.0,0.0,0.0,0.0,0.0,0.0,0.0,0.0,0.0,0.0,0.0,0.0,0.0,0.0,0.0,0.0,0.0,0.0,0.0,0.0,0.0,0.0,0.0,0.0,0.0,0.0,0.0,-1.6587,-1.8512,0.0,0.0,0.0,0.0,-2.1728,-2.2663,-2.5005,-2.9262,-3.0124,-3.223,-3.6132,-3.7262,-3.8115,-3.8693,-3.9233,-3.9509,-3.9546,-3.9609,-3.9647,-3.9659,-3.9659,-3.9032,-3.7965,-3.7965,-3.7324,-3.6144,-3.4474,-3.3144,-3.2064,-3.0997,-3.057,-3.0507,-2.998,-2.9792,-2.9792,0.0,0.0,0.0,0.0,0.0,0.0,0.0,0.0,0.0,0.0,0.0,0.0,0.0,-1.3593,-1.5186,-1.7199,-1.7566,-1.7697,-1.7868,0.0,0.0,0.0,-1.6886,-1.7571,-1.8574,-1.9345,-2.072,-2.2836,-2.3414,-2.4154,-2.509,-2.5179,-2.5319,-2.5492,-2.4505,-2.3138,-2.146,-2.0939,-1.9703,-1.8126,-1.7486,-1.6266,0.0,0.0,0.0,0.0,0.0,0.0,0.0,0.0,0.0,0.0,0.0,0.0,0.0,0.0,0.0,0.0,0.0,0.0,0.0,0.0,0.0,0.0,0.0,0.0,0.0,0.0,0.0,0.0,0.0,0.0,0.0,0.0,0.0,0.0,0.0,0.0,0.0,-1.7209,-1.9813,0.0,0.0,-2.1641,-2.248,-2.3066,-2.5118,-2.7757,-3.0943,-3.288,-3.5143,-3.7939,-3.8693,-3.9195,-3.9396,-3.9597,-3.9697,-3.9697,-3.9697,-3.9697,-3.9685,-3.932,-3.8743,-3.799,-3.7626,-3.7048,-3.6257,-3.4964,-3.3985,-3.3156,-3.1687,-3.111,-3.1047,-3.052,-3.0319,-3.0269,0.0,0.0,0.0,0.0,0.0,0.0,0.0,0.0,0.0,0.0,0.0,-1.1317,-1.3369,-1.4911,-1.6598,-1.86,-1.8546,-1.8429,-1.8592,0.0,0.0,-1.6523,-1.6809,-1.7947,-2.0091,-2.0394,-2.1452,-2.3427,-2.4167,-2.5008,-2.5887,-2.5536,-2.5548,-2.5837,-2.4474,-2.3335,-2.2369,-2.0947,-1.9492,-1.7994,-1.7346,-1.6008,-1.4279,0.0,0.0,0.0,0.0,0.0,0.0,0.0,0.0,0.0,0.0,0.0,0.0,0.0,0.0,0.0,0.0,0.0,0.0,0.0,0.0,0.0,0.0,0.0,0.0,0.0,0.0,0.0,0.0,0.0,0.0,0.0,0.0,0.0,0.0,0.0,-1.7986,-1.7704,-2.0762,-2.2773,-2.2353,-2.3086,-2.3945,-2.4814,-2.6828,-2.9458,-3.2623,-3.4624,-3.6817,-3.9132,-3.9685,-3.9885,-3.9697,-3.9697,-3.9697,-3.9697,-3.9697,-3.9697,-3.9672,-3.912,-3.8555,-3.7977,-3.7425,-3.6759,-3.6006,-3.5102,-3.4399,-3.3746,-3.2252,-3.1549,-3.1336,-3.0809,-3.0507,-3.036,0.0,0.0,0.0,0.0,0.0,0.0,0.0,0.0,0.0,0.0,-1.0977,-1.3383,-1.4805,-1.7056,-1.9065,-2.043,-1.9775,-1.9102,-1.8592,-1.7441,0.0,-1.6164,-1.6125,-1.7242,-1.9606,-2.0427,-2.1886,-2.4004,-2.5059,-2.585,-2.6483,-2.6427,-2.6427,-2.6283,-2.4328,-2.3447,-2.325,-2.0744,-1.8718,-1.7235,-1.7204,-1.5761,-1.3575,0.0,0.0,0.0,0.0,0.0,0.0,0.0,0.0,0.0,0.0,0.0,0.0,0.0,0.0,0.0,0.0,0.0,0.0,0.0,0.0,0.0,0.0,0.0,0.0,0.0,0.0,0.0,0.0,0.0,0.0,0.0,0.0,0.0,-1.3253,-1.6467,-1.865,-1.8179,-2.1471,-2.3691,-2.3301,-2.4033,-2.5234,-2.6914,-2.7461,-2.9782,-3.4318,-3.5204,-3.6799,-3.9581,-4.0212,-4.0237,-3.9697,-3.9697,-3.9697,-3.9697,-3.9697,-3.9685,-3.9647,-3.9094,-3.853,-3.7952,-3.74,-3.6558,-3.5529,-3.4951,-3.4412,-3.3809,-3.2679,-3.1901,-3.1348,-3.0834,-3.0281,-2.9934,0.0,0.0,0.0,0.0,0.0,0.0,0.0,0.0,0.0,0.0,-0.8869,-1.203,-1.6505,-1.7582,-1.8556,-2.0002,-1.96,-1.9102,-1.8592,0.0,0.0,-1.7441,-1.7121,-1.8295,-2.1211,-2.1466,-2.2402,-2.4004,-2.4695,-2.5109,-2.5272,-2.4976,-2.4655,-2.428,-2.3317,-2.2192,-2.0959,-2.0154,-1.8882,-1.7346,-1.7224,-1.594,-1.3915,0.0,0.0,0.0,0.0,0.0,0.0,0.0,0.0,0.0,0.0,0.0,0.0,0.0,0.0,0.0,0.0,0.0,0.0,0.0,0.0,0.0,0.0,0.0,0.0,0.0,0.0,0.0,0.0,0.0,0.0,0.0,0.0,-1.4162,-1.4162,-1.7031,-1.9415,-1.9929,-2.3073,-2.5283,-2.5488,-2.6553,-2.7305,-2.7471,-2.8457,-3.0622,-3.3966,-3.4578,-3.633,-3.9569,-3.9835,-3.9848,-3.9697,-3.9697,-3.9697,-3.9697,-3.9697,-3.9484,-3.9082,-3.8504,-3.7939,-3.7374,-3.6822,-3.642,-3.6069,-3.5115,-3.4625,-3.4387,-3.3269,-3.2491,-3.1926,-3.1373,-3.0583,-2.9869,0.0,0.0,0.0,0.0,0.0,0.0,0.0,0.0,0.0,0.0,-1.125,-1.4055,-1.6876,-1.8015,-1.89,-1.9732,-1.9355,-1.876,-1.8154,0.0,0.0,-1.7165,-1.7287,-1.8321,-2.0455,-2.0948,-2.1701,-2.2919,-2.346,-2.3713,-2.3725,-2.3473,-2.3293,-2.3212,-2.231,-2.1452,-2.0607,-1.9733,-1.8606,-1.7271,-1.685,-1.5566,-1.3874,-1.3183,-1.2127,-1.0975,-1.0283,-0.9682,-0.91,-0.8015,0.0,0.0,0.0,0.0,0.0,0.0,0.0,0.0,0.0,0.0,0.0,0.0,0.0,0.0,0.0,0.0,0.0,0.0,0.0,0.0,0.0,0.0,0.0,0.0,-1.4496,-1.5197,-1.5571,-1.8095,-2.0322,-2.1328,-2.4168,-2.6318,-2.7109,-2.7861,-2.834,-2.8457,-2.9316,-3.0903,-3.3246,-3.4367,-3.6079,-3.8687,-3.9362,-3.9697,-3.9697,-3.9697,-3.9697,-3.9697,-3.9523,-3.9246,-3.8843,-3.8027,-3.7487,0.0,-3.6596,-3.6107,-3.5629,-3.4989,-3.4449,0.0,0.0,0.0,0.0,0.0,-3.0331,-2.9934,0.0,0.0,0.0,0.0,0.0,0.0,0.0,0.0,0.0,0.0,0.0,-1.797,-1.7013,-1.8655,-1.9778,-1.9681,-1.9082,-1.8291,0.0,0.0,0.0,-1.6272,-1.7012,-1.7825,-1.868,-1.9554,-2.0439,-2.1306,-2.1812,-2.2026,-2.2026,-2.1946,-2.2134,-2.2477,-2.125,-2.0813,-2.0865,-1.9278,-1.799,-1.6965,-1.6136,-1.4927,-1.3533,-1.3364,-1.2318,-1.0803,-1.0143,-0.9335,-0.8448,-0.7438,0.0,0.0,0.0,0.0,0.0,0.0,0.0,0.0,0.0,0.0,0.0,0.0,0.0,0.0,0.0,0.0,0.0,0.0,0.0,0.0,0.0,0.0,0.0,0.0,-1.5357,-1.6226,-1.7279,-1.9361,-2.1131,-2.2258,-2.4821,-2.6992,-2.8174,-2.834,-2.8682,-2.9443,-2.9893,-3.0777,-3.2301,0.0,0.0,0.0,0.0,-3.9697,-3.9697,-3.9697,-3.9647,-3.9637,-3.9083,-3.8806,-3.8642,-3.7638,-3.7149,-3.7061,-3.6508,-3.5717,-3.4801,-3.4675,-3.3935,-3.2842,-3.2315,-3.1788,-3.1185,-3.0168,-2.9792,0.0,0.0,0.0,0.0,0.0,0.0,0.0,0.0,0.0,0.0,-1.2195,-1.685,-2.0022,-1.9788,-2.0187,-2.0138,-1.9431,-1.9222,-1.8567,0.0,0.0,-1.748,-1.7139,-1.7617,-1.8275,-1.9173,-1.9341,-1.9888,-2.0725,-2.0891,-2.0935,-2.0882,-2.0539,-2.0355,-2.0482,-2.0224,-1.9471,-1.8416,-1.8366,-1.7375,-1.5878,-1.5371,-1.4453,-1.3309,-1.2983,-1.1722,-1.0087,-0.9933,-0.9439,-0.8563,-0.7481,-0.7105,-0.6976,-0.6126,-0.58,0.0,0.0,0.0,0.0,0.0,0.0,0.0,0.0,0.0,0.0,0.0,0.0,0.0,0.0,0.0,0.0,0.0,0.0,0.0,-1.5157,-1.5965,-1.7155,-1.8927,-1.9813,-2.0833,-2.2478,-2.5482,-2.7646,-2.8232,-2.8603,-2.8867,-2.9033,-2.9453,-3.0338,-3.1839,-3.3671,0.0,-3.7453,-3.8908,-3.9697,-3.9697,-3.9697,-3.9435,-3.903,0.0,0.0,-3.75,-3.7287,-3.6935,-3.6483,-3.5943,-3.5579,-3.5316,-3.4424,-3.3131,-3.17,-3.1587,-3.1235,-3.0683,-3.003,-2.9792,-2.9869,0.0,0.0,0.0,0.0,0.0,0.0,0.0,0.0,0.0,0.0,-1.6663,-1.8865,-2.0422,-1.9831,-1.9107,-1.8691,-1.8636,0.0,0.0,-1.7832,-1.792,-1.7705,-1.8105,-1.8518,-1.892,-1.8765,-1.8957,-1.9567,-1.9414,-1.9299,-1.9309,-1.9226,-1.9354,-1.9606,-1.9228,-1.8831,-1.8294,-1.7726,-1.6729,-1.5372,-1.4328,-1.3266,-1.2231,-1.2199,-1.1325,-1.0013,-0.913,-0.8514,-0.8001,-0.706,-0.6824,-0.6817,-0.6287,-0.6135,-0.6122,0.0,0.0,0.0,0.0,0.0,0.0,0.0,0.0,0.0,0.0,0.0,0.0,0.0,0.0,-1.3561,0.0,0.0,-1.5371,-1.5959,-1.6667,-1.7502,-1.8682,-2.0272,-2.2078,-2.3828,-2.5554,-2.7121,-2.8437,-2.8994,-2.9248,-2.9248,-2.9863,-3.0458,-3.0974,-3.2802,-3.4582,-3.6368,-3.7785,-3.8995,-3.9697,-3.9473,-3.9184,-3.8842,-3.8338,-3.7774,-3.7174,-3.6897,-3.6621,-3.6345,-3.6069,-3.5642,-3.5052,-3.3935,-3.2817,-3.1775,-3.1499,-3.0909,-3.0168,-2.9892,-2.9792,-2.9869,0.0,0.0,0.0,0.0,0.0,0.0,0.0,0.0,0.0,0.0,-1.6374,-1.7311,-1.9808,-1.8826,-1.7797,0.0,0.0,0.0,0.0,-1.7862,-1.8223,-1.8233,-1.8545,-1.8679,-1.8669,-1.8437,-1.8398,-1.8562,-1.8389,-1.8213,-1.8144,-1.8564,-1.8994,-1.935,-1.8607,-1.8467,-1.8638,-1.7116,-1.5934,-1.4955,-1.3518,-1.2264,-1.1213,-1.1174,-1.0599,-0.9623,-0.8221,-0.7497,-0.7106,-0.6464,-0.6217,-0.624,-0.6386,-0.643,-0.641,-0.6295,-0.6338,0.0,0.0,0.0,0.0,0.0,0.0,0.0,0.0,0.0,-1.3146,-1.3627,-1.3868,-1.4202,-1.4917,-1.5424,-1.5972,-1.668,-1.7235,-1.7795,-1.8313,-2.036,-2.256,-2.4641,-2.5405,-2.6644,-2.8719,-2.9238,-2.9482,-2.956,-3.0303,-3.0596,-3.0215,-3.2045,-3.3631,-3.4858,-3.6329,-3.782,-3.9212,-3.8767,-3.8542,-3.8717,-3.7711,-3.7123,-3.701,-3.6571,-3.6358,-3.6358,-3.6132,-3.5479,-3.4487,-3.3483,-3.2729,-3.2177,-3.1725,-3.0896,-2.9942,-2.9829,-2.9792,-2.9934,0.0,0.0,0.0,0.0,0.0,0.0,0.0,0.0,0.0,0.0,0.0,0.0,0.0,0.0,0.0,0.0,0.0,0.0,-1.4857,-1.7254,-1.8943,-1.9143,-1.9177,-1.9117,-1.8841,-1.9272,-1.9177,-1.8562,-1.8975,-1.8945,-1.8574,-1.9014,-1.9443,-1.9769,-1.8727,-1.8135,-1.7796,-1.6441,-1.5162,-1.4149,-1.342,-1.2387,-1.1058,-0.9865,-0.8734,-0.7763,-0.747,-0.6765,-0.5992,-0.6003,-0.6057,-0.6084,-0.6237,-0.6285,-0.6281,-0.6268,0.0,-0.6486,-0.7379,-0.8964,-1.0767,-1.224,-1.2848,-1.3227,0.0,0.0,-1.3955,-1.4021,-1.4656,-1.5231,-1.5331,-1.6233,-1.6987,-1.7081,-1.7375,-1.8099,-1.9659,-1.912,-1.9679,-2.2659,-2.5578,-2.7882,-2.8838,-2.8965,-2.915,-2.9541,-3.001,-3.0254,-3.0195,-3.2045,-3.3191,-3.3293,-3.479,-3.6202,-3.777,-3.725,-3.7295,-3.8108,-3.7484,-3.6923,-3.6458,-3.6383,-3.6358,-3.6307,-3.5328,-3.4562,-3.3935,-3.3332,-3.2729,-3.2202,-3.2139,-3.1461,-3.047,-2.998,-2.9792,-2.9792,0.0,0.0,0.0,0.0,0.0,0.0,0.0,0.0,0.0,0.0,0.0,0.0,0.0,0.0,0.0,0.0,0.0,0.0,-1.6451,-1.8614,-1.9487,-1.8606,-1.9544,-1.9802,-1.9121,-1.9325,-1.9584,-1.9756,-1.895,-1.8711,-1.9023,-1.9235,-1.9023,-1.8528,-1.8382,-1.7811,-1.6769,-1.5553,-1.475,-1.423,-1.3372,-1.1993,-1.0486,-0.9018,-0.7668,-0.6535,-0.6463,-0.6097,0.0,0.0,-0.5956,-0.6057,-0.6213,-0.6318,-0.6383,-0.6383,-0.6325,0.0,-0.8237,-0.956,-1.088,0.0,-1.3367,-1.3794,-1.4088,-1.4249,-1.4436,-1.4776,-1.5277,-1.5752,-1.6092,-1.67,-1.7201,0.0,-1.7655,-1.8104,-1.8756,-1.9718,-2.0605,-2.1258,-2.393,-2.605,-2.6864,-2.7949,-2.8838,-2.9521,-2.9961,-3.0312,-3.0586,-3.1331,-3.2166,-3.3054,-3.3727,-3.4593,-3.5802,-3.6054,-3.6275,-3.6345,-3.6621,-3.6584,-3.6358,-3.6358,-3.6358,-3.6307,-3.519,-3.4587,-3.4311,-3.3432,-3.293,-3.2679,-3.234,-3.1938,-3.1436,-3.0583,-3.0068,-2.9792,0.0,0.0,0.0,0.0,0.0,0.0,0.0,0.0,0.0,0.0,0.0,0.0,0.0,0.0,0.0,0.0,0.0,0.0,0.0,-1.9082,-1.9875,-1.941,-2.0635,-2.0953,-2.0139,-1.9953,-2.0159,-2.0566,-1.9326,-1.8919,-1.9309,-1.9534,-1.8852,-1.7509,-1.7686,-1.7171,-1.6011,-1.4847,-1.4449,-1.4415,-1.3095,-1.1578,-0.9972,-0.8449,-0.6954,-0.5739,-0.5694,-0.5613,0.0,0.0,-0.5844,-0.5993,-0.6149,-0.6298,-0.6413,-0.6413,-0.6805,-0.75,-0.914,-1.0268,-1.1468,-1.3095,-1.3955,-1.4402,-1.4696,-1.4823,-1.5003,-1.5431,-1.5745,-1.6079,-1.6506,-1.6894,-1.7241,-1.7535,-1.7842,-1.8103,-1.8263,-1.9747,-2.0542,-1.9802,-2.1829,-2.3573,-2.4464,-2.6514,-2.8308,-2.9502,-2.9961,-3.04,-3.0869,-3.0889,-3.1391,-3.2489,-3.2472,-3.2986,-3.3922,-3.4831,-3.523,-3.521,-3.601,-3.6358,-3.6358,-3.6358,-3.6358,-3.6307,-3.519,-3.4726,-3.4638,-3.3533,-3.3081,-3.3031,-3.2616,-3.2353,-3.2102,-3.1173,-3.0482,-2.9993,0.0,0.0,0.0,0.0,0.0,0.0,0.0,0.0,0.0,0.0,0.0,0.0,0.0,0.0,0.0,0.0,0.0,0.0,0.0,-1.7716,-2.0134,-2.281,-2.299,-2.2808,-2.2182,-2.1646,-2.1095,-2.0566,-2.0526,-2.0117,-1.9343,-2.0155,-1.9426,-1.7317,-1.6574,-1.627,-1.6089,-1.4711,-1.4262,-1.4382,-1.2602,-1.1087,-0.973,-0.8089,-0.6705,-0.5579,-0.543,0.0,0.0,-0.5545,-0.5691,-0.5833,-0.5986,-0.6142,0.0,-0.6268,-0.771,-0.9316,-0.9982,-1.165,-1.3333,-1.4269,-1.471,-1.5017,-1.5304,-1.5585,-1.5792,-1.5812,-1.6052,-1.6266,-1.6286,-1.676,-1.7241,-1.7535,-1.7842,-1.8243,-1.8818,-1.8252,-1.7808,-1.8009,-1.9682,-2.1006,0.0,-2.4633,-2.7306,-2.939,-2.9961,-3.04,-3.0869,-3.0889,-3.0889,-3.0995,-3.1015,-3.1391,-3.2457,-3.3287,-3.4159,-3.521,-3.601,-3.6358,-3.6358,-3.6358,-3.6358,-3.6307,-3.519,-3.4726,-3.4638,-3.3533,-3.3081,-3.3081,-3.3056,-3.2704,-3.2139,-3.1574,-3.1035,-3.052,0.0,0.0,0.0,0.0,0.0,0.0,0.0,0.0,0.0,0.0,0.0,0.0,0.0,0.0,0.0,0.0,0.0,0.0,0.0,-1.8402,-1.9495,-2.028,-2.1737,-2.2441,-2.2008,-2.0423,-1.9129,-1.8388,-1.8013,-1.7133,-1.585,-1.6111,-1.5774,-1.4748,-1.4512,-1.4552,-1.4789,-1.4081,-1.3633,-1.328,-1.2306,-1.0605,-0.8714,-0.8005,-0.6841,-0.5583,0.0,0.0,0.0,-0.5538,-0.5684,-0.5827,-0.5983,-0.6135,-0.6416,-0.7099,-0.803,-0.9209,-1.0803,-1.2123,-1.3322,-1.4507,-1.5037,-1.5331,-1.5618,-1.5758,-1.5772,-1.5578,-1.5625,-1.5631,-1.5438,-1.5879,-1.6366,-1.6667,-1.7462,-1.8116,-1.831,-1.916,-1.9153,-1.7634,-1.9155,0.0,0.0,0.0,0.0,-2.8613,-2.8857,-2.9375,-3.0371,-3.0496,-3.0623,-3.0879,-3.0889,-3.0748,-3.0509,-3.1695,-3.2581,-3.3284,-3.544,-3.6358,-3.6358,-3.5994,-3.5818,-3.5755,-3.465,-3.4173,-3.4123,-3.3382,-3.3081,-3.3081,-3.3081,-3.2717,-3.2152,-3.1599,-3.106,-3.0532,0.0,0.0,0.0,0.0,0.0,0.0,0.0,0.0,0.0,0.0,0.0,0.0,0.0,0.0,0.0,0.0,0.0,0.0,0.0,0.0,-1.8817,-1.8326,-1.9936,-2.0684,-2.0557,-1.8713,-1.7465,-1.6797,-1.6256,-1.4981,-1.3151,-1.3365,-1.3331,-1.3041,-1.2883,-1.3114,-1.3464,-1.322,-1.2838,-1.2336,-1.133,-0.9813,-0.7979,-0.736,-0.6486,0.0,0.0,0.0,0.0,-0.5576,-0.5684,-0.5827,-0.5983,-0.6135,-0.6511,-0.7708,-0.8622,-0.963,-1.1882,-1.3089,-1.3976,-1.5206,-1.5491,-1.5598,-1.5785,-1.5752,-1.5591,-1.5304,-1.5157,-1.4997,-1.4703,-1.5037,-1.5491,-1.5892,-1.6687,-1.7442,-1.7969,-1.8826,-1.8935,-1.7768,-1.8919,0.0,0.0,0.0,0.0,-2.8174,-2.8428,-2.9004,-3.0117,-3.0139,-3.0363,-3.0879,-3.0703,-3.028,-2.9609,-3.0792,-3.1898,-3.3044,-3.4655,-3.5767,-3.6332,-3.5592,-3.5353,-3.5399,-3.4374,-3.3784,-3.3558,-3.3006,-3.2654,-3.2478,-3.2478,-3.2252,-3.1851,-3.1311,-3.0896,-3.0532,0.0,0.0,0.0,0.0,0.0,0.0,0.0,0.0,0.0,0.0,0.0,0.0,0.0,0.0,0.0,0.0,0.0,0.0,0.0,0.0,0.0,-1.7225,-1.7761,-1.8054,-1.7971,-1.6767,-1.6041,-1.5788,-1.5218,-1.3708,-1.1473,-1.1998,-1.2305,-1.2267,-1.1887,-1.1926,-1.226,-1.2263,-1.1999,-1.1494,-0.9903,-0.8687,-0.7634,-0.6459,0.0,0.0,0.0,0.0,-0.5783,-0.5654,-0.5785,-0.5943,-0.6165,-0.6402,-0.6827,-0.8337,-0.9524,-1.0939,-1.335,-1.4479,-1.5251,-1.6072,-1.6059,-1.5845,-1.5812,-1.5585,-1.5291,-1.4983,-1.4669,-1.4362,0.0,0.0,-1.4689,-1.5277,-1.5665,-1.64,-1.7842,-1.7335,-1.7228,0.0,0.0,0.0,0.0,0.0,0.0,-2.8116,0.0,-2.9228,-2.9955,-3.0094,-3.0345,-3.085,-3.0427,-3.0,-2.9589,-3.0483,-3.2104,-3.4178,-3.3658,-3.4449,-3.6175,-3.5111,-3.4898,-3.5403,-3.4324,-3.3545,-3.2993,-3.2441,-3.1888,-3.1386,-3.1386,-3.1373,-3.1286,-3.0796,-3.0595,-3.0507,0.0,0.0,0.0,0.0,0.0,0.0,0.0,0.0,0.0,0.0,0.0,0.0,0.0,0.0,0.0,0.0,0.0,0.0,0.0,0.0,0.0,0.0,0.0,0.0,-1.643,-1.538,-1.4813,-1.4805,-1.3397,-1.2522,-1.205,-1.2043,-1.1978,-1.1995,-1.1881,-1.1895,-1.197,-1.1988,-1.1592,-1.0802,0.0,-0.8346,-0.7323,0.0,0.0,0.0,0.0,0.0,-0.5813,-0.5891,-0.6764,-0.8053,-0.8895,-0.9399,-1.005,-1.1264,-1.2209,-1.3266,-1.4635,-1.5629,-1.6266,-1.6273,-1.6219,-1.6046,-1.5605,-1.5284,-1.493,-1.4416,-1.3901,-1.3454,0.0,0.0,0.0,-1.4977,-1.6052,0.0,-1.7929,-1.823,0.0,-1.8176,0.0,-2.1487,-2.2641,-2.487,0.0,0.0,-2.8281,-2.8467,-2.9356,-2.9327,-2.954,-3.0208,-2.9888,-2.9547,-2.9123,-2.9976,-3.0745,-3.1338,-3.2208,-3.3215,-3.4233,-3.3477,-3.3607,-3.4274,-3.3583,-3.2955,-3.2416,-3.2277,-3.1888,-3.1386,-3.1386,-3.116,-3.0796,-3.067,-3.0357,-2.998,0.0,0.0,0.0,0.0,0.0,0.0,0.0,0.0,0.0,0.0,0.0,0.0,0.0,0.0,0.0,0.0,0.0,0.0,0.0,0.0,0.0,0.0,-1.5545,-1.5376,-1.506,-1.3651,-1.2956,-1.3093,-1.1923,0.0,-1.1696,-1.1477,-1.1379,-1.1535,-1.1535,-1.1616,-1.188,-1.1736,0.0,0.0,0.0,0.0,0.0,0.0,0.0,0.0,0.0,-0.6414,-0.6942,0.0,0.0,-0.9433,-1.0465,-1.0989,-1.1542,-1.3056,-1.3876,-1.4617,-1.6111,-1.6727,-1.686,-1.67,-1.6366,-1.5925,-1.5337,-1.4883,-1.4409,-1.3821,-1.3327,0.0,-1.2605,-1.3639,0.0,0.0,0.0,0.0,-1.9133,-1.8666,-1.8844,0.0,-2.0798,0.0,-2.459,-2.5492,-2.6902,0.0,-2.8594,-2.8397,-2.8747,-2.8896,-2.8974,-2.926,-2.9303,-2.9074,-2.8643,-2.9116,-2.9713,-3.0317,-3.06,-3.1757,-3.3446,-3.2462,-3.2726,-3.3872,0.0,-3.2754,-3.219,-3.1951,-3.1537,-3.1035,-3.0783,-3.0507,-3.0256,-3.0256,-3.0055,-2.9792,0.0,0.0,0.0,0.0,0.0,0.0,0.0,0.0,0.0,0.0,0.0,0.0,0.0,0.0,0.0,0.0,0.0,0.0,0.0,0.0,0.0,0.0,-1.3824,-1.36,-1.3902,-1.2069,-1.1229,-1.1483,-1.0981,-1.0815,0.0,0.0,0.0,0.0,0.0,0.0,0.0,0.0,0.0,0.0,0.0,0.0,0.0,0.0,0.0,0.0,-0.6696,-0.7364,-0.8765,-1.01,-1.0577,-1.0819,-1.1723,-1.2086,-1.2609,-1.4588,-1.5097,-1.5551,-1.7429,-1.7669,-1.7248,-1.7174,-1.6513,-1.5712,-1.5057,-1.4449,-1.3861,-1.3273,0.0,-1.2605,-1.2351,-1.3679,-1.4937,-1.5511,0.0,-1.7864,-2.0589,-1.916,-1.9353,-2.3448,-2.1885,-2.2198,-2.6664,-2.6192,-2.6805,-2.9624,-2.9336,-2.8814,-2.8294,-2.8636,-2.867,-2.8286,-2.8641,-2.8662,-2.8301,-2.8291,-2.89,-3.0005,-2.9143,-3.0177,-3.2826,-3.1424,-3.1812,-3.3482,0.0,0.0,-3.2177,-3.17,-3.1148,-3.057,-3.0093,-2.9854,-2.9792,-2.9792,-2.9792,-2.9792,0.0,0.0,0.0,0.0,0.0,0.0,0.0,0.0,0.0,0.0,0.0,0.0,0.0,0.0,0.0,0.0,0.0,0.0,0.0,0.0,0.0,0.0,-1.4209,-1.3748,-1.3028,-1.2199,-1.1744,-1.179,-1.1438,-1.1223,0.0,0.0,0.0,0.0,0.0,0.0,0.0,0.0,0.0,0.0,0.0,0.0,0.0,0.0,0.0,0.0,-0.7442,-0.8845,-1.0532,-1.174,-1.2498,-1.3088,-1.4371,-1.5253,-1.5907,-1.655,-1.6955,-1.7239,-1.7809,-1.7969,-1.7769,-1.7275,-1.6673,-1.5912,-1.4843,-1.4142,0.0,0.0,-1.2592,-1.2365,-1.2311,-1.2946,-1.4083,-1.5875,-1.6695,-1.7837,-1.9887,-2.0786,-2.1125,0.0,-2.3773,0.0,0.0,0.0,0.0,0.0,0.0,0.0,-2.8351,-2.8632,-2.87,-2.8329,-2.834,-2.8369,-2.8291,-2.8291,-2.8398,-2.8591,-2.8088,-2.8472,-2.961,-2.8978,-2.9833,-3.1632,0.0,0.0,-3.2202,-3.2102,-3.1486,-3.0608,-3.0507,-3.0193,-2.9792,-2.9792,-2.9792,-2.9792,0.0,0.0,0.0,0.0,0.0,0.0,0.0,0.0,0.0,0.0,-2.0878,-2.0858,0.0,0.0,0.0,0.0,0.0,0.0,0.0,0.0,0.0,0.0,0.0,-1.367,-1.3733,-1.2688,0.0,0.0,0.0,0.0,0.0,0.0,0.0,0.0,0.0,0.0,0.0,0.0,0.0,0.0,0.0,0.0,0.0,0.0,0.0,0.0,0.0,-1.0011,-1.1556,-1.2147,-1.3194,-1.4411,-1.5564,-1.6139,-1.66,-1.7201,-1.7582,-1.7909,-1.8377,-1.839,-1.813,-1.7522,-1.6707,-1.5732,-1.4563,0.0,0.0,0.0,-1.2405,-1.2305,-1.2305,-1.3314,0.0,-1.5651,-1.697,-1.8664,-2.1106,-2.1582,0.0,-2.4281,-2.5371,0.0,0.0,0.0,0.0,0.0,0.0,0.0,0.0,-2.8978,-2.8455,-2.8301,-2.8291,-2.8291,-2.8291,-2.8291,-2.8184,-2.7959,-2.7529,-2.7773,-2.8467,-2.8114,-2.9075,-3.1199,0.0,0.0,-3.2177,-3.1612,-3.1072,-3.0583,-3.0306,-3.003,-2.9792,-2.9792,-2.9792,-2.9792,0.0,0.0,0.0,0.0,0.0,0.0,0.0,-2.0947,-2.1162,-2.1194,-2.1204,-2.1104,-2.0771,-1.9935,0.0,0.0,0.0,0.0,0.0,0.0,0.0,0.0,0.0,0.0,0.0,0.0,0.0,0.0,0.0,0.0,0.0,0.0,0.0,0.0,0.0,0.0,0.0,0.0,0.0,0.0,0.0,0.0,0.0,0.0,0.0,0.0,0.0,-1.1094,-1.2398,-1.2514,-1.35,-1.491,-1.5658,-1.6066,-1.6406,-1.7101,-1.7642,-1.8143,-1.8684,-1.8664,-1.8343,-1.7736,-1.67,-1.5524,-1.4355,-1.3634,0.0,-1.2432,-1.2305,-1.2305,-1.2305,-1.3497,-1.4734,0.0,-1.694,-1.8891,-2.2048,-2.2177,-2.3349,0.0,0.0,0.0,0.0,0.0,0.0,0.0,0.0,0.0,0.0,-2.9069,-2.8339,-2.8301,-2.8291,-2.8291,-2.8291,-2.8203,-2.7988,-2.7656,-2.7129,-2.7182,-2.7775,-2.7417,-2.8347,-3.031,0.0,0.0,0.0,-3.1041,-3.0721,-3.057,-3.0143,-2.9892,-2.9792,-2.9792,-2.9792,-2.9792,0.0,0.0,0.0,0.0,0.0,0.0,0.0,-2.0947,-2.1167,-2.1173,-2.1192,-2.1152,-2.1143,-2.0713,0.0,0.0,0.0,0.0,0.0,0.0,0.0,0.0,0.0,0.0,0.0,0.0,0.0,0.0,0.0,0.0,0.0,0.0,0.0,0.0,0.0,0.0,0.0,0.0,0.0,0.0,0.0,0.0,0.0,0.0,0.0,0.0,0.0,0.0,-1.3167,0.0,0.0,-1.4229,-1.4569,-1.5418,-1.6286,-1.6373,0.0,0.0,-1.8444,-1.851,-1.8343,-1.7736,-1.67,-1.5524,-1.4355,0.0,-1.3039,-1.2432,-1.2305,-1.2305,-1.2305,-1.2419,-1.3543,-1.6477,-1.6325,-1.7183,-2.1107,-2.2664,-2.3489,-2.3997,0.0,0.0,0.0,0.0,0.0,0.0,0.0,0.0,0.0,-2.8731,-2.832,-2.8291,-2.8291,-2.8291,-2.8291,-2.792,-2.7705,-2.7656,-2.6836,-2.6516,-2.6566,-2.6123,-2.634,-2.7306,0.0,0.0,0.0,-3.0939,-3.1035,-3.0608,-3.0557,-3.0231,-2.9792,-2.9792,-2.9792,-2.9792,0.0,0.0,0.0,0.0,0.0,0.0,0.0,-2.0917,-2.1273,-2.1603,-2.1343,-2.131,-2.1625,-2.0976,-2.0566,0.0,0.0,0.0,0.0,0.0,0.0,0.0,0.0,0.0,0.0,0.0,0.0,0.0,0.0,0.0,0.0,0.0,0.0,0.0,0.0,0.0,0.0,0.0,0.0,0.0,0.0,0.0,0.0,0.0,0.0,0.0,0.0,0.0,0.0,0.0,0.0,0.0,-1.4015,-1.4436,0.0,0.0,-1.6453,-1.7341,-1.7816,-1.8083,-1.8076,-1.7475,-1.6567,-1.5524,-1.4355,0.0,-1.33,-1.2692,-1.2719,-1.2846,-1.2846,-1.3362,-1.407,-1.4889,-1.5761,0.0,-1.858,-2.0793,-2.2772,0.0,0.0,0.0,0.0,0.0,0.0,0.0,0.0,0.0,0.0,0.0,-2.8174,-2.792,-2.792,-2.7783,-2.7529,-2.7353,-2.7148,-2.6894,-2.6553,-2.6113,-2.5586,-2.541,-2.5822,0.0,0.0,0.0,0.0,-2.9359,-2.9702,-3.0118,-3.0118,-2.998,-2.9792,-2.9792,-2.9792,-2.9792,0.0,0.0,0.0,0.0,0.0,0.0,-2.0566,-2.0917,-2.1296,-2.1686,-2.137,-2.1249,-2.1328,-2.0928,-2.0528,-2.0251,0.0,0.0,0.0,0.0,0.0,0.0,0.0,0.0,0.0,0.0,0.0,0.0,0.0,0.0,0.0,0.0,0.0,0.0,0.0,0.0,0.0,0.0,0.0,0.0,0.0,0.0,0.0,0.0,0.0,0.0,0.0,0.0,0.0,0.0,0.0,-1.4035,-1.3734,-1.3848,-1.4208,-1.483,-1.5691,-1.6553,-1.7054,-1.7482,-1.7655,-1.7148,-1.6353,-1.5438,0.0,0.0,-1.35,-1.2986,-1.306,-1.3206,-1.3121,-1.3724,-1.4209,-1.4237,-1.5545,-1.6734,-1.7258,-1.9684,0.0,0.0,0.0,0.0,0.0,0.0,0.0,0.0,0.0,0.0,0.0,0.0,-2.7969,-2.7676,-2.7539,-2.7324,-2.7021,-2.6894,-2.668,-2.6387,-2.626,-2.5869,-2.5264,-2.5127,-2.5365,0.0,0.0,0.0,0.0,-2.7997,-2.8597,-2.9365,-2.9702,-2.9792,-2.9792,-2.9792,-2.9792,-2.9792,0.0,0.0,0.0,0.0,0.0,0.0,0.0,-2.0947,-2.1193,-2.1241,-2.1194,-2.0904,-2.0152,-2.0395,-2.0241,-1.9498,0.0,0.0,0.0,0.0,0.0,0.0,0.0,0.0,0.0,0.0,0.0,-1.4068,-1.4128,0.0,0.0,0.0,0.0,0.0,0.0,0.0,0.0,0.0,0.0,0.0,0.0,0.0,0.0,0.0,0.0,0.0,0.0,0.0,0.0,0.0,0.0,0.0,0.0,-1.3848,-1.4088,-1.4095,-1.4923,-1.5905,-1.6206,-1.6714,-1.7088,-1.6787,-1.6052,-1.5244,0.0,-1.4062,-1.3561,-1.3267,-1.3206,-1.3127,-1.2942,-1.2942,-1.3512,-1.537,-1.5679,0.0,-1.7796,-2.0052,0.0,0.0,0.0,0.0,0.0,0.0,0.0,0.0,0.0,0.0,0.0,0.0,-2.7666,-2.7666,-2.7246,-2.7021,-2.7012,-2.6602,-2.6396,-2.6387,-2.5947,-2.5742,-2.5713,-2.5273,0.0,0.0,0.0,0.0,0.0,-2.7186,-2.8096,-2.8255,-2.9365,-2.9792,-2.9792,-2.9792,-2.9792,-2.9792,0.0,0.0,0.0,0.0,0.0,0.0,0.0,-2.0684,-2.0918,-2.1191,-2.0987,-2.08,-2.0822,-2.0653,-2.0215,-1.9208,0.0,0.0,0.0,0.0,0.0,0.0,0.0,0.0,0.0,0.0,-1.4119,-1.4088,-1.4117,-1.4,-1.3904,0.0,0.0,0.0,0.0,0.0,0.0,0.0,0.0,0.0,0.0,0.0,0.0,0.0,0.0,0.0,0.0,0.0,0.0,0.0,0.0,0.0,0.0,0.0,0.0,-1.4028,-1.4636,-1.5304,-1.5591,-1.5952,-1.6179,-1.5885,-1.5451,-1.495,-1.4355,-1.4082,-1.3861,-1.3567,-1.3667,-1.3808,-1.3718,-1.3701,-1.394,-1.449,-1.5809,0.0,0.0,0.0,0.0,0.0,0.0,0.0,0.0,0.0,0.0,0.0,0.0,0.0,0.0,0.0,0.0,-2.7217,-2.6807,-2.6445,-2.6143,-2.6006,-2.5947,-2.5947,-2.5801,-2.542,-2.4834,0.0,0.0,0.0,0.0,0.0,0.0,-2.6378,-2.7452,-2.8176,-2.9365,-2.9792,-2.9792,-2.9792,-2.9792,-2.9792,0.0,0.0,0.0,0.0,0.0,0.0,0.0,-2.0566,-2.0664,-2.0966,-2.0761,-2.0557,-2.0547,-2.0557,-2.0027,-1.8641,0.0,0.0,0.0,0.0,0.0,0.0,0.0,0.0,0.0,-1.4088,-1.4142,-1.4347,-1.4347,-1.4341,-1.4249,-1.4249,-1.4195,0.0,0.0,0.0,0.0,0.0,0.0,0.0,0.0,0.0,-1.4088,0.0,0.0,0.0,0.0,0.0,0.0,0.0,0.0,0.0,0.0,0.0,0.0,0.0,-1.4349,-1.4696,-1.499,-1.5277,-1.5458,-1.5277,-1.501,0.0,-1.4335,-1.4168,-1.4035,-1.3848,-1.3955,-1.4068,-1.4085,-1.4122,-1.4088,-1.4074,-1.5245,-1.6487,0.0,0.0,0.0,0.0,0.0,0.0,0.0,0.0,0.0,0.0,0.0,0.0,0.0,0.0,0.0,-2.6777,-2.6367,-2.6016,-2.5742,-2.5566,-2.5488,-2.5478,-2.5322,-2.4951,-2.4414,0.0,0.0,0.0,0.0,0.0,0.0,-2.5891,-2.6883,-2.7614,-2.9209,-2.9792,-2.9792,-2.9792,-2.9792,-2.9792,0.0,0.0,0.0,0.0,0.0,0.0,0.0,0.0,0.0,0.0,-2.0566,-2.0343,-1.954,-2.0139,-1.993,0.0,0.0,0.0,0.0,0.0,0.0,0.0,0.0,0.0,0.0,-1.4088,-1.4314,-1.4683,-1.4703,-1.4623,-1.4522,-1.4543,-1.4396,-1.4122,-1.4122,0.0,0.0,0.0,0.0,0.0,0.0,0.0,0.0,0.0,0.0,0.0,0.0,0.0,0.0,0.0,0.0,0.0,0.0,0.0,0.0,0.0,0.0,0.0,0.0,-1.4689,-1.4903,-1.4903,-1.4696,-1.4489,-1.4489,-1.4282,0.0,-1.4088,-1.4088,-1.4126,-1.4213,-1.4316,-1.433,-1.4342,-1.4497,0.0,0.0,0.0,0.0,0.0,0.0,0.0,0.0,0.0,0.0,0.0,0.0,0.0,0.0,0.0,0.0,0.0,-2.5928,-2.5713,-2.5742,-2.5293,-2.5068,-2.5059,-2.4619,-2.4404,-2.4355,0.0,0.0,0.0,0.0,0.0,0.0,-2.5473,-2.64,-2.673,-2.887,-2.9714,-2.9792,-2.9792,-2.9792,-2.9792,0.0,0.0,0.0,0.0,0.0,0.0,0.0,0.0,0.0,0.0,0.0,-2.0547,-2.0343,-2.0459,0.0,0.0,0.0,0.0,0.0,0.0,0.0,0.0,0.0,0.0,0.0,-1.4088,-1.4122,-1.428,-1.4416,-1.4522,-1.4522,-1.475,-1.4703,-1.4422,-1.4422,0.0,0.0,0.0,0.0,0.0,0.0,0.0,0.0,0.0,0.0,0.0,-1.4088,-1.4657,0.0,0.0,0.0,0.0,0.0,0.0,0.0,0.0,-1.4088,-1.4102,-1.4168,0.0,-1.4289,-1.4289,-1.4242,-1.4188,0.0,-1.4135,-1.4088,-1.4088,-1.4088,-1.4412,-1.5538,-1.6193,-1.6523,-1.6587,-1.7987,-1.9344,0.0,0.0,0.0,0.0,0.0,0.0,0.0,0.0,0.0,0.0,0.0,0.0,0.0,0.0,0.0,0.0,-2.572,-2.5661,-2.5732,-2.5293,-2.5068,-2.5059,-2.4619,-2.4248,0.0,0.0,0.0,0.0,0.0,0.0,0.0,-2.4628,-2.5714,-2.6637,-2.7947,-2.9028,-2.9792,-2.9792,-2.9792,-2.9792,0.0,0.0,0.0,0.0,0.0,0.0,0.0,0.0,0.0,0.0,0.0,0.0,0.0,0.0,0.0,0.0,0.0,0.0,0.0,0.0,0.0,0.0,0.0,0.0,-1.4088,-1.4088,-1.4222,-1.4489,-1.4649,-1.479,-1.4923,-1.509,-1.5003,-1.4716,-1.4583,-1.4436,0.0,0.0,0.0,0.0,-1.481,0.0,0.0,0.0,0.0,0.0,-1.5553,-1.5959,0.0,-1.5794,-1.5959,-1.6355,0.0,0.0,0.0,0.0,-1.5553,-1.5553,-1.5553,-1.4824,-1.4088,-1.4088,-1.4088,-1.4088,-1.4088,-1.4088,-1.4088,-1.4088,-1.4088,-1.4314,-1.5072,-1.6676,-1.7726,0.0,-1.9469,0.0,0.0,0.0,0.0,0.0,0.0,0.0,0.0,0.0,0.0,0.0,0.0,0.0,0.0,0.0,0.0,0.0,0.0,-2.5202,-2.5376,-2.5331,-2.5205,-2.4726,-2.4153,-2.3711,0.0,0.0,0.0,0.0,0.0,0.0,-2.3222,-2.4296,-2.5126,-2.588,-2.7522,-2.8518,-2.9106,-2.9624,-2.9792,-2.9792,0.0,0.0,0.0,0.0,0.0,0.0,0.0,0.0,0.0,0.0,0.0,0.0,0.0,0.0,0.0,0.0,0.0,0.0,0.0,0.0,0.0,0.0,0.0,-1.4168,-1.4155,-1.4155,-1.4422,-1.4963,-1.501,-1.5157,-1.5398,-1.5444,-1.5304,-1.5017,-1.4669,-1.4603,0.0,0.0,0.0,0.0,-1.5944,0.0,0.0,0.0,0.0,0.0,0.0,0.0,0.0,-1.7334,-1.7423,-1.7496,-1.7334,0.0,0.0,0.0,0.0,0.0,-1.7342,-1.5959,-1.458,-1.458,-1.4496,-1.4328,-1.4328,-1.425,-1.4088,-1.4088,-1.4271,-1.4398,-1.4552,-1.6549,0.0,0.0,0.0,0.0,0.0,0.0,0.0,0.0,0.0,0.0,0.0,0.0,0.0,0.0,0.0,0.0,0.0,0.0,0.0,0.0,0.0,0.0,-2.4601,-2.5169,-2.5127,-2.4386,-2.3487,-2.3135,-2.3135,0.0,0.0,0.0,0.0,0.0,-2.3135,-2.4125,-2.4617,-2.5041,-2.7023,-2.7936,-2.8255,-2.9365,-2.9792,-2.9792,0.0,0.0,0.0,0.0,0.0,0.0,0.0,0.0,0.0,0.0,0.0,0.0,0.0,0.0,0.0,0.0,0.0,0.0,0.0,0.0,0.0,0.0,-1.5255,-1.4442,-1.4456,-1.4456,-1.4623,-1.4963,-1.5211,-1.5351,-1.5398,-1.5651,-1.5611,-1.5304,-1.4763,-1.5016,-1.5826,-1.5595,-1.6034,-1.7009,-1.7009,0.0,0.0,0.0,0.0,0.0,0.0,0.0,0.0,-1.7666,-1.7908,-1.855,-1.7585,0.0,0.0,0.0,0.0,0.0,-1.7342,-1.709,-1.6772,-1.6772,-1.6116,-1.5455,-1.5455,-1.4734,-1.4088,-1.4088,-1.4853,-1.5715,-1.6683,-1.7203,-1.808,0.0,0.0,0.0,0.0,0.0,0.0,0.0,0.0,0.0,0.0,0.0,0.0,0.0,0.0,0.0,0.0,0.0,0.0,0.0,0.0,0.0,0.0,-2.4227,-2.4516,-2.4386,-2.3487,-2.3135,-2.3135,-2.3135,0.0,0.0,0.0,0.0,-2.3135,-2.3309,-2.3963,-2.4957,-2.6213,-2.7279,-2.8255,-2.9365,-2.9792,-2.9792,0.0,0.0,0.0,0.0,0.0,0.0,0.0,0.0,0.0,0.0,0.0,0.0,0.0,0.0,0.0,0.0,0.0,0.0,0.0,0.0,0.0,-1.758,-1.7219,-1.652,-1.5361,-1.4926,-1.4903,-1.5197,-1.6036,-1.6097,-1.5631,-1.5605,-1.579,-1.626,-1.5889,-1.6189,-1.703,-1.6949,-1.7434,-1.823,0.0,0.0,0.0,0.0,0.0,0.0,0.0,0.0,0.0,0.0,-1.9432,-1.9756,-1.9274,0.0,0.0,0.0,0.0,0.0,-1.9107,-1.9107,-1.9161,-1.9308,-1.7972,-1.6648,-1.6838,-1.6329,-1.5763,-1.5353,-1.5963,-1.653,0.0,0.0,-1.9235,0.0,0.0,0.0,0.0,0.0,0.0,0.0,0.0,0.0,0.0,0.0,0.0,0.0,0.0,0.0,0.0,0.0,0.0,0.0,0.0,0.0,0.0,-2.3477,-2.3683,-2.3683,-2.3252,-2.3135,-2.3135,-2.3135,-2.3135,0.0,0.0,-2.3135,-2.3135,-2.3135,-2.3387,-2.3943,-2.4429,-2.5373,-2.6521,-2.8267,-2.9275,-2.9792,0.0,0.0,0.0,0.0,0.0,0.0,0.0,0.0,0.0,0.0,0.0,0.0,0.0,0.0,0.0,0.0,0.0,0.0,0.0,0.0,-1.9839,-1.854,-1.9228,-1.8603,-1.6421,-1.6066,-1.609,-1.6395,-1.7014,-1.6963,-1.6197,-1.5889,-1.6373,-1.7417,-1.7259,-1.7525,-1.8221,-1.8296,-1.874,-1.9362,0.0,0.0,0.0,0.0,0.0,0.0,0.0,0.0,0.0,0.0,0.0,0.0,0.0,0.0,0.0,-2.0566,-2.0566,-2.0566,-2.0566,-2.0566,-2.0644,-2.0996,-1.9352,-1.7865,-1.8404,-1.7979,-1.7318,-1.6908,-1.7403,0.0,0.0,-1.849,0.0,0.0,0.0,0.0,0.0,0.0,0.0,0.0,0.0,0.0,0.0,0.0,0.0,0.0,0.0,0.0,0.0,0.0,0.0,0.0,0.0,0.0,0.0,-2.3135,-2.3135,-2.3135,-2.3135,-2.3135,-2.3135,-2.3135,-2.3135,-2.3135,-2.3135,-2.3135,-2.3135,-2.3135,-2.3135,-2.3096,-2.3103,-2.4106,-2.5716,-2.7728,-2.9028,-2.9792,0.0,0.0,0.0,0.0,0.0,0.0,0.0,0.0,0.0,0.0,0.0,0.0,0.0,0.0,0.0,0.0,0.0,0.0,0.0,0.0,-2.1317,-2.0439,-2.0891,-1.9877,-1.7184,-1.8192,-1.8921,-1.9182,-1.8187,-1.7662,-1.7591,-1.7051,-1.7522,-1.8661,-1.8398,-1.8642,-1.9288,-1.9461,-1.9882,-2.0479,-2.0479,0.0,0.0,0.0,0.0,0.0,0.0,0.0,0.0,0.0,0.0,0.0,0.0,0.0,-2.0566,-2.0566,-2.0566,-2.0566,-2.0566,-2.0566,-2.0576,-2.0605,-1.9784,-1.9075,-1.9904,-1.8935,-1.8029,-1.8385,-1.8931,0.0,0.0,-2.0286,0.0,0.0,0.0,0.0,0.0,0.0,0.0,0.0,0.0,0.0,0.0,0.0,0.0,0.0,0.0,0.0,0.0,0.0,0.0,0.0,0.0,0.0,0.0,0.0,-2.3135,-2.3135,-2.3135,-2.3135,-2.3135,-2.3135,-2.3135,-2.3135,-2.3135,-2.3135,-2.3135,-2.3135,-2.3135,-2.3076,-2.3106,-2.4843,-2.7555,-2.9102,-2.9714,-2.9792,0.0,0.0,0.0,0.0,0.0,0.0,0.0,0.0,0.0,0.0,0.0,0.0,0.0,0.0,0.0,0.0,0.0,0.0,0.0,0.0,-2.0991,-1.991,-2.0996,-2.097,-1.9377,-1.9346,-1.9364,-1.9497,-1.9039,-1.9222,-1.9935,-1.8848,-1.8943,-1.9992,-1.9694,-1.9913,-2.0557,-2.0557,-2.0639,-2.0566,-2.0566,-2.0566,0.0,0.0,0.0,0.0,0.0,0.0,0.0,0.0,-2.0566,-2.0566,-2.0566,-2.0566,-2.0566,-2.0566,-2.0566,-2.0566,-2.0566,-2.0566,-2.0635,-2.0908,-2.0447,-2.022,-2.1066,-2.0604,-1.9989,-2.0013,-2.0546,0.0,0.0,0.0,0.0,0.0,0.0,0.0,0.0,0.0,0.0,0.0,0.0,0.0,0.0,0.0,0.0,0.0,0.0,0.0,0.0,0.0,0.0,0.0,0.0,0.0,0.0,0.0,-2.3135,-2.3135,-2.3135,-2.3135,-2.3135,-2.3135,-2.3135,-2.3135,-2.3135,-2.3135,-2.3135,-2.3135,-2.3135,-2.3193,-2.3849,-2.5568,-2.7648,-2.8258,-2.9045,-2.9792,0.0,0.0,0.0,0.0,0.0,0.0,0.0,0.0,0.0,0.0,0.0,0.0,0.0,0.0,0.0,0.0,0.0,0.0,0.0,-2.0986,-2.0751,-1.9848,-2.1144,-2.1601,-2.0874,-2.0472,-2.0349,-2.0674,-2.0215,-2.0477,-2.1284,-2.0104,-2.0193,-2.1244,-2.1042,-2.1059,-2.125,-2.1387,-2.1103,-2.0566,-2.0566,-2.0566,0.0,0.0,0.0,0.0,0.0,0.0,0.0,0.0,-2.0566,-2.0566,-2.0566,-2.0566,-2.0566,-2.0566,-2.0566,-2.0566,-2.0566,-2.0566,-2.0635,-2.0947,-2.0898,-2.0977,-2.1719,-2.165,-2.1424,-2.154,-2.1835,-2.206,-2.176,0.0,0.0,0.0,0.0,0.0,0.0,0.0,0.0,0.0,0.0,0.0,0.0,0.0,0.0,0.0,0.0,0.0,0.0,0.0,0.0,0.0,0.0,0.0,0.0,0.0,-2.2744,-2.2744,-2.2744,-2.2812,-2.2939,-2.2939,-2.2939,-2.2949,-2.3076,-2.3135,-2.3135,-2.3135,-2.3076,-2.3345,-2.5487,-2.6914,-2.7679,-2.8136,-2.8954,-2.9792,0.0,0.0,0.0,0.0,0.0,0.0,0.0,0.0,0.0,0.0,0.0,0.0,0.0,0.0,0.0,0.0,0.0,0.0,-2.0566,-2.0986,-2.1025,-2.0586,-2.1406,-2.167,-2.125,-2.166,-2.2295,-2.3125,-2.1933,-2.1284,-2.1284,-2.0896,-2.1349,-2.2519,-2.251,-2.2041,-2.1269,-2.1699,-2.1367,-2.0566,-2.0566,-2.0566,-2.0566,0.0,0.0,0.0,0.0,0.0,0.0,0.0,-2.0566,-2.0566,-2.0566,-2.0566,-2.0566,-2.0566,-2.0566,-2.0566,-2.0566,-2.0566,-2.0566,-2.0566,-2.0908,-2.1348,-2.1787,-2.1894,-2.2129,-2.2969,-2.2803,-2.2279,-2.1524,0.0,0.0,0.0,0.0,0.0,0.0,0.0,0.0,0.0,0.0,0.0,0.0,0.0,0.0,0.0,0.0,0.0,0.0,0.0,0.0,0.0,0.0,0.0,0.0,0.0,-2.1885,-2.1885,-2.1885,-2.21,-2.251,-2.251,-2.251,-2.2539,-2.2949,-2.3135,-2.3135,-2.3135,-2.3103,-2.3568,-2.8043,-2.8889,-2.777,-2.9238,-2.9792,-2.9792,0.0,0.0,0.0,0.0,0.0,0.0,0.0,0.0,0.0,0.0,0.0,0.0,0.0,0.0,0.0,0.0,0.0,0.0,-2.0566,-2.0684,-2.0703,-2.0576,-2.082,-2.1045,-2.123,-2.166,-2.2012,-2.2256,-2.2188,-2.215,-2.215,-2.2026,-2.2313,-2.2939,-2.2646,-2.2207,-2.168,-2.1504,-2.1094,-2.0566,-2.0566,-2.0566,-2.0566,0.0,0.0,0.0,0.0,0.0,0.0,0.0,0.0,0.0,-2.0566,-2.0566,-2.0566,-2.0566,-2.0566,-2.0566,-2.0566,-2.0566,-2.0644,-2.0957,-2.1133,-2.1426,-2.2158,-2.2324,-2.248,0.0,-2.2697,-2.2441,-2.2557,0.0,0.0,0.0,0.0,0.0,0.0,0.0,0.0,0.0,0.0,0.0,0.0,0.0,0.0,0.0,0.0,0.0,0.0,0.0,0.0,0.0,0.0,0.0,0.0,0.0,0.0,-2.1885,-2.1572,-2.1807,-2.25,-2.2207,-2.2236,-2.2519,-2.2646,-2.2705,-2.2801,-2.3841,-2.4735,-2.5677,-2.7813,-2.879,-2.9225,-2.9611,-2.9792,-2.9792,0.0,0.0,0.0,0.0,0.0,0.0,0.0,0.0,0.0,0.0,-2.0566,0.0,0.0,0.0,0.0,0.0,0.0,0.0,0.0,0.0,-2.0566,-2.0566,-2.0566,-2.0693,-2.0967,-2.1406,-2.1543,-2.1357,-2.1973,-2.2344,-2.251,-2.251,-2.2734,-2.3125,-2.2881,-2.2432,-2.1865,-2.1611,-2.1133,-2.0576,-2.0762,-2.0723,-2.0586,0.0,0.0,0.0,0.0,0.0,0.0,0.0,0.0,0.0,-2.0566,-2.0566,-2.0566,-2.0566,-2.0566,-2.0566,-2.0566,-2.0693,-2.0898,-2.1172,-2.1494,-2.1924,-2.2607,0.0,0.0,0.0,-2.2833,-2.2734,0.0,0.0,0.0,0.0,0.0,0.0,0.0,0.0,0.0,0.0,0.0,0.0,0.0,0.0,0.0,0.0,0.0,0.0,0.0,0.0,0.0,0.0,0.0,0.0,0.0,0.0,0.0,0.0,-2.1094,-2.1338,-2.2002,-2.1748,-2.1768,-2.2012,-2.2187,-2.2353,-2.2529,-2.3523,-2.464,-2.5964,-2.7035,-2.8108,-2.9197,-2.9624,-2.9792,-2.9792,0.0,0.0,0.0,0.0,0.0,0.0,0.0,0.0,0.0,0.0,-2.0566,-2.0566,0.0,0.0,0.0,0.0,0.0,0.0,0.0,0.0,-2.0566,-2.0566,-2.0566,-2.0605,-2.0684,-2.1006,-2.0996,-2.0625,-2.1435,-2.2021,-2.2393,-2.2441,-2.2676,-2.3086,-2.3086,-2.2637,-2.1885,-2.1846,-2.1338,-2.0596,-2.1016,-2.0928,-2.0605,-2.1016,0.0,0.0,0.0,0.0,0.0,0.0,0.0,0.0,-2.0566,-2.0566,-2.0566,-2.0566,-2.0566,-2.0566,-2.0566,-2.0859,-2.1191,-2.1279,-2.1914,-2.2617,-2.2998,-2.3086,-2.3096,-2.3135,0.0,0.0,0.0,0.0,0.0,0.0,0.0,0.0,0.0,0.0,0.0,0.0,0.0,0.0,0.0,0.0,0.0,0.0,0.0,0.0,0.0,0.0,0.0,0.0,0.0,0.0,0.0,0.0,0.0,0.0,0.0,-2.0781,-2.1172,-2.1172,-2.1201,-2.126,-2.165,-2.207,-2.2451,-2.2536,-2.3487,-2.4914,-2.6091,-2.7152,-2.8203,-2.9356,-2.9716,-2.9729,0.0,0.0,0.0,0.0,0.0,0.0,0.0,0.0,0.0,0.0,0.0,0.0,0.0,0.0,0.0,0.0,0.0,0.0,0.0,0.0,-2.0566,-2.0566,-2.0566,-2.0889,-2.1592,-2.1016,-2.083,-2.1094,-2.1279,-2.1426,-2.1523,-2.1865,-2.2246,-2.2646,-2.2646,-2.2363,-2.1865,-2.1523,-2.1064,-2.0576,-2.0674,-2.0654,-2.0576,-2.0674,-2.0654,0.0,0.0,0.0,0.0,0.0,0.0,0.0,-2.0566,-2.0566,-2.0566,-2.0566,-2.0566,-2.0566,-2.0566,-2.0635,-2.0879,-2.1572,-2.2139,-2.2539,-2.2627,-2.2646,-2.2744,-2.3066,-2.3135,0.0,0.0,0.0,0.0,0.0,0.0,0.0,0.0,0.0,0.0,0.0,0.0,0.0,0.0,0.0,0.0,0.0,0.0,0.0,0.0,0.0,0.0,0.0,0.0,0.0,0.0,0.0,0.0,0.0,-2.0566,-2.0615,-2.0713,-2.0713,-2.0898,-2.124,-2.1338,-2.1621,-2.2095,-2.2951,-2.3945,-2.507,-2.6155,-2.7188,-2.8189,-2.8875,-2.9114,-2.9176,0.0,0.0,0.0,0.0,0.0,0.0,0.0,0.0,0.0,0.0,0.0,0.0,0.0,0.0,0.0,0.0,0.0,0.0,0.0,0.0,0.0,-2.0566,-2.0566,-2.0781,-2.124,-2.0801,-2.0684,-2.0918,-2.0918,-2.1025,-2.124,-2.1465,-2.1807,-2.2207,-2.2207,-2.1973,-2.1562,-2.1328,-2.0977,-2.0586,-2.0801,-2.0752,-2.0586,-2.0801,-2.0752,-2.0566,-2.0566,0.0,0.0,0.0,0.0,0.0,0.0,0.0,-2.0566,-2.0566,-2.0566,-2.0566,-2.0566,-2.0723,-2.1045,-2.1719,0.0,-2.2461,-2.2256,-2.2207,-2.2285,-2.2624,0.0,0.0,0.0,0.0,0.0,0.0,0.0,0.0,0.0,0.0,0.0,0.0,0.0,0.0,0.0,0.0,0.0,0.0,0.0,0.0,0.0,0.0,0.0,0.0,0.0,0.0,-2.0566,-2.0566,-2.0566,-2.0566,-2.0566,-2.0566,-2.0566,-2.0566,-2.0693,-2.0918,-2.0918,-2.1162,-2.1654,-2.2711,-2.3845,-2.5071,-2.6159,-2.7174,-2.8172,-2.8725,-2.8925,-2.9013,0.0,0.0,0.0,0.0,0.0,0.0,0.0,0.0,0.0,0.0,0.0,0.0,0.0,0.0,0.0,0.0,0.0,0.0,0.0,0.0,0.0,0.0,-2.0605,-2.0635,-2.0791,-2.0644,-2.0605,-2.0684,-2.0684,-2.0869,-2.123,-2.123,-2.1465,-2.1885,-2.1807,-2.1572,-2.123,-2.1152,-2.0908,-2.0596,-2.0967,-2.0898,-2.0605,-2.0977,-2.0889,-2.0566,-2.0566,-2.0566,-2.0566,-2.0566,0.0,0.0,0.0,0.0,-2.0566,-2.0566,-2.0566,-2.0566,-2.0566,-2.0889,-2.1318,-2.168,-2.2031,0.0,-2.1855,-2.1777,-2.1869,0.0,0.0,0.0,0.0,0.0,0.0,0.0,0.0,0.0,0.0,0.0,0.0,0.0,0.0,0.0,0.0,0.0,0.0,0.0,0.0,0.0,0.0,0.0,0.0,0.0,0.0,0.0,-2.0566,-2.0566,-2.0566,-2.0566,-2.0566,-2.0566,-2.0566,-2.0566,-2.0566,-2.0566,-2.0566,-2.0781,-2.1193,-2.2158,-2.3446,-2.4824,-2.5838,-2.6907,-2.7896,-2.8448,-2.8637,-2.8737,0.0,0.0,0.0,0.0,0.0,0.0,0.0,0.0,0.0,0.0,0.0,0.0,0.0,0.0,0.0,0.0,0.0,0.0,-2.0566,0.0,0.0,-2.1123,-2.0771,-2.0928,-2.1689,-2.0957,-2.0752,-2.1143,-2.1143,-2.1172,-2.123,-2.123,-2.1465,-2.1865,-2.1484,-2.1289,-2.1211,-2.082,-2.0625,-2.0566,-2.0635,-2.0625,-2.0576,-2.0635,-2.0615,-2.0566,-2.0566,-2.0566,-2.0566,-2.0566,-2.0566,0.0,0.0,0.0,-2.0566,-2.0566,-2.0566,-2.0566,-2.0566,0.0,-2.125,0.0,-2.1367,-2.1396,0.0,0.0,0.0,0.0,0.0,0.0,0.0,0.0,0.0,0.0,0.0,0.0,0.0,0.0,0.0,0.0,0.0,0.0,0.0,0.0,0.0,0.0,0.0,0.0,0.0,0.0,0.0,0.0,0.0,0.0,-2.0566,-2.0566,-2.0566,-2.0566,-2.0566,-2.0566,-2.0566,-2.0566,-2.0566,-2.0566,-2.0566,-2.0596,-2.0732,-2.1686,-2.2757,-2.379,-2.4847,-2.58,-2.6753,-2.7306,-2.7507,-2.7657,0.0,0.0,0.0,0.0,0.0,0.0,0.0,0.0,0.0,0.0,0.0,0.0,0.0,0.0,0.0,-2.0566,-2.0566,-2.0566,-2.0566,-2.0566,-2.0654,-2.085,-2.0674,-2.0752,-2.1143,-2.0771,-2.0664,-2.0859,-2.0859,-2.1113,-2.1592,-2.1348,-2.1465,-2.1865,-2.1426,-2.123,-2.1201,-2.0752,-2.0934,-2.1375,-2.1375,-2.1375,-2.1451,-2.2038,-2.1897,-2.1451,-2.2038,-2.2188,-2.2124,-2.1593,-2.1375,-2.1298,-2.0789,0.0,0.0,0.0,-2.0391,-2.0348,-2.0868,-2.1083,-2.1242,0.0,-2.1421,-2.1172,-2.0918,0.0,0.0,0.0,0.0,0.0,0.0,0.0,0.0,0.0,0.0,0.0,0.0,0.0,0.0,0.0,0.0,0.0,0.0,0.0,0.0,0.0,0.0,0.0,0.0,-2.0566,-2.0566,-2.0566,-2.0566,0.0,-2.0566,-2.0566,-2.0566,-2.0566,-2.0566,-2.0566,-2.0566,-2.0566,-2.0566,-2.0566,-2.0566,-2.0566,-2.0712,-2.2188,-2.3073,-2.3661,-2.5217,-2.6094,-2.6596,-2.708,-2.7281,-2.7394,0.0,0.0,0.0,0.0,0.0,0.0,0.0,0.0,0.0,0.0,0.0,0.0,0.0,0.0,0.0,0.0,-2.0566,-2.0566,-2.0566,-2.0566,-2.0566,-2.0566,-2.0566,-2.0566,-2.0566,-2.0566,-2.0566,-2.0566,-2.0674,-2.1133,-2.1875,-2.166,-2.1787,-2.2178,-2.1641,-2.1489,-2.159,-2.1242,-2.163,-2.2403,-2.2403,-2.2403,-2.2478,-2.322,-2.2999,-2.2478,-2.322,-2.3514,-2.3368,-2.2627,-2.2403,-2.2253,-2.1527,-2.1308,0.0,0.0,0.0,-2.0082,-2.0995,0.0,-2.0997,-2.1502,-2.1338,-2.0977,0.0,0.0,0.0,0.0,0.0,0.0,0.0,0.0,0.0,0.0,0.0,0.0,0.0,0.0,0.0,0.0,0.0,0.0,0.0,0.0,0.0,0.0,0.0,0.0,0.0,-2.0566,-2.0566,-2.0566,-2.0566,-2.0566,-2.0566,-2.0566,-2.0566,-2.0566,-2.0566,-2.0566,-2.0566,-2.0566,-2.0566,-2.0566,-2.0566,-2.0566,-2.0712,-2.2414,-2.3147,-2.3294,-2.5346,-2.6094,-2.6213,-2.6847,-2.708,-2.7155,0.0,0.0,0.0,0.0,0.0,0.0,0.0,0.0,0.0,0.0,0.0,0.0,-2.0566,-2.0566,-2.0566,-2.0566,-2.0566,-2.0566,-2.0566,-2.0566,-2.0566,-2.0566,-2.0566,0.0,-2.0566,-2.0566,-2.0566,-2.0566,-2.0986,-2.1435,-2.1894,-2.2275,-2.2676,-2.3037,-2.2217,-2.216,-2.2652,-2.2631,-2.2885,-2.3441,-2.3441,-2.3441,-2.3441,-2.3514,-2.3441,-2.3441,-2.3514,-2.3514,-2.3514,-2.3441,-2.3441,-2.3441,-2.3368,0.0,0.0,0.0,0.0,0.0,0.0,-2.034,0.0,-2.0536,-2.0664,0.0,0.0,0.0,0.0,0.0,0.0,0.0,0.0,0.0,0.0,0.0,0.0,0.0,0.0,0.0,0.0,0.0,0.0,0.0,0.0,0.0,0.0,0.0,0.0,0.0,-2.0566,-2.0566,-2.0566,-2.0566,-2.0566,-2.0566,-2.0566,-2.0566,-2.0566,-2.0566,-2.0566,-2.0566,-2.0566,-2.0566,-2.0566,-2.0566,-2.0566,-2.0566,-2.0644,-2.1669,-2.2103,-2.2253,-2.4264,-2.5075,-2.5229,-2.6201,-2.6571,-2.6647,0.0,0.0,0.0,0.0,0.0,0.0,0.0,0.0,0.0,0.0,0.0,0.0,0.0,-2.1897,-2.1517,-2.1517,-2.0934,-2.0566,-2.0566,-2.0566,-2.0566,-2.0566,-2.0566,-2.0566,-2.0566,-2.0566,-2.0566,-2.0566,-2.0723,-2.1035,-2.1475,-2.1621,-2.1924,-2.2334,-2.3102,-2.3298,-2.314,-2.3545,-2.4048,-2.448,-2.448,-2.448,-2.4564,-2.5205,-2.4992,0.0,0.0,0.0,0.0,0.0,0.0,0.0,0.0,0.0,0.0,0.0,0.0,-2.1391,0.0,0.0,0.0,-2.1263,-2.0791,-2.0225,0.0,0.0,0.0,0.0,0.0,0.0,0.0,0.0,0.0,0.0,0.0,0.0,0.0,0.0,0.0,0.0,0.0,0.0,0.0,0.0,0.0,0.0,0.0,0.0,-2.0566,-2.0566,-2.0566,-2.0566,-2.0566,-2.0566,-2.0566,-2.0566,-2.0566,-2.0566,-2.0566,-2.0566,-2.0566,-2.0566,-2.0566,-2.0566,-2.0566,-2.0566,-2.0634,-2.1593,-2.2027,-2.2178,-2.4181,-2.5004,-2.5158,-2.6094,-2.6533,-2.6559,0.0,0.0,0.0,0.0,0.0,0.0,0.0,0.0,0.0,0.0,0.0,0.0,0.0,0.0,-2.2403,-2.2027,-2.1451,-2.0934,-2.0644,-2.0566,-2.0566,-2.0566,-2.0566,-2.0566,-2.0566,-2.0566,-2.0566,-2.0566,-2.0934,-2.1308,-2.168,-2.2066,-2.2469,-2.291,-2.4315,-2.4494,-2.3624,-2.4388,-2.502,-2.5511,-2.5511,-2.5511,-2.5594,-2.6245,0.0,0.0,0.0,0.0,0.0,0.0,0.0,0.0,0.0,0.0,0.0,0.0,0.0,0.0,-2.2313,0.0,0.0,0.0,0.0,-2.0029,0.0,0.0,0.0,0.0,0.0,0.0,0.0,0.0,0.0,0.0,0.0,0.0,0.0,0.0,0.0,0.0,0.0,0.0,0.0,0.0,0.0,0.0,0.0,0.0,-2.0566,-2.0566,-2.0566,-2.0566,-2.0566,-2.0566,-2.0566,-2.0566,-2.0566,-2.0566,-2.0566,-2.0566,-2.0566,-2.0566,-2.0478,-2.0352,-2.0352,-2.0352,-2.0428,-2.1521,-2.1943,-2.2041,-2.4123,-2.5004,-2.5158,-2.6094,-2.6533,-2.6533,0.0,0.0,0.0,0.0,0.0,0.0,0.0,0.0,0.0,-2.5004,0.0,0.0,0.0,0.0,0.0,-2.2124,-2.2038,-2.1669,-2.0712,-2.0722,-2.0722,-2.0722,-2.0722,-2.0722,-2.0722,-2.0722,-2.0722,-2.0722,-2.1593,-2.2268,-2.2709,-2.37,-2.4413,-2.4781,-2.5984,-2.5628,-2.4318,-2.5238,-2.5996,-2.6533,0.0,-2.6533,-2.6533,0.0,0.0,0.0,-2.6533,-2.6533,0.0,-2.6533,0.0,0.0,0.0,0.0,0.0,0.0,0.0,-2.1523,0.0,0.0,0.0,0.0,0.0,0.0,0.0,0.0,0.0,0.0,0.0,0.0,0.0,0.0,0.0,0.0,0.0,0.0,0.0,0.0,0.0,0.0,0.0,0.0,0.0,0.0,0.0,0.0,0.0,0.0,-2.0566,-2.0566,-2.0566,-2.0566,-2.0566,-2.0566,-2.0566,-2.0566,-2.0566,-2.0566,-2.0566,-2.0566,-2.0566,-2.0557,-2.0322,-1.9932,-1.9922,-1.9912,-1.9997,-2.1377,-2.1765,-2.1638,-2.4068,-2.5004,-2.5158,-2.6094,-2.6533,-2.6533,0.0,0.0,0.0,0.0,0.0,0.0,0.0,0.0,0.0,0.0,0.0,0.0,-2.5652,-2.4992,-2.4342,-2.3718,-2.3271,-2.2999,-2.2702,-2.2713,-2.2713,-2.2713,-2.2713,-2.2713,-2.2713,0.0,0.0,0.0,0.0,0.0,0.0,0.0,0.0,-2.3929,-2.4912,-2.5217,-2.4882,-2.6214,0.0,-2.6533,-2.6533,-2.6533,0.0,0.0,0.0,0.0,0.0,-2.6533,-2.6533,0.0,-2.6533,-2.6389,0.0,0.0,0.0,0.0,0.0,-2.3841,-2.3094,0.0,0.0,0.0,0.0,0.0,0.0,0.0,0.0,0.0,0.0,0.0,0.0,0.0,0.0,0.0,0.0,0.0,0.0,0.0,0.0,0.0,0.0,0.0,0.0,0.0,0.0,0.0,0.0,-2.0566,-2.0566,-2.0566,-2.0566,-2.0566,-2.0566,-2.0566,-2.0566,-2.0566,-2.0566,-2.0566,-2.0566,-2.0566,-2.0557,-2.0244,-2.0195,-2.0371,-2.0049,-2.0098,-2.0473,-2.1209,-2.166,-2.2073,-2.4135,-2.5004,-2.5158,-2.6094,-2.6533,-2.6533,0.0,0.0,0.0,0.0,0.0,0.0,0.0,0.0,0.0,0.0,0.0,0.0,-2.6533,-2.6153,-2.5577,-2.4692,-2.4281,-2.3963,-2.3514,-2.3514,-2.3514,-2.3514,-2.3514,-2.3514,-2.3514,0.0,0.0,0.0,0.0,0.0,0.0,0.0,0.0,-2.4767,0.0,0.0,-2.5676,0.0,0.0,0.0,-2.6533,0.0,0.0,-2.6533,-2.6533,0.0,0.0,0.0,-2.6533,-2.6533,-2.6533,0.0,0.0,0.0,0.0,0.0,0.0,-2.4743,-2.3568,-2.2794,-2.1955,0.0,0.0,0.0,0.0,-2.1005,0.0,0.0,0.0,0.0,0.0,0.0,0.0,0.0,0.0,0.0,0.0,0.0,0.0,0.0,0.0,0.0,0.0,0.0,0.0,0.0,-2.0566,-2.0566,-2.0566,-2.0566,-2.0566,-2.0566,-2.0566,-2.0566,-2.0566,-2.0566,-2.0566,-2.0566,-2.0566,-2.0566,-2.0557,-2.0303,-2.0127,-2.0019,-1.9766,-1.9796,-2.0124,-2.0615,-2.1543,-2.2778,-2.4576,-2.5375,-2.5734,-2.6314,-2.6533,-2.6533,0.0,0.0,0.0,0.0,0.0,0.0,0.0,0.0,0.0,0.0,-2.6533,-2.6546,-2.6609,-2.6929,-2.6652,-2.5349,-2.5182,-2.4779,-2.3891,-2.3806,-2.3806,-2.3806,-2.3806,-2.3806,0.0,0.0,0.0,0.0,0.0,0.0,0.0,0.0,0.0,0.0,0.0,0.0,0.0,0.0,0.0,-2.6445,-2.6496,-2.6533,0.0,0.0,-2.6533,-2.6533,-2.6533,-2.6533,-2.6533,-2.6533,-2.6533,0.0,0.0,0.0,0.0,0.0,-2.5411,-2.4897,-2.3509,-2.3417,-2.3329,0.0,0.0,0.0,-2.2458,-2.1935,0.0,0.0,0.0,0.0,0.0,0.0,0.0,0.0,0.0,0.0,0.0,0.0,0.0,0.0,0.0,0.0,0.0,0.0,0.0,-2.0566,-2.0566,-2.0566,-2.0566,-2.0566,-2.0566,-2.0566,-2.0566,-2.0566,-2.0566,-2.0566,-2.0566,-2.0566,-2.0566,-2.0566,-2.0634,-2.0469,-2.0029,-1.9346,-1.9258,-1.9281,-1.9397,-2.0021,-2.1542,-2.3649,-2.4945,-2.587,-2.6533,-2.6533,-2.6533,-2.6533,0.0,0.0,0.0,0.0,0.0,0.0,0.0,0.0,0.0,0.0,-2.6533,-2.6628,-2.708,-2.6816,-2.6684,-2.6868,-2.6425,-2.6094,-2.5943,-2.5943,-2.5943,-2.5943,-2.5943,-2.5943,0.0,0.0,0.0,0.0,0.0,0.0,0.0,0.0,0.0,0.0,0.0,0.0,0.0,0.0,0.0,-2.5799,-2.6264,0.0,-2.6533,-2.6533,-2.6533,-2.6533,-2.6533,-2.6533,-2.6533,-2.6533,-2.6533,-2.6508,0.0,0.0,0.0,0.0,0.0,0.0,0.0,0.0,0.0,0.0,0.0,0.0,-2.1879,-2.1984,-2.2274,0.0,0.0,0.0,0.0,0.0,0.0,0.0,0.0,0.0,0.0,0.0,0.0,0.0,0.0,0.0,0.0,0.0,-2.0566,-2.0566,-2.0566,-2.0566,-2.0566,-2.0566,-2.0566,-2.0566,-2.0566,-2.0566,-2.0566,-2.0566,-2.0566,-2.0566,-2.0566,-2.0566,-2.0547,-1.9853,-1.9629,-1.9756,-1.9062,-1.9093,-1.9831,-2.0682,-2.2,-2.3561,-2.4303,-2.5369,-2.6533,-2.6533,-2.6533,-2.6533,0.0,0.0,0.0,0.0,0.0,0.0,0.0,0.0,0.0,-2.6533,-2.6703,-2.6866,-2.6866,-2.6866,-2.6866,-2.6866,-2.6684,-2.6533,-2.6533,-2.6533,0.0,-2.6533,-2.6533,0.0,0.0,0.0,0.0,0.0,0.0,0.0,0.0,0.0,0.0,0.0,0.0,0.0,0.0,0.0,-2.6126,-2.5649,-2.6226,0.0,-2.6533,-2.6533,-2.6533,-2.6533,-2.6533,-2.6533,-2.6533,-2.6533,-2.6533,0.0,0.0,-2.6533,-2.6533,0.0,-2.6533,-2.6314,0.0,0.0,0.0,-2.4248,0.0,0.0,0.0,-2.3176,0.0,0.0,0.0,0.0,0.0,0.0,0.0,0.0,0.0,0.0,0.0,0.0,0.0,0.0,0.0,0.0,0.0,0.0,-2.0566,-2.0566,-2.0566,-2.0566,-2.0566,-2.0566,-2.0566,-2.0566,-2.0566,-2.0566,-2.0566,-2.0566,-2.0566,-2.0566,-2.0566,-2.0566,-2.0624,-2.0117,-1.9922,-1.9873,-1.9725,-1.9848,-2.0285,-2.0753,-2.1879,-2.3468,-2.4261,-2.519,-2.6063,-2.642,-2.6533,-2.6533,-3.0315,0.0,0.0,0.0,0.0,0.0,0.0,0.0,0.0,-2.6521,-2.6942,-2.7118,-2.6666,-2.7017,-2.7193,-2.6954,-2.671,-2.6622,0.0,0.0,0.0,0.0,0.0,-2.6533,0.0,-2.6533,0.0,0.0,0.0,0.0,0.0,0.0,0.0,0.0,0.0,0.0,0.0,0.0,0.0,-2.5649,0.0,-2.6533,-2.6533,-2.6533,-2.6533,-2.6533,-2.6533,-2.6533,-2.6533,-2.6533,0.0,-2.6533,-2.6533,-2.6533,0.0,0.0,0.0,0.0,0.0,0.0,0.0,0.0,0.0,-2.5485,0.0,0.0,0.0,0.0,0.0,0.0,0.0,0.0,0.0,0.0,0.0,0.0,0.0,0.0,0.0,0.0,0.0,0.0,0.0,0.0,-2.0478,-2.0557,-2.0566,-2.0566,-2.0566,-2.0566,-2.0566,-2.0566,-2.0566,-2.0566,-2.0566,-2.0566,-2.0566,-2.0566,-2.0566,-2.0566,-2.0566,-2.0478,-2.0244,-1.9883,-2.0288,-2.0467,-2.0474,-2.0753,-2.1712,-2.3126,-2.4067,-2.4853,-2.5523,-2.6088,-2.6302,-2.6314,-3.0334,-3.0133,0.0,0.0,0.0,0.0,0.0,0.0,0.0,-2.6589,-2.6942,-2.7256,-2.7193,0.0,0.0,-2.8561,0.0,0.0,-2.7858,0.0,0.0,0.0,0.0,0.0,-2.6533,-2.6533,0.0,0.0,0.0,0.0,0.0,0.0,0.0,0.0,-2.5435,0.0,0.0,0.0,-2.5649,0.0,-2.6226,-2.6533,0.0,-2.6533,-2.6533,-2.6533,-2.6533,-2.6533,-2.6533,0.0,-2.6533,-2.6533,0.0,-2.6533,-2.6533,0.0,0.0,0.0,0.0,0.0,0.0,0.0,-2.5958,0.0,0.0,0.0,0.0,0.0,0.0,0.0,0.0,0.0,0.0,0.0,0.0,0.0,0.0,0.0,0.0,0.0,0.0,0.0,0.0,0.0,0.0,-2.0537,-2.0566,-2.0566,-2.0566,-2.0566,-2.0566,-2.0566,-2.0566,-2.0566,-2.0566,-2.0566,-2.0566,-2.0566,-2.0566,-2.0566,-2.0557,-2.0166,-1.9961,-1.9863,-1.995,-1.9986,-2.0081,-2.1266,-2.1886,-2.2103,-2.2695,-2.3741,-2.4971,-2.5498,-2.5686,-2.5774,-3.0954,-3.0644,0.0,0.0,0.0,0.0,0.0,0.0,0.0,-2.7201,-2.7265,0.0,0.0,0.0,0.0,0.0,0.0,-2.713,0.0,0.0,-2.6533,0.0,0.0,0.0,0.0,0.0,-2.6533,0.0,-2.6533,0.0,0.0,0.0,0.0,0.0,-2.5473,0.0,-2.5624,0.0,-2.59,0.0,0.0,0.0,0.0,-2.6533,-2.6533,-2.6533,-2.6533,-2.6533,-2.6533,0.0,-2.6533,0.0,0.0,0.0,0.0,0.0,0.0,0.0,0.0,0.0,0.0,0.0,0.0,0.0,-2.5674,0.0,-2.4833,0.0,0.0,0.0,0.0,0.0,0.0,0.0,0.0,0.0,0.0,0.0,0.0,0.0,0.0,0.0,0.0,0.0,0.0,0.0,0.0,-2.0185,-2.0185,-2.043,-2.0566,-2.0566,-2.0566,-2.0566,-2.0566,-2.0566,-2.0566,-2.0566,-2.0566,-2.0566,-2.0557,-2.0381,-2.0156,-1.9948,-2.0723,-2.0625,-2.0065,-2.1879,-2.2322,-2.1963,-2.2689,-2.3517,-2.4406,-2.4946,-2.5146,-2.5184,-3.1091,-3.0896,-3.0644,0.0,0.0,0.0,0.0,0.0,0.0,0.0,0.0,0.0,-2.7494,-2.7645,0.0,0.0,-2.8147,-2.7733,0.0,0.0,-2.6615,0.0,0.0,0.0,0.0,0.0,0.0,0.0,0.0,0.0,0.0,0.0,0.0,0.0,0.0,-2.5322,-2.5624,0.0,-2.6076,-2.5875,-2.6289,-2.6533,-2.6533,-2.6533,-2.6533,-2.6533,-2.6533,-2.6533,-2.6533,-2.6533,-2.6533,0.0,-2.6533,0.0,0.0,0.0,0.0,0.0,-2.59,0.0,0.0,0.0,0.0,0.0,0.0,0.0,0.0,0.0,0.0,0.0,0.0,0.0,0.0,0.0,0.0,0.0,0.0,0.0,0.0,0.0,0.0,0.0,0.0,0.0,0.0,0.0,-1.957,0.0,-1.9746,-2.0156,-2.0391,-2.0391,-2.0498,-2.0566,-2.0566,-2.0566,-2.0566,-2.0566,-2.0566,-2.0566,-2.0566,-2.0566,-2.0391,-2.0134,-2.1267,-2.107,-2.0207,-2.204,-2.2452,-2.1963,-2.2665,-2.3356,-2.4054,-2.4456,-2.4695,-2.482,-3.0298,-3.1019,-3.1467,0.0,0.0,0.0,0.0,0.0,0.0,0.0,0.0,0.0,0.0,0.0,0.0,0.0,0.0,-2.8875,-2.8875,0.0,-2.7017,0.0,0.0,-2.6533,0.0,0.0,0.0,0.0,0.0,0.0,0.0,0.0,0.0,0.0,-2.4506,-2.4632,-2.5598,-2.5611,-2.5937,-2.6496,-2.6521,-2.6533,-2.6533,0.0,-2.6533,-2.6533,-2.6533,0.0,0.0,-2.6533,-2.6533,0.0,0.0,0.0,0.0,0.0,0.0,0.0,0.0,0.0,0.0,-2.6533,0.0,0.0,0.0,0.0,-2.5586,0.0,0.0,0.0,0.0,0.0,-2.3615,-2.251,0.0,0.0,0.0,0.0,0.0,0.0,0.0,0.0,0.0,0.0,0.0,0.0,-1.9297,0.0,-1.9307,-1.9707,-1.9932,-1.9932,-2.0342,-2.0566,-2.0566,-2.0566,-2.0566,-2.0566,-2.0566,-2.0566,-2.0566,-2.0566,-2.0557,-2.0595,-2.1025,-2.1,-2.0652,-2.1531,-2.1918,-2.1925,-2.2349,-2.3098,-2.4004,-2.4017,-2.4356,-2.482,-2.9804,-3.0417,-3.0851,0.0,0.0,0.0,0.0,-2.9448,0.0,0.0,0.0,0.0,0.0,-2.9942,-3.0331,0.0,0.0,-2.9503,-2.9503,-2.8448,0.0,0.0,0.0,-2.7205,0.0,0.0,0.0,0.0,0.0,0.0,0.0,0.0,0.0,0.0,0.0,-2.4594,0.0,0.0,0.0,0.0,0.0,-2.6226,-2.5937,0.0,0.0,-2.6483,-2.6025,-2.6138,0.0,-2.6013,-2.6138,-2.6533,-2.6533,-2.6395,-2.6138,-2.5937,-2.6013,0.0,0.0,0.0,-2.6533,-2.6533,0.0,0.0,0.0,0.0,0.0,0.0,0.0,0.0,0.0,0.0,-2.3753,-2.2987,-2.2952,0.0,0.0,0.0,0.0,0.0,0.0,0.0,0.0,0.0,0.0,-1.8567,-1.9243,0.0,0.0,-1.9521,-1.9912,-1.9912,-2.0342,-2.0566,-2.0566,-2.0566,-2.0566,-2.0566,-2.0566,-2.0566,-2.0566,-2.0566,-2.041,-2.0183,-2.1237,-2.1043,-2.0249,-2.1992,-2.2591,-2.2476,-2.3189,-2.4151,-2.4921,-2.3828,-2.3791,-2.428,-2.9535,0.0,0.0,0.0,0.0,0.0,0.0,0.0,0.0,0.0,-2.9803,0.0,-3.052,0.0,-3.0758,0.0,-3.0482,-2.9917,-2.9515,-2.88,0.0,-2.7595,-2.772,0.0,0.0,0.0,0.0,0.0,0.0,-2.5988,0.0,0.0,0.0,0.0,0.0,-2.4381,-2.5059,0.0,-2.5699,0.0,0.0,-2.5649,0.0,0.0,-2.5875,0.0,0.0,-2.5887,-2.585,-2.5661,-2.585,-2.6151,-2.6151,-2.6151,-2.6126,-2.595,-2.6013,-2.6113,-2.595,-2.6176,0.0,0.0,-2.6533,0.0,-2.6201,0.0,0.0,0.0,0.0,0.0,0.0,0.0,0.0,-2.3226,-2.3078,-2.3078,0.0,-2.3078,0.0,0.0,0.0,0.0,0.0,0.0,-2.0719,-1.9044,-1.9705,-1.9796,0.0,0.0,-1.9806,-1.9687,-2.0107,-2.041,-2.0566,-2.0566,-2.0566,-2.0566,-2.0566,-2.0566,-2.0566,-2.0566,-2.0631,-2.0692,-2.1392,-2.1263,-2.073,-2.208,-2.2591,-2.2464,-2.3189,-2.4139,-2.4895,-2.3841,-2.3678,-2.4004,0.0,0.0,0.0,0.0,-3.0507,0.0,0.0,0.0,-3.0623,0.0,-3.022,-3.008,-3.0633,-3.0696,-3.0683,-3.0658,-3.0633,0.0,-2.9076,-2.8988,0.0,0.0,-2.7632,-2.7318,-2.7243,0.0,0.0,0.0,0.0,0.0,0.0,0.0,0.0,0.0,-2.3954,0.0,-2.4067,-2.5084,-2.5247,-2.482,-2.482,-2.4808,-2.4782,-2.4808,0.0,-2.487,-2.595,-2.5686,-2.4895,-2.536,-2.5536,-2.5561,-2.5561,-2.5573,-2.5699,-2.6226,-2.6025,-2.5749,-2.6276,-2.6483,-2.6483,-2.6483,0.0,0.0,0.0,0.0,-2.5977,0.0,0.0,0.0,0.0,0.0,0.0,-2.3226,-2.3078,-2.3078,-2.3078,0.0,0.0,0.0,0.0,0.0,0.0,-2.1175,-2.0719,-2.059,-2.0655,-2.0268,0.0,0.0,0.0,-1.9413,-1.9781,-2.0223,-2.0634,-2.0566,-2.0566,-2.0566,-2.0566,-2.0644,-2.0634,-2.0634,-2.1145,-2.2081,-2.1544,-2.1657,-2.2069,-2.2036,-2.2019,-2.2071,-2.246,-2.3186,-2.4004,-2.4004,-2.3979,-2.3966,-2.8921,-2.9116,-2.9579,0.0,-3.0507,-3.0731,0.0,0.0,0.0,0.0,-3.1381,-3.1185,-3.1738,-3.18,-3.1637,-3.1223,-3.0834,0.0,0.0,0.0,0.0,-2.8147,-2.836,-2.7934,-2.6703,-2.7067,0.0,-2.6533,0.0,0.0,-2.5008,0.0,0.0,0.0,0.0,0.0,-2.4017,-2.4293,-2.4569,-2.482,-2.482,-2.4569,0.0,0.0,-2.4293,-2.3665,-2.4381,-2.4707,-2.4782,-2.4506,-2.4682,-2.5021,-2.5021,-2.5285,-2.5548,-2.531,-2.5724,-2.6176,-2.59,-2.5824,-2.5824,-2.5824,-2.5523,-2.531,0.0,0.0,0.0,0.0,0.0,0.0,0.0,0.0,0.0,-2.3226,-2.3078,-2.3078,0.0,0.0,0.0,-2.3078,0.0,0.0,0.0,-2.2249,-2.1928,-2.0719,-2.1164,0.0,0.0,0.0,0.0,0.0,-2.1007,-2.1176,-2.0644,-2.0566,-2.0566,-2.0566,-2.0566,-2.0934,-2.1669,-2.1669,-2.2188,-2.3125,-2.3367,-2.3503,-2.3616,-2.3525,-2.3671,-2.4038,-2.3702,-2.3791,-2.4004,-2.4004,-2.3728,-2.3427,-2.9101,0.0,0.0,-3.0537,0.0,0.0,-3.1943,0.0,0.0,-3.243,-3.204,0.0,-3.2005,-3.1744,-3.1386,-3.1085,-3.057,0.0,-3.0256,0.0,0.0,-2.8499,-2.8298,-2.777,-2.6841,-2.6892,0.0,-2.6088,0.0,0.0,-2.4456,0.0,0.0,0.0,0.0,-2.3314,-2.3615,-2.3615,-2.3941,-2.4443,-2.418,0.0,0.0,-2.3966,-2.3629,-2.3115,-2.3502,-2.3828,-2.4079,-2.4017,-2.4205,-2.4456,-2.4456,-2.4833,-2.5197,-2.4908,-2.5259,-2.5674,-2.5347,-2.5259,-2.5259,-2.5259,-2.5209,-2.5121,-2.4933,-2.5049,-2.5066,0.0,0.0,0.0,0.0,0.0,0.0,0.0,0.0,0.0,0.0,0.0,0.0,0.0,0.0,0.0,0.0,0.0,0.0,0.0,0.0,0.0,0.0,0.0,0.0,0.0,-2.1722,-2.1987,-2.1897,-2.1451,-2.1451,-2.1821,-2.1011,-2.1308,-2.2627,-2.2178,-2.2776,-2.4158,-2.4167,-2.4438,-2.4786,-2.4501,-2.4544,-2.477,-2.4217,-2.3841,-2.3615,-2.3615,-2.3577,-2.3552,-2.9699,0.0,0.0,0.0,0.0,0.0,0.0,-3.2392,0.0,-3.2901,0.0,-3.1939,-3.1733,-3.1057,-3.0583,-3.052,0.0,-2.9767,-2.9679,-2.9202,-2.8863,-2.8725,-2.772,-2.7143,-2.7067,-2.6527,0.0,0.0,0.0,0.0,0.0,0.0,0.0,0.0,0.0,0.0,0.0,-2.3078,-2.3427,0.0,-2.3339,-2.3078,-2.3078,-2.3078,-2.3078,-2.3078,-2.3078,-2.3078,-2.3153,-2.3715,-2.3891,-2.3891,-2.3891,-2.4268,-2.4695,-2.4619,-2.4707,-2.4808,-2.4732,-2.472,-2.472,-2.472,-2.4996,-2.5046,-2.4192,-2.5094,-2.5599,-2.3814,-2.4523,0.0,0.0,0.0,0.0,0.0,0.0,0.0,0.0,0.0,0.0,0.0,0.0,0.0,0.0,0.0,0.0,0.0,0.0,0.0,0.0,0.0,0.0,0.0,-2.2034,0.0,-2.3147,0.0,-2.2403,-2.3294,-2.1745,-2.1897,-2.3672,-2.2776,-2.3408,-2.5015,-2.4572,-2.481,-2.5448,-2.4933,-2.4669,-2.4556,-2.4067,-2.3577,-2.3078,-2.3078,-2.3452,-2.3891,0.0,0.0,0.0,0.0,0.0,-3.3649,-3.4068,-3.3784,-3.3488,-3.332,-3.2925,0.0,-3.095,-3.0687,-3.0432,-2.998,-2.9842,0.0,0.0,0.0,0.0,-2.7607,-2.6954,-2.6389,-2.59,-2.5372,-2.5059,0.0,0.0,0.0,0.0,0.0,0.0,0.0,0.0,0.0,-2.3078,-2.3078,0.0,-2.3276,-2.3115,-2.3078,-2.3078,-2.3078,-2.3078,-2.3078,-2.3078,-2.3078,-2.309,-2.319,-2.3288,-2.3288,-2.3288,-2.3678,-2.4054,-2.3565,-2.4092,-2.472,-2.4268,-2.4142,-2.4142,-2.4142,-2.3853,-2.364,-2.3929,-2.3953,-2.3996,-2.4443,-2.4493,-2.451,-2.4628,0.0,0.0,0.0,0.0,0.0,0.0,0.0,0.0,0.0,0.0,0.0,0.0,0.0,0.0,0.0,0.0,0.0,0.0,0.0,0.0,0.0,0.0,0.0,0.0,0.0,0.0,-2.2253,-2.2776,-2.3599,-2.4707,-2.4564,-2.4825,-2.5455,-2.5436,-2.5215,-2.4921,-2.4368,-2.3866,-2.3366,-2.3265,-2.3165,-2.3078,-2.3078,-2.3201,-2.3288,0.0,0.0,0.0,0.0,0.0,0.0,0.0,-3.4845,0.0,-3.4066,-3.2886,-3.189,-3.1193,-3.0586,-2.9967,-2.939,-2.934,-2.9101,-2.8536,-2.8235,-2.7708,-2.6892,-2.6314,0.0,-2.5209,-2.4669,-2.4393,-2.4393,0.0,0.0,0.0,0.0,0.0,0.0,0.0,-2.3078,0.0,0.0,0.0,-2.3078,-2.3078,-2.3078,-2.3078,-2.3078,-2.3078,-2.3078,-2.3078,-2.3078,-2.3078,-2.3078,-2.3078,-2.3078,-2.3078,-2.3326,-2.3502,-2.3213,-2.3466,-2.3891,-2.3627,-2.3552,-2.3552,-2.3552,-2.3565,-2.3577,-2.3552,-2.3801,-2.4198,-2.4691,-2.4892,-2.4976,-2.5206,-2.5008,0.0,0.0,0.0,0.0,0.0,0.0,0.0,0.0,0.0,0.0,0.0,0.0,0.0,0.0,0.0,0.0,0.0,0.0,0.0,0.0,0.0,0.0,0.0,0.0,0.0,-2.3526,-2.2999,-2.3514,-2.5004,-2.5004,-2.4929,-2.4915,-2.5398,-2.546,-2.5197,-2.4933,-2.4343,-2.359,-2.359,-2.3401,-2.3078,-2.3078,-2.3078,-2.3078,0.0,-3.3724,0.0,0.0,-3.4262,0.0,0.0,-3.5504,-3.529,-3.4664,-3.2947,-3.1749,-3.1553,-3.0394,-2.9428,-2.8976,-2.8825,-2.8511,-2.7971,-2.7419,-2.6854,-2.6302,-2.5624,-2.5059,-2.4657,-2.4104,-2.3816,0.0,0.0,0.0,0.0,0.0,0.0,0.0,0.0,0.0,0.0,0.0,-2.3078,-2.3078,-2.3078,-2.3078,-2.3078,-2.3078,-2.3078,-2.3078,-2.3078,-2.3078,-2.3078,-2.3078,-2.3078,-2.3078,-2.3078,-2.3078,-2.3078,-2.3078,-2.3078,-2.3078,-2.3078,-2.3078,-2.3078,-2.3078,-2.3477,-2.369,-2.3238,-2.3916,-2.4682,-2.4795,-2.5335,-2.5774,-2.5774,-2.554,0.0,0.0,0.0,0.0,0.0,0.0,0.0,0.0,0.0,0.0,0.0,0.0,0.0,0.0,0.0,0.0,0.0,0.0,0.0,0.0,0.0,0.0,-2.2981,0.0,-2.2999,0.0,-2.2999,-2.3294,-2.5004,-2.5004,-2.4742,-2.435,-2.5215,-2.5473,-2.5247,-2.5121,-2.4569,-2.3816,-2.3816,-2.354,-2.3078,-2.3078,-2.3078,-2.3078,0.0,0.0,0.0,0.0,0.0,0.0,0.0,-3.5504,-3.5391,-3.5009,-3.3494,-3.2154,-3.1309,-2.9905,-2.8988,-2.8938,-2.8473,-2.7946,-2.7394,-2.6841,-2.6276,-2.5699,-2.4695,-2.413,-2.4079,-2.3514,-2.3153,0.0,0.0,0.0,0.0,0.0,0.0,0.0,0.0,0.0,0.0,-2.3078,-2.3078,-2.3078,-2.3078,-2.3078,-2.3078,-2.3078,-2.3078,-2.3078,-2.3078,-2.3078,-2.3078,-2.3078,-2.3078,-2.3078,-2.3078,-2.3078,-2.3078,-2.3078,-2.3078,-2.3078,-2.3078,-2.3078,-2.3078,-2.3078,-2.3115,-2.314,-2.3078,-2.3627,-2.4217,-2.472,-2.5649,-2.6445,-2.6445,-2.5257,-2.4431,0.0,0.0,0.0,0.0,0.0,0.0,0.0,0.0,0.0,0.0,0.0,0.0,0.0,0.0,0.0,0.0,0.0,0.0,0.0,0.0,-2.2639,-2.1408,-2.2706,0.0,-2.2253,-2.2999,-2.3963,-2.5004,-2.5004,-2.4897,-2.4791,-2.5319,-2.5046,-2.4104,-2.3577,-2.324,-2.3153,-2.3153,-2.3128,-2.3078,-2.3078,-2.3078,-2.3078,0.0,0.0,0.0,0.0,0.0,0.0,0.0,-3.5504,-3.5448,-3.5341,-3.3431,-3.2136,-3.2064,-2.9865,-2.8436,-2.8436,-2.7632,-2.6879,-2.6302,-2.5774,-2.5222,-2.4657,-2.423,-2.3841,-2.3489,-2.319,-2.3078,0.0,0.0,0.0,0.0,0.0,0.0,0.0,0.0,-2.3078,-2.3078,-2.3078,-2.3078,-2.3078,-2.3078,-2.3078,-2.3078,-2.3078,-2.3078,-2.3078,-2.3078,-2.3078,-2.3078,-2.3078,-2.3078,-2.3078,-2.3078,-2.3078,-2.3078,-2.3078,-2.3078,-2.3078,-2.3078,-2.3078,-2.3078,-2.3078,-2.3078,-2.3078,-2.3078,-2.3314,-2.364,-2.4205,-2.5184,-2.5802,-2.5245,-2.5343,-2.5257,0.0,0.0,0.0,0.0,0.0,0.0,0.0,0.0,0.0,0.0,0.0,0.0,0.0,0.0,0.0,0.0,0.0,0.0,-2.2947,0.0,-2.2556,-2.2557,-2.3194,-2.3588,-2.3818,-2.4192,-2.4636,-2.5004,-2.5664,-2.55,-2.4808,-2.4695,-2.4192,-2.3489,-2.3602,-2.3452,-2.3078,-2.3078,-2.3078,-2.3078,-2.3078,-2.3078,-2.3078,-3.537,0.0,-3.4936,0.0,-3.51,-3.4936,-3.5429,-3.5504,-3.5504,-3.5504,-3.3402,-3.2011,-3.2346,-2.9686,-2.7858,-2.7858,-2.6854,-2.6038,-2.5624,-2.4958,-2.4406,-2.4017,-2.3841,0.0,-2.3078,-2.3078,-2.3078,-2.3078,-2.3078,0.0,0.0,0.0,0.0,0.0,-2.3078,-2.3078,-2.3078,-2.3078,-2.3078,-2.3078,-2.3078,-2.3078,-2.3078,-2.3078,-2.3078,-2.3078,-2.3078,-2.3078,-2.3078,-2.3078,-2.3078,-2.3078,-2.3078,-2.3078,-2.3078,-2.3078,-2.3078,-2.3078,-2.3078,-2.3078,-2.3078,-2.3078,-2.3078,-2.3078,-2.3078,-2.3078,-2.3217,-2.3677,-2.4751,-2.5369,-2.4572,-2.5105,-2.5276,0.0,0.0,0.0,0.0,0.0,0.0,0.0,-2.1824,-2.1037,-2.0268,0.0,0.0,0.0,0.0,0.0,0.0,0.0,0.0,0.0,0.0,0.0,0.0,0.0,-2.3891,-2.4564,-2.4564,-2.4707,-2.4992,-2.5691,-2.5636,-2.5008,-2.4117,-2.3602,-2.3414,-2.364,-2.3502,-2.3078,-2.3078,-2.3078,-2.3078,-2.3078,-2.3078,-2.3078,-3.537,-3.5489,-3.5489,-3.5504,-3.5489,-3.5489,-3.5504,-3.5504,-3.5504,-3.5504,-3.3577,-3.2125,-3.1847,-2.9096,-2.7293,-2.7293,-2.6264,-2.5598,-2.5598,-2.4607,-2.4004,0.0,0.0,-2.3078,-2.3078,-2.3078,-2.3078,-2.3078,0.0,0.0,-2.3078,0.0,0.0,-2.3078,-2.3078,-2.3078,-2.3078,-2.3078,-2.3078,-2.3078,-2.3078,-2.3078,-2.3078,-2.3078,-2.3078,-2.3078,-2.3078,-2.3078,-2.3078,-2.3078,-2.3078,-2.3078,-2.3078,-2.3078,-2.3078,-2.3078,-2.3078,-2.3078,-2.3078,-2.3078,-2.3078,-2.3078,-2.3078,-2.3078,-2.3078,-2.3078,-2.3133,-2.3263,-2.4523,-2.5493,-2.5051,-2.4181,-2.3818,-2.4791,0.0,0.0,0.0,0.0,0.0,0.0,-2.2611,-2.2113,-1.9562,0.0,0.0,0.0,0.0,0.0,0.0,0.0,0.0,-2.3929,-2.2674,0.0,-2.4163,-2.3724,-2.3526,-2.3514,-2.3514,-2.4036,-2.4981,-2.4846,-2.5109,-2.5498,-2.3853,-2.3464,-2.3941,-2.3376,-2.3078,-2.3078,-2.3078,-2.3078,-2.3078,-2.3078,-2.3078,-2.3078,-3.3993,-3.4143,-3.4277,-3.4726,-3.4801,-3.4966,-3.5429,-3.5504,-3.534,-3.4861,-3.2804,-3.1194,-3.0627,0.0,-2.7365,0.0,-2.5699,-2.4908,0.0,-2.3816,-2.3414,-2.3414,-2.3226,-2.3078,-2.3078,-2.3078,-2.3078,-2.3078,0.0,0.0,0.0,-2.3078,-2.3078,-2.3078,-2.3078,-2.3078,-2.3078,-2.3078,-2.3078,-2.3078,-2.3078,-2.3078,-2.3078,-2.3078,-2.3078,-2.3078,-2.3078,-2.3078,-2.3078,-2.3078,-2.3078,-2.3078,-2.3078,-2.3078,-2.3078,-2.3078,-2.3078,-2.3078,-2.3078,-2.3078,-2.3078,-2.3078,-2.3078,-2.3078,-2.3078,-2.3078,-2.3217,-2.3689,-2.4476,-2.4748,-2.3641,-2.4602,-2.5205,-2.4181,0.0,0.0,0.0,0.0,0.0,0.0,0.0,-2.2567,0.0,-2.1553,0.0,0.0,0.0,0.0,0.0,0.0,0.0,0.0,-2.4509,0.0,-2.5765,-2.5636,-2.5569,-2.5569,-2.5569,-2.5721,-2.6,-2.554,-2.5247,-2.5021,-2.4117,-2.3602,-2.3389,-2.3153,-2.3078,-2.3078,-2.3078,-2.3078,-2.3078,-2.3078,-2.3078,-2.3078,-3.3365,-3.3499,-3.3619,-3.4038,-3.4307,-3.4547,-3.4711,-3.5175,-3.5175,-3.4233,-3.2864,-3.1432,-3.0165,-2.8719,0.0,-2.6261,-2.5335,0.0,-2.4029,-2.3452,-2.3078,-2.3078,-2.3078,-2.3078,-2.3078,0.0,0.0,-2.3078,-2.3078,-2.3078,-2.3078,-2.3078,-2.3078,-2.3078,-2.3078,-2.3078,-2.3078,-2.3078,-2.3078,-2.3078,-2.3078,-2.3078,-2.3078,-2.3078,-2.3078,-2.3078,-2.3078,-2.3078,-2.3078,-2.3078,-2.3078,-2.3078,-2.3078,-2.3078,-2.3078,-2.3078,-2.3078,-2.3078,-2.3078,-2.3078,-2.3078,-2.3078,-2.3078,-2.3078,-2.3078,-2.3078,-2.3045,-2.2938,-2.3959,-2.4369,-2.306,-2.4202,-2.4981,-2.3661,0.0,0.0,0.0,0.0,0.0,0.0,0.0,0.0,0.0,-2.1877,0.0,0.0,0.0,0.0,0.0,0.0,0.0,-2.4316,-2.4487,0.0,-2.6452,-2.5975,-2.5975,-2.6533,-2.6533,-2.6533,-2.6496,-2.5661,-2.5134,-2.4782,-2.4004,-2.3477,-2.3078,-2.3078,-2.3078,-2.3078,-2.3078,-2.3078,-2.3078,-2.3078,-2.3078,-2.3078,-3.3245,-3.3365,0.0,0.0,-3.3933,0.0,-3.3589,-3.4562,-3.4906,-3.3604,-3.3363,-3.2482,-3.0104,-2.8844,-2.7382,-2.5618,0.0,0.0,0.0,-2.3439,-2.3078,-2.3078,-2.3078,0.0,-2.3078,-2.3078,-2.3078,-2.3078,-2.3078,-2.3078,-2.3078,-2.3078,-2.3078,-2.3078,-2.3078,-2.3078,-2.3078,-2.3078,-2.3078,-2.3078,-2.3078,-2.3078,-2.3078,-2.3078,-2.3078,-2.3078,-2.3078,-2.3078,-2.3078,-2.3078,-2.3078,-2.3078,-2.3078,-2.3078,-2.3078,-2.3078,-2.3078,-2.3078,-2.3078,-2.3078,-2.3078,-2.3078,-2.3078,-2.3078,-2.3078,-2.3078,-2.2788,-2.1647,-2.3156,-2.4303,-2.3187,-2.3189,-2.347,-2.347,-2.2382,-2.1757,-2.2685,0.0,0.0,0.0,0.0,0.0,0.0,-2.1862,-2.1463,0.0,0.0,0.0,0.0,0.0,0.0,-2.3556,-2.3283,-2.4214,-2.6452,-2.5262,-2.5262,-2.6533,-2.6533,-2.644,-2.6364,-2.5335,-2.4833,-2.4707,-2.3653,-2.3115,-2.3078,-2.3078,-2.3078,-2.3078,-2.3078,-2.3078,-2.3078,-2.3078,-2.3078,-2.3078,0.0,0.0,-3.2153,-3.2662,-3.2871,-3.3095,-3.344,-3.3769,-3.3679,-3.2856,-3.2132,-3.0974,-2.8816,-2.7773,-2.6459,-2.457,-2.4268,-2.3954,-2.3376,-2.3153,-2.3078,-2.3078,-2.3078,-2.3078,-2.3078,-2.3078,-2.3078,-2.3078,-2.3078,-2.3078,-2.3078,-2.3078,-2.3078,-2.3078,-2.3078,-2.3078,-2.3078,-2.3078,-2.3078,-2.3078,-2.3078,-2.3078,-2.3078,-2.3078,-2.3078,-2.3078,-2.3078,-2.3078,-2.3078,-2.3078,-2.3078,-2.3078,-2.3078,-2.3078,-2.3078,-2.3078,-2.3078,-2.3078,-2.3078,-2.3078,-2.3078,-2.3078,-2.3078,-2.3078,-2.3078,-2.3078,-2.3292,-2.3806,-2.376,-2.3561,-2.3406,-2.3217,-2.3048,-2.2894,-2.2582,-2.269,-2.3575,0.0,0.0,0.0,-2.3203,-2.2587,-2.2536,-2.1205,-2.0456,0.0,0.0,0.0,0.0,0.0,-2.3646,-2.4471,-2.5253,-2.5889,-2.6452,-2.6208,-2.6208,-2.6533,-2.6533,-2.6201,-2.5657,-2.5394,-2.4868,-2.418,-2.3904,-2.354,-2.3078,-2.3078,-2.3078,-2.3078,-2.3078,-2.3078,-2.3078,-2.3078,-2.3078,-2.3078,-3.1061,-3.1315,-3.1586,-3.2003,-3.2317,-3.2542,-3.2587,-3.311,-3.3155,-3.2198,-3.1664,-3.0519,-2.8446,-2.7305,-2.5959,-2.4166,-2.4004,-2.3753,-2.3115,-2.3078,-2.3078,-2.3078,-2.3078,-2.3078,-2.3078,-2.3078,-2.3078,-2.3078,-2.3078,-2.3078,-2.3078,-2.3078,-2.3078,-2.3078,-2.3078,-2.3078,-2.3078,-2.3078,-2.3078,-2.3078,-2.3078,-2.3078,-2.3078,-2.3078,-2.3078,-2.3078,-2.3078,-2.3078,-2.3078,-2.3078,-2.3078,-2.3078,-2.3078,-2.3078,-2.3078,-2.3078,-2.3078,-2.3078,-2.3078,-2.3078,-2.3078,-2.3078,-2.3078,-2.3078,-2.3078,-2.3078,-2.318,-2.3403,-2.3778,-2.3881,-2.3537,-2.3467,-2.3444,-2.3374,-2.2298,-2.1715,-2.2586,-2.1933,0.0,-2.2591,-2.2238,-2.1912,-2.1978,-2.1108,-2.051,-2.056,0.0,0.0,-2.0971,-2.1996,-2.3053,-2.4186,-2.5411,-2.6249,-2.6511,-2.6526,-2.6533,-2.6452,-2.5952,-2.564,-2.5365,-2.4968,-2.4455,-2.3979,-2.3715,-2.3427,-2.3078,-2.3078,-2.3078,-2.3078,-2.3078,-2.3078,-2.3078,-2.3078,-2.3078,-2.3078,-3.0477,-3.0971,-3.1347,-3.1452,-3.2003,-3.2183,-3.1556,-3.2482,-3.2766,-3.1482,-3.126,-3.0338,-2.8154,-2.6903,-2.5571,-2.399,-2.3866,-2.3665,-2.3103,-2.3078,-2.3078,-2.3078,-2.3078,-2.3078,-2.3078,-2.3078,-2.3078,-2.3078,-2.3078,-2.3078,-2.3078,-2.3078,-2.3078,-2.3078,-2.3078,-2.3078,-2.3078,-2.3078,-2.3078,-2.3078,-2.3078,-2.3078,-2.3078,-2.3078,-2.3078,-2.3078,-2.3078,-2.3078,-2.3078,-2.3078,-2.3078,-2.3078,-2.3078,-2.3078,-2.3078,-2.3078,-2.3078,-2.3078,-2.3078,-2.3078,-2.3078,-2.3078,-2.3078,-2.3078,-2.3078,-2.3078,-2.2934,-2.2466,-2.356,-2.4378,-2.3637,-2.3626,-2.3757,-2.3826,-2.1572,-2.0137,-2.1129,0.0,0.0,-2.1119,-2.1108,-2.1041,-2.1041,-2.0907,-2.0643,-2.0237,-2.0204,0.0,0.0,-2.116,-2.2053,-2.3514,-2.4578,-2.5569,-2.6509,-2.6531,-2.6508,-2.6514,-2.5515,-2.5087,-2.5,-2.4204,-2.3854,-2.3841,-2.3351,-2.3078,-2.3078,-2.3078,-2.3078,-2.3078,-2.3078,-2.3078,-2.3078,-2.3078,-2.3078,-2.3078,-3.0402,-3.0597,-3.0851,-3.1377,-3.1556,-3.1601,-3.1497,-3.1704,-3.1554,-3.0776,-3.0102,-2.8943,-2.6928,-2.5928,-2.4807,-2.3362,-2.3215,-2.3226,-2.3078,-2.3078,-2.3078,-2.3078,-2.3078,-2.3078,-2.3078,-2.3078,-2.3078,-2.3078,-2.3078,-2.3078,-2.3078,-2.3078,-2.3078,-2.3078,-2.3078,-2.3078,-2.3078,-2.3078,-2.3078,-2.3078,-2.3078,-2.3078,-2.3078,-2.3078,-2.3078,-2.3078,-2.3078,-2.3078,-2.3078,-2.3078,-2.3078,-2.3078,-2.3078,-2.3078,-2.3078,-2.3078,-2.3078,-2.3078,-2.3078,-2.3078,-2.3078,-2.3078,-2.3078,-2.3078,-2.3078,-2.3078,-2.3341,-2.4165,-2.3932,-2.355,-2.3492,-2.2331,-2.1555,-2.217,-2.0671,-1.9921,0.0,0.0,-2.064,-2.1263,-2.0649,-2.0175,-2.0254,-1.951,-1.8854,-1.8434,-1.8395,-1.921,-2.1184,-2.134,-2.2166,-2.3853,-2.3148,-2.397,-2.6476,-2.6521,-2.6488,-2.6509,-2.6335,-2.5256,-2.3478,-2.333,-2.3232,-2.3203,-2.3115,-2.3078,-2.3078,-2.3078,-2.3078,-2.3078,-2.3078,-2.3078,-2.3078,-2.3078,-2.3078,-2.3078,-2.9415,-3.0028,-3.0612,-3.0926,-3.1285,-3.1482,-3.1482,-3.1482,-3.1285,-3.0597,-2.9532,-2.8254,-2.6564,-2.5374,-2.4145,-2.2795,-2.2902,-2.2952,-2.2711,-2.2915,-2.3078,-2.3078,-2.3078,-2.2927,-2.2698,-2.2927,-2.2987,-2.2686,-2.2987,-2.3078,-2.3078,-2.3078,-2.3078,-2.3078,-2.3078,-2.3078,-2.3078,-2.3078,-2.3078,-2.3078,-2.3078,-2.3078,-2.3078,-2.3078,-2.3078,-2.3078,-2.3078,-2.3078,-2.3078,-2.3078,-2.3078,-2.3078,-2.3078,-2.3078,-2.3078,-2.3078,-2.3078,-2.3078,-2.3078,-2.3078,-2.3078,-2.3078,-2.3078,-2.3078,-2.3078,-2.3078,-2.3155,-2.3229,-2.3087,-2.2885,-2.2456,-2.1694,-2.1259,-2.1587,-2.0333,0.0,0.0,-1.9759,-1.9343,-1.986,-1.951,-1.9243,-1.9312,-1.8834,-1.8457,-1.8047,-1.8008,-1.8484,-1.9536,-1.9557,-1.9948,-2.073,-2.1147,-2.2208,-2.3998,-2.5668,-2.5902,-2.4645,-2.4657,-2.4129,-2.307,-2.3084,-2.3094,-2.3078,-2.3078,-2.3078,-2.3078,-2.3078,-2.3078,-2.3078,-2.3078,-2.3078,-2.3078,-2.3078,-2.3078,-2.3078,-2.8338,-2.928,-3.0118,-3.0253,-3.0851,-3.124,-3.1106,-3.121,-3.1001,-3.0163,-2.8961,-2.7725,-2.6554,-2.5043,-2.3681,-2.2681,-2.2631,-2.2573,-2.2146,-2.2523,-2.2862,-2.3065,-2.3078,-2.2874,-2.2322,-2.2723,-2.2673,-2.2121,-2.2673,-2.2877,-2.2949,-2.3015,-2.3078,-2.3078,-2.3078,-2.3078,-2.3078,-2.3078,-2.3078,-2.3078,-2.3078,-2.3078,-2.3078,-2.3078,-2.3078,-2.3053,-2.2987,-2.2877,-2.2877,-2.2877,-2.2877,-2.2962,-2.3027,-2.3078,-2.3078,-2.3078,-2.3078,-2.3078,-2.3078,-2.3078,-2.3078,-2.3078,-2.2944,-2.2823,-2.2823,-2.2689,-2.2408,-2.1906,-2.211,-2.2166,-2.1408,-2.1197,-2.1119,-2.1052,0.0,0.0,0.0,-1.8529,-1.8125,-1.8457,-1.8486,-1.8486,-1.8486,-1.8486,-1.8359,-1.8037,-1.8202,-1.8395,-1.8596,-1.8787,-1.8977,-1.9166,-2.0095,-2.091,-2.1579,-2.4339,-2.4859,-2.3131,-2.3119,-2.3084,-2.3071,-2.313,-2.3078,-2.3078,-2.3078,-2.3078,-2.3078,-2.3078,-2.3078,-2.3065,-2.2927,-2.2965,-2.304,-2.2849,-2.2836,-2.2877,-2.753,-2.8233,-2.8936,-2.9549,-3.0163,-3.0387,-2.9819,-3.0208,-3.0133,-2.8906,-2.8067,-2.7273,-2.6587,-2.4682,-2.3434,-2.3339,-2.2309,-2.1594,-2.1556,-2.1594,-2.2071,-2.3027,-2.3078,-2.2874,-2.2322,-2.2347,-2.2108,-2.1543,-2.2108,-2.2372,-2.2385,-2.2899,-2.3078,-2.3078,-2.3078,-2.3078,-2.3078,-2.3078,-2.3078,-2.3078,-2.3078,-2.3078,-2.3078,-2.3078,-2.3078,-2.3002,-2.256,-2.2372,-2.2372,-2.2372,-2.2372,-2.246,-2.2915,-2.3078,-2.3078,-2.3078,-2.3078,-2.3078,-2.3078,-2.3078,-2.3078,-2.3078,-2.2567,-2.2002,-2.2002,-2.1365,-2.0918,-2.137,-2.1495,-2.133,-2.0898,-2.0482,-2.0186,-2.0039,0.0,0.0,-1.9177,-1.8529,-1.8018,-1.8047,-1.8057,-1.8057,-1.8057,-1.8057,-1.8047,-1.8008,-1.8721,-1.9562,-2.0398,-2.1164,-2.1928,-2.2689,-2.1325,-2.0639,-2.071,-2.2462,-2.3283,-2.3107,-2.3083,-2.3115,-2.3115,-2.309,-2.3078,-2.3078,-2.3078,-2.3078,-2.3078,-2.3078,-2.3078,-2.3027,-2.2573,-2.2686,-2.2952,-2.1983,-2.1933,-2.2372,-2.6916,-2.7844,-2.8682,-2.8936,-2.9505,-2.9849,-2.9624,-2.9774,-2.9337,-2.7563,-2.672,-2.5727,-2.4255,-2.2986,-2.2078,-2.1732,-2.1572,-2.1343,-2.1004,-2.1305,-2.1681,-2.2096,-2.2121,-2.1857,-2.1305,-2.1631,-2.1531,-2.0978,-2.1531,-2.1794,-2.1807,-2.202,-2.2297,-2.2611,-2.2272,-2.2297,-2.2598,-2.2259,-2.2121,-2.2146,-2.2485,-2.2623,-2.2661,-2.294,-2.3078,-2.3002,-2.251,-2.2535,-2.2774,-2.2422,-2.2309,-2.2347,-2.256,-2.2623,-2.2686,-2.2977,-2.3078,-2.3078,-2.3078,-2.3078,-2.3078,-2.3078,-2.2506,-2.2002,-2.2506,-2.1604,-2.0646,-2.0826,-2.0479,-1.9881,-1.9198,-1.8891,-1.8781,-1.8702,0.0,-1.8144,-1.8462,-1.8202,-1.8008,-1.8008,-1.8008,-1.8008,-1.8008,-1.8008,-1.8008,-1.8008,-1.8337,-1.8664,-1.8977,-1.9299,-1.9617,-1.9933,-2.0028,-2.0699,-2.2126,-2.2778,-2.3065,-2.3125,-2.313,-2.3069,-2.3119,-2.3133,-2.3108,-2.3096,-2.3092,-2.3078,-2.3078,-2.3078,-2.3078,-2.3053,-2.2912,-2.289,-2.3027,-2.2661,-2.2636,-2.2799,-2.5974,-2.6886,-2.7724,-2.7934,-2.8517,-2.8951,-2.8951,-2.9131,-2.8613,-2.6836,-2.6165,-2.5159,-2.345,-2.2406,-2.1637,-2.1104,-2.1002,-2.0803,-2.0426,-2.0752,-2.1117,-2.1468,-2.1493,-2.123,-2.0731,-2.1041,-2.0953,-2.0401,-2.0953,-2.123,-2.123,-2.1405,-2.1694,-2.2033,-2.1656,-2.1694,-2.2033,-2.1656,-2.1493,-2.1518,-2.1895,-2.2058,-2.2096,-2.2472,-2.2623,-2.2548,-2.1995,-2.2033,-2.2297,-2.192,-2.1794,-2.1857,-2.2196,-2.2435,-2.2636,-2.2965,-2.3078,-2.3078,-2.3078,-2.3078,-2.3017,-2.2763,-2.2125,-2.1553,-2.1854,-2.0835,-1.9759,-1.9759,-1.9299,-1.8721,-1.8144,-1.8008,-1.8008,-1.8008,-1.8008,-1.8008,-1.8008,-1.8008,-1.8008,-1.8008,-1.8008,-1.8008,-1.8008,-1.8008,-1.8008,-1.8008,-1.8269,-1.8529,-1.8787,-1.8854,-1.8854,-1.8854,-1.9217,-2.0373,-2.2327,-2.1773,-2.1486,-2.1527,-2.1527,-2.1481,-2.1514,-2.1502,-2.2065,-2.3121,-2.3105,-2.3078,-2.3078,-2.3078,-2.3078,-2.3113,-2.309,-2.3027,-2.2824,-2.2513,-2.2513,-2.2585,-2.4582,-2.5151,-2.5809,-2.6467,-2.7126,-2.761,-2.761,-2.8143,-2.8098,-2.6752,-2.6572,-2.6109,-2.4834,-2.3505,-2.2451,-2.1845,-2.0566,-1.9798,-1.9798,-1.9798,-2.03,-2.143,-2.1481,-2.1217,-2.0718,-2.0706,-2.0376,-1.9798,-2.0376,-2.0706,-2.0718,-2.1217,-2.1481,-2.1481,-2.1481,-2.1481,-2.1481,-2.1481,-2.1481,-2.1481,-2.1481,-2.1481,-2.1481,-2.1493,-2.1493,-2.1418,-2.092,-2.0718,-2.0731,-2.0718,-2.0718,-2.0907,-2.1945,-2.2673,-2.3065,-2.3065,-2.3078,-2.3078,-2.3078,-2.3078,-2.2884,-2.2125,-2.1239,-2.0398,-1.9497,-1.8654,-1.8008,-1.8008,-1.8008,-1.8008,-1.8008,-1.8008,-1.8008,-1.8008,-1.8008,-1.8008,-1.8008,-1.8008,-1.8008,-1.8008,-1.8008,-1.8008,-1.8008,-1.8008,-1.8008,-1.8008,-1.8787,-1.9694,-2.0526,-2.059,-2.059,-2.059,-1.946,-1.9456,-2.0542,-1.886,-1.8006,-1.7989,-1.8009,-1.8048,-1.8027,-1.8027,-1.9878,-2.3078,-2.3125,-2.3125,-2.3125,-2.3125,-2.3125,-2.3122,-2.3101,-2.2794,-2.2191,-2.126,-2.1166,-2.1468,-2.4582,-2.5151,-2.5674,-2.5869,-2.6437,-2.6722,-2.6258,-2.6767,-2.656,-2.478,-2.4557,-2.4043,-2.2752,-2.2241,-2.1759,-2.1146,-2.0751,-2.0295,-1.985,-1.9798,-1.9949,-2.0288,-2.0313,-2.0225,-2.0062,-2.0062,-1.9974,-1.9798,-1.9974,-2.0062,-2.0062,-2.0225,-2.0526,-2.0891,-2.0489,-2.0526,-2.0891,-2.0476,-2.0313,-2.0338,-2.0752,-2.097,-2.0953,-2.1343,-2.1493,-2.1418,-2.092,-2.097,-2.1179,-2.0857,-2.0718,-2.0781,-2.1054,-2.1543,-2.2058,-2.2447,-2.2836,-2.3078,-2.3078,-2.3078,-2.3065,-2.2823,-2.2125,-2.1428,-2.1175,-2.0462,-1.9628,-1.9044,-1.8911,-1.8721,-1.8144,-1.8008,-1.8008,-1.8008,-1.8008,-1.8008,-1.8008,-1.8008,-1.8008,-1.8008,-1.8008,-1.8008,-1.8008,-1.8008,-1.8008,-1.8008,-1.8269,-1.8529,-1.8787,-1.8787,-1.8645,-1.8338,-1.8015,-1.7843,-1.7881,-1.7963,-1.8002,-1.806,-2.0435,-2.1558,-2.1608,-2.1591,-2.2161,-2.3088,-2.3111,-2.3129,-2.3083,-2.3083,-2.3083,-2.3127,-2.3102,-2.236,-2.1306,-2.134,-2.139,-2.1499,-2.4223,-2.4537,-2.4896,-2.5181,-2.5555,-2.5764,-2.563,-2.5944,-2.5667,-2.4212,-2.4034,-2.3432,-2.186,-2.1946,-2.1629,-2.0497,-2.0396,-2.0245,-1.985,-1.9798,-1.9798,-1.9798,-1.9798,-1.9798,-1.9798,-1.9798,-1.9798,-1.9798,-1.9798,-1.9798,-1.9798,-1.9798,-1.9987,-2.0313,-1.9962,-1.9999,-2.03,-1.9949,-1.9798,-1.9836,-2.0188,-2.0326,-2.0363,-2.069,-2.0828,-2.0778,-2.0439,-2.0539,-2.0778,-2.0439,-2.0476,-2.0718,-2.0718,-2.1041,-2.1594,-2.2146,-2.2151,-2.2098,-2.2307,-2.2116,-2.1801,-2.1801,-2.1587,-2.1302,-2.0974,-2.0204,-1.9431,-1.8911,-1.8787,-1.8586,-1.8076,-1.8008,-1.8008,-1.8008,-1.8008,-1.8008,-1.8008,-1.8008,-1.8008,-1.8008,-1.8008,-1.8008,-1.8008,-1.8008,-1.8008,-1.8008,-1.8008,-1.8008,-1.8008,-1.7852,-1.7646,-1.7393,-1.7041,-1.6811,-1.6547,-1.6842,-1.7541,-1.8744,-2.0835,-2.1666,-2.144,-2.2128,-2.2454,-2.2435,-2.2013,-2.1794,-2.1774,-2.1774,-2.1962,-2.2219,-2.1907,-2.142,-2.0827,-2.0824,-2.1033,-2.1209,-2.3595,-2.3595,-2.3789,-2.4373,-2.4537,-2.4761,-2.5345,-2.548,-2.5285,-2.4582,-2.4492,-2.3864,-2.2049,-2.2346,-2.1974,-2.0144,-1.985,-1.9798,-1.9798,-1.9798,-1.9798,-1.9798,-1.9798,-1.9798,-1.9798,-1.9798,-1.9798,-1.9798,-1.9798,-1.9798,-1.9798,-1.9798,-1.9798,-1.9798,-1.9798,-1.9798,-1.9798,-1.9798,-1.9798,-1.9798,-1.9798,-1.9798,-1.9798,-1.9798,-1.9798,-1.9798,-1.9798,-1.9798,-1.9798,-1.9798,-2.0162,-2.0643,-2.0643,-2.0966,-2.1506,-2.202,-2.1362,-2.0589,-2.1068,-2.0612,-2.0025,-2.0025,-2.0221,-2.0268,-1.9497,-1.8721,-1.8202,-1.8008,-1.8076,-1.8076,-1.8008,-1.8008,-1.8008,-1.8008,-1.8008,-1.8008,-1.8008,-1.8008,-1.8008,-1.8008,-1.8008,-1.8008,-1.8008,-1.8008,-1.7998,-1.7959,-1.7959,-1.7939,-1.79,-1.7539,-1.7305,-1.7266,-1.6484,-1.6125,-1.6226,-1.5657,-1.6799,-1.959,-1.9574,-1.9287,-1.8838,-2.0443,-2.1151,-2.1132,-2.0181,-1.9789,-1.9821,-1.9797,-2.0207,-2.0724,-2.0047,-2.0122,-2.0526,-1.9999,-2.0227,-2.0734,-2.3595,-2.3595,-2.3655,-2.3789,-2.4268,-2.4448,-2.4088,-2.4492,-2.4597,-2.3909,-2.3819,-2.3672,-2.3231,-2.292,-2.23,-2.1376,-2.037,-1.9798,-1.9798,-1.9798,-1.9798,-1.9798,-1.9798,-1.9798,-1.9798,-1.9798,-1.9798,-1.9798,-1.9798,-1.9798,-1.9798,-1.9798,-1.9798,-1.9798,-1.9798,-1.9798,-1.9798,-1.9798,-1.9798,-1.9798,-1.9798,-1.9798,-1.9798,-1.9798,-1.9798,-1.9798,-1.9798,-1.9798,-1.9798,-1.9798,-1.9886,-1.9987,-1.9987,-2.0388,-2.092,-2.0991,-2.1131,-2.1281,-2.1393,-2.1124,-2.0756,-2.0756,-2.0147,-1.9562,-1.9365,-1.9694,-1.9628,-1.8269,-1.8519,-1.8787,-1.8144,-1.8008,-1.8008,-1.8008,-1.8008,-1.8008,-1.8008,-1.8008,-1.8008,-1.8008,-1.8008,-1.8008,-1.8008,-1.8008,-1.7871,-1.7539,-1.7519,-1.7373,-1.7031,-1.6924,-1.6709,-1.6357,-1.6223,-1.5958,-1.5625,-1.5487,-1.6283,-1.808,-1.807,-1.8017,-1.7892,-1.8251,-1.8471,-1.8498,-1.9403,-1.9818,-1.978,-1.9784,-1.9893,-1.9995,-1.9858,-1.9897,-1.9974,-1.9849,-1.9886,-1.9999,-2.3535,-2.3595,-2.3595,-2.3595,-2.3894,-2.4014,-2.3655,-2.3909,-2.4014,-2.3655,-2.3595,-2.3508,-2.3187,-2.3143,-2.2756,-2.1791,-2.0818,-2.0144,-1.9798,-1.9798,-1.9798,-1.9798,-1.9798,-1.9798,-1.9798,-1.9798,-1.9798,-1.9798,-1.9798,-1.9798,-1.9798,-1.9798,-1.9798,-1.9798,-1.9798,-1.9798,-1.9798,-1.9798,-1.9798,-1.9798,-1.9798,-1.9798,-1.9798,-1.9798,-1.9798,-1.9798,-1.9798,-1.9798,-1.9798,-1.9798,-1.9798,-1.9798,-1.9798,-2.0012,-2.0313,-2.0643,-2.0449,-2.0171,-2.0093,-1.9657,-1.9074,-1.8775,-1.8354,-1.8267,-1.9138,-1.9299,-1.911,-1.8202,-1.8327,-1.8529,-1.8076,-1.8008,-1.8008,-1.8008,-1.8008,-1.8008,-1.8008,-1.8008,-1.8008,-1.8008,-1.8008,-1.8008,-1.8008,-1.8008,-1.7832,-1.7422,-1.7383,-1.7197,-1.6758,-1.6533,-1.6309,-1.6135,-1.5859,-1.5644,-1.541,-1.5418,-1.578,-1.6556,-1.7015,-1.7557,-1.8098,-1.8098,-1.8329,-1.8705,-1.9455,-1.9793,-1.979,-1.9809,-1.9798,-1.9798,-1.9798,-1.9798,-1.9798,-1.9798,-1.9798,-1.9798,-2.3325,-2.3445,-2.3475,-2.358,-2.3595,-2.3595,-2.3595,-2.3595,-2.3595,-2.3595,-2.3595,-2.3377,-2.2754,-2.2965,-2.2651,-2.1459,-2.0917,-2.0396,-1.985,-1.9798,-1.9798,-1.9798,-1.9798,-1.9798,-1.9798,-1.9798,-1.9798,-1.9798,-1.9798,-1.9798,-1.9798,-1.9798,-1.9798,-1.9798,-1.9798,-1.9798,-1.9798,-1.9798,-1.9798,-1.9798,-1.9798,-1.9798,-1.9798,-1.9798,-1.9798,-1.9798,-1.9798,-1.9798,-1.9798,-1.9798,-1.9798,-1.9798,-1.9798,-1.9798,-1.9899,-2.027,-1.9568,-1.8649,-1.843,-1.781,-1.7064,-1.6417,-1.652,-1.7115,-1.8613,-1.8419,-1.793,-1.7998,-1.8008,-1.8008,-1.8008,-1.8008,-1.8008,-1.8008,-1.8008,-1.8008,-1.8008,-1.8008,-1.8008,-1.8008,-1.8008,-1.8008,-1.8008,-1.7949,-1.7734,-1.7305,-1.7197,-1.6973,-1.6533,-1.6152,-1.5947,-1.5947,-1.5596,-1.541,-1.541,-1.541,-1.541,-1.541,-1.6233,-1.717,-1.8167,-1.8274,-1.8661,-1.9254,-1.9475,-1.9579,-1.9567,-1.9747,-1.9798,-1.9798,-1.9798,-1.9798,-1.9798,-1.9798,-1.9798,-1.9798,-2.2667,-2.2802,-2.2966,-2.3505,-2.3595,-2.3595,-2.3595,-2.3595,-2.3595,-2.3595,-2.3595,-2.3377,-2.2754,-2.1799,-2.0881,-2.0131,-2.0003,-1.9901,-1.9798,-1.9798,-1.9798,-1.9798,-1.9798,-1.9798,-1.9798,-1.9798,-1.9798,-1.9798,-1.9798,-1.9798,-1.9798,-1.9798,-1.9798,-1.9798,-1.9798,-1.9798,-1.9798,-1.9798,-1.9798,-1.9798,-1.9798,-1.9798,-1.9798,-1.9798,-1.9798,-1.9798,-1.9798,-1.9798,-1.9798,-1.9798,-1.9798,-1.9798,-1.9798,-1.9798,-1.9708,-1.9129,-1.8827,-1.8566,-1.7877,-1.7492,-1.7193,-1.7075,-1.688,-1.6865,-1.7475,-1.7593,-1.7568,-1.7939,-1.8008,-1.8008,-1.8008,-1.8008,-1.8008,-1.8008,-1.8008,-1.8008,-1.8008,-1.8008,-1.8008,-1.8008,-1.8008,-1.8008,-1.8008,-1.7686,-1.7285,-1.6855,-1.6455,-1.6055,-1.5615,-1.5537,-1.5498,-1.5498,-1.5439,-1.541,-1.541,-1.541,-1.541,-1.541,-1.5565,-1.5671,-1.5853,-1.6539,-1.6866,-1.7034,-1.8274,-1.8732,-1.8631,-1.9451,-1.9798,-1.9798,-1.9798,-1.9798,-1.9798,-1.9798,-1.9798,-1.9798,-2.1994,-2.2128,-2.2218,-2.2488,-2.2832,-2.3086,-2.3086,-2.337,-2.3595,-2.3595,-2.3295,-2.3001,-2.273,-2.1595,-2.0607,-1.9953,-1.993,-1.9861,-1.9773,-1.9798,-1.9798,-1.9798,-1.9798,-1.9798,-1.9798,-1.9798,-1.9798,-1.9798,-1.9798,-1.9798,-1.9798,-1.9798,-1.9798,-1.9798,-1.9798,-1.9798,-1.9798,-1.9798,-1.9798,-1.9798,-1.9798,-1.9798,-1.9798,-1.9798,-1.9798,-1.9798,-1.9798,-1.9798,-1.9798,-1.9798,-1.9527,-1.9202,-1.9202,-1.8874,-1.8501,-1.8178,-1.807,-1.7895,-1.7202,-1.6914,-1.668,-1.6272,-1.6079,-1.6113,-1.6553,-1.665,-1.6904,-1.7822,-1.8008,-1.8008,-1.8008,-1.7822,-1.7656,-1.7656,-1.7451,-1.7383,-1.7627,-1.7656,-1.7656,-1.7656,-1.7441,-1.7295,-1.7295,-1.7129,-1.6836,-1.6396,-1.6172,-1.5879,-1.5439,-1.541,-1.541,-1.541,-1.541,-1.541,-1.541,-1.541,-1.541,-1.541,-1.541,-1.5642,-1.6036,-1.6368,-1.6708,-1.7146,-1.7786,-1.8263,-1.8614,-1.902,-1.9423,-1.9798,-1.9798,-1.9798,-1.9798,-1.9798,-1.9798,-1.9798]}]]